[[{"header":{"parameterUnit":"m.s-1","parameterCategory":1,"la1":30.6,"la2":29.2853,"lo1":-89.7004,"lo2":-87.6739,"dy":0.0162,"dx":0.0183,"nx":112,"ny":82,"refTime":"2026-04-30T12:00:00:Z","depth":0,"parameterNumber":2,"parameterNumberName":"U-component_of_WINDS"},"data":[0.0,0.0,0.0,0.0,0.0,0.0,0.0,0.0,0.0,0.0,0.0,0.0,0.0,0.0,0.0,0.0,0.0,0.0,0.0,0.0,0.0,0.0,0.0,0.0,0.0,0.0,0.0,0.0,0.0,0.0,0.0,0.0,0.0,0.0,0.0,0.0,0.0,0.0,0.0,0.0,0.0,0.0,0.0,0.0,0.0,0.0,0.0,0.0,0.0,0.0,0.0,0.0,0.0,0.0,0.0,0.0,0.0,0.0,0.0,0.0,0.0,0.0,0.0,0.0,0.0,0.0,0.0,0.0,0.0,0.0,0.0,0.0,0.0,0.0,0.0,0.0,0.0,0.0,0.0,0.0,0.0,0.0,0.0,0.0,0.0,0.0,0.0,0.0,0.0,0.0,3.6101,3.5647,3.6833,3.84,4.015,3.9318,3.8436,3.775,0.0,0.0,0.0,0.0,0.0,0.0,0.0,0.0,0.0,0.0,0.0,0.0,0.0,0.0,0.0,0.0,0.0,0.0,0.0,0.0,0.0,0.0,0.0,0.0,0.0,0.0,0.0,0.0,0.0,0.0,0.0,0.0,0.0,0.0,0.0,0.0,0.0,0.0,0.0,0.0,0.0,0.0,0.0,0.0,0.0,0.0,0.0,0.0,0.0,0.0,0.0,0.0,0.0,0.0,0.0,0.0,0.0,0.0,0.0,0.0,0.0,0.0,0.0,0.0,0.0,0.0,0.0,0.0,0.0,0.0,0.0,0.0,0.0,0.0,0.0,0.0,0.0,0.0,0.0,0.0,0.0,0.0,0.0,0.0,0.0,0.0,0.0,0.0,0.0,0.0,0.0,0.0,0.0,0.0,0.0,0.0,0.0,0.0,0.0,0.0,0.0,0.0,0.0,0.0,3.5876,3.7179,3.7561,3.84,4.015,3.8813,3.7822,3.7714,0.0,0.0,0.0,0.0,0.0,0.0,0.0,0.0,0.0,0.0,0.0,0.0,0.0,0.0,0.0,0.0,0.0,0.0,0.0,0.0,0.0,0.0,0.0,0.0,0.0,0.0,0.0,0.0,0.0,0.0,0.0,0.0,0.0,0.0,0.0,0.0,0.0,0.0,0.0,0.0,0.0,0.0,0.0,0.0,0.0,0.0,0.0,0.0,0.0,0.0,0.0,0.0,0.0,0.0,0.0,0.0,0.0,0.0,0.0,0.0,0.0,0.0,0.0,0.0,0.0,0.0,0.0,0.0,0.0,0.0,0.0,0.0,0.0,0.0,0.0,0.0,0.0,0.0,0.0,0.0,0.0,0.0,0.0,0.0,0.0,0.0,0.0,0.0,0.0,0.0,0.0,0.0,0.0,0.0,0.0,0.0,0.0,0.0,0.0,0.0,0.0,0.0,0.0,3.5186,3.5838,3.7523,3.7714,3.8391,4.0117,3.8649,3.7652,3.7708,3.6445,0.0,0.0,0.0,0.0,0.0,0.0,0.0,0.0,0.0,0.0,0.0,0.0,0.0,0.0,0.0,0.0,0.0,0.0,0.0,0.0,0.0,0.0,0.0,0.0,0.0,0.0,0.0,0.0,0.0,0.0,0.0,0.0,0.0,0.0,0.0,0.0,0.0,0.0,0.0,0.0,0.0,0.0,0.0,0.0,0.0,0.0,0.0,0.0,0.0,0.0,0.0,0.0,0.0,0.0,0.0,0.0,0.0,0.0,0.0,0.0,0.0,0.0,0.0,0.0,0.0,0.0,0.0,0.0,0.0,0.0,0.0,0.0,0.0,0.0,0.0,0.0,0.0,0.0,0.0,0.0,0.0,0.0,0.0,0.0,0.0,0.0,0.0,0.0,0.0,0.0,0.0,0.0,0.0,0.0,0.0,0.0,0.0,0.0,0.0,0.0,0.0,0.0,3.5186,3.5838,3.7523,3.7714,3.8382,4.0051,3.8599,3.7635,3.7706,3.6058,0.0,0.0,0.0,0.0,0.0,0.0,0.0,0.0,0.0,0.0,0.0,0.0,0.0,0.0,0.0,0.0,0.0,0.0,0.0,0.0,0.0,0.0,0.0,0.0,0.0,0.0,0.0,0.0,0.0,0.0,0.0,0.0,0.0,0.0,0.0,0.0,0.0,0.0,0.0,0.0,0.0,0.0,0.0,0.0,0.0,0.0,0.0,0.0,0.0,0.0,0.0,0.0,0.0,0.0,0.0,0.0,0.0,0.0,0.0,0.0,0.0,0.0,0.0,0.0,0.0,0.0,0.0,0.0,0.0,0.0,0.0,0.0,0.0,0.0,0.0,0.0,0.0,0.0,0.0,0.0,0.0,0.0,0.0,0.0,0.0,0.0,0.0,0.0,0.0,0.0,0.0,0.0,0.0,0.0,0.0,0.0,0.0,0.0,0.0,0.0,0.0,0.0,3.5186,3.5838,3.7523,3.7714,3.8382,4.0051,3.8599,3.7635,3.7706,3.6028,0.0,0.0,0.0,0.0,0.0,0.0,0.0,0.0,0.0,0.0,0.0,0.0,0.0,0.0,0.0,0.0,0.0,0.0,0.0,0.0,0.0,0.0,0.0,0.0,0.0,0.0,0.0,0.0,0.0,0.0,0.0,0.0,0.0,0.0,0.0,0.0,0.0,0.0,0.0,0.0,0.0,0.0,0.0,0.0,0.0,0.0,0.0,0.0,0.0,0.0,0.0,0.0,0.0,0.0,0.0,0.0,0.0,0.0,0.0,0.0,0.0,0.0,0.0,0.0,0.0,0.0,0.0,0.0,0.0,0.0,0.0,0.0,0.0,0.0,0.0,0.0,0.0,0.0,0.0,0.0,0.0,0.0,0.0,0.0,0.0,0.0,0.0,0.0,0.0,0.0,0.0,0.0,0.0,0.0,0.0,0.0,0.0,0.0,0.0,0.0,0.0,0.0,3.5594,3.6333,3.7585,3.8094,3.8628,3.9267,3.8193,3.7283,3.6862,0.0,0.0,0.0,0.0,0.0,0.0,0.0,0.0,0.0,0.0,0.0,0.0,0.0,0.0,0.0,0.0,0.0,0.0,0.0,0.0,0.0,0.0,0.0,0.0,0.0,0.0,0.0,0.0,0.0,0.0,0.0,0.0,0.0,0.0,0.0,0.0,0.0,0.0,0.0,0.0,0.0,0.0,0.0,0.0,0.0,0.0,0.0,0.0,0.0,0.0,0.0,0.0,0.0,0.0,0.0,0.0,0.0,0.0,0.0,0.0,0.0,0.0,0.0,0.0,0.0,0.0,0.0,0.0,0.0,0.0,0.0,0.0,0.0,0.0,0.0,0.0,0.0,0.0,0.0,0.0,0.0,0.0,0.0,0.0,0.0,0.0,0.0,0.0,0.0,0.0,0.0,0.0,0.0,0.0,0.0,0.0,0.0,0.0,0.0,0.0,0.0,0.0,3.5535,3.6013,3.6843,3.8264,3.8618,3.8991,3.9488,3.819,3.7068,3.6326,0.0,0.0,0.0,0.0,0.0,0.0,0.0,0.0,0.0,0.0,0.0,0.0,0.0,0.0,0.0,0.0,0.0,0.0,0.0,0.0,0.0,0.0,0.0,0.0,0.0,0.0,0.0,0.0,0.0,0.0,0.0,0.0,0.0,0.0,0.0,0.0,0.0,0.0,0.0,0.0,0.0,0.0,0.0,0.0,0.0,0.0,0.0,0.0,0.0,0.0,0.0,0.0,0.0,0.0,0.0,0.0,0.0,0.0,0.0,0.0,0.0,0.0,0.0,0.0,0.0,0.0,0.0,0.0,0.0,0.0,0.0,0.0,0.0,0.0,0.0,0.0,0.0,0.0,0.0,0.0,0.0,0.0,0.0,0.0,0.0,0.0,0.0,0.0,0.0,0.0,0.0,0.0,0.0,0.0,0.0,0.0,0.0,0.0,0.0,0.0,0.0,0.0,3.6286,3.6371,3.7269,3.9712,3.9224,3.9334,4.0948,3.8755,3.6998,0.0,0.0,0.0,0.0,0.0,0.0,0.0,0.0,0.0,0.0,0.0,0.0,0.0,0.0,0.0,0.0,0.0,0.0,0.0,0.0,0.0,0.0,0.0,0.0,0.0,0.0,0.0,0.0,0.0,0.0,0.0,0.0,0.0,0.0,0.0,0.0,0.0,0.0,0.0,0.0,0.0,0.0,0.0,0.0,0.0,0.0,0.0,0.0,0.0,0.0,0.0,0.0,0.0,0.0,0.0,0.0,0.0,0.0,0.0,0.0,0.0,0.0,0.0,0.0,0.0,0.0,0.0,0.0,0.0,0.0,0.0,0.0,0.0,0.0,0.0,0.0,0.0,0.0,0.0,0.0,0.0,0.0,0.0,0.0,0.0,0.0,0.0,0.0,0.0,0.0,0.0,0.0,0.0,0.0,0.0,0.0,0.0,0.0,0.0,0.0,0.0,0.0,0.0,3.6119,3.7232,3.8182,3.8921,3.9258,3.9373,3.9269,3.8011,3.6667,3.5297,0.0,0.0,0.0,0.0,0.0,0.0,0.0,0.0,0.0,0.0,0.0,0.0,0.0,0.0,0.0,0.0,0.0,0.0,0.0,0.0,0.0,0.0,0.0,0.0,0.0,0.0,0.0,0.0,0.0,0.0,0.0,0.0,0.0,0.0,0.0,0.0,0.0,0.0,0.0,0.0,0.0,0.0,0.0,0.0,0.0,0.0,0.0,0.0,0.0,0.0,0.0,0.0,0.0,0.0,0.0,0.0,0.0,0.0,0.0,0.0,0.0,0.0,0.0,0.0,0.0,0.0,0.0,0.0,0.0,0.0,0.0,0.0,0.0,0.0,0.0,0.0,0.0,0.0,0.0,0.0,0.0,0.0,0.0,0.0,0.0,0.0,0.0,0.0,0.0,0.0,0.0,0.0,0.0,0.0,0.0,0.0,0.0,0.0,0.0,0.0,0.0,0.0,3.633,3.7625,3.8702,3.9432,3.9629,3.949,3.8986,3.7859,3.648,3.4866,0.0,0.0,0.0,0.0,0.0,0.0,0.0,0.0,0.0,0.0,0.0,0.0,0.0,0.0,0.0,0.0,0.0,0.0,0.0,0.0,0.0,0.0,0.0,0.0,0.0,0.0,0.0,0.0,0.0,0.0,0.0,0.0,0.0,0.0,0.0,0.0,0.0,0.0,0.0,0.0,0.0,0.0,0.0,0.0,0.0,0.0,0.0,0.0,0.0,0.0,0.0,0.0,0.0,0.0,0.0,0.0,0.0,0.0,0.0,0.0,0.0,0.0,0.0,0.0,0.0,0.0,0.0,0.0,0.0,0.0,0.0,0.0,0.0,0.0,0.0,0.0,0.0,0.0,0.0,0.0,0.0,0.0,0.0,0.0,0.0,0.0,0.0,0.0,0.0,0.0,0.0,0.0,0.0,0.0,0.0,0.0,0.0,0.0,0.0,0.0,0.0,0.0,3.6714,3.7675,3.8852,4.0553,4.0105,3.9688,3.9598,3.8124,3.6523,3.4902,0.0,0.0,0.0,0.0,0.0,0.0,0.0,0.0,0.0,0.0,0.0,0.0,0.0,0.0,0.0,0.0,0.0,0.0,0.0,0.0,0.0,0.0,0.0,0.0,0.0,0.0,0.0,0.0,0.0,0.0,0.0,0.0,0.0,0.0,0.0,0.0,0.0,0.0,0.0,0.0,0.0,0.0,0.0,0.0,0.0,0.0,0.0,0.0,0.0,0.0,0.0,0.0,0.0,0.0,0.0,0.0,0.0,0.0,0.0,0.0,3.0407,2.9712,0.0,0.0,0.0,0.0,0.0,0.0,0.0,0.0,0.0,0.0,0.0,0.0,0.0,0.0,0.0,0.0,0.0,0.0,0.0,0.0,0.0,0.0,0.0,0.0,0.0,0.0,0.0,0.0,0.0,0.0,0.0,0.0,0.0,0.0,0.0,0.0,0.0,0.0,0.0,0.0,3.6394,3.8006,3.9193,3.954,3.9617,3.9605,3.9592,3.8644,3.7364,3.5761,3.4258,0.0,0.0,0.0,0.0,0.0,0.0,0.0,0.0,0.0,0.0,0.0,0.0,0.0,0.0,0.0,0.0,0.0,0.0,0.0,0.0,0.0,0.0,0.0,0.0,0.0,0.0,0.0,0.0,0.0,0.0,0.0,0.0,0.0,0.0,0.0,0.0,0.0,0.0,0.0,0.0,0.0,0.0,0.0,0.0,0.0,0.0,0.0,0.0,0.0,0.0,0.0,0.0,0.0,0.0,0.0,0.0,0.0,0.0,0.0,3.0686,3.0423,0.0,0.0,0.0,0.0,0.0,0.0,0.0,0.0,0.0,0.0,0.0,0.0,0.0,0.0,0.0,0.0,0.0,0.0,0.0,0.0,0.0,0.0,0.0,0.0,0.0,0.0,0.0,0.0,0.0,0.0,0.0,0.0,0.0,0.0,0.0,0.0,0.0,0.0,0.0,0.0,3.6143,3.7942,3.9117,3.9175,3.9423,3.9439,3.902,3.8191,3.7214,3.5972,3.4315,0.0,0.0,0.0,0.0,0.0,0.0,0.0,0.0,0.0,0.0,0.0,0.0,0.0,0.0,0.0,0.0,0.0,0.0,0.0,0.0,0.0,0.0,0.0,0.0,0.0,0.0,0.0,0.0,0.0,0.0,0.0,0.0,0.0,0.0,0.0,0.0,0.0,0.0,0.0,0.0,0.0,0.0,0.0,0.0,0.0,0.0,0.0,0.0,0.0,0.0,0.0,0.0,0.0,2.9769,2.9903,2.9946,3.0803,3.0842,3.0335,3.0965,3.103,3.0607,3.0084,0.0,0.0,0.0,0.0,0.0,0.0,0.0,0.0,0.0,0.0,0.0,0.0,0.0,0.0,0.0,0.0,0.0,0.0,0.0,0.0,0.0,0.0,3.0916,3.1337,3.122,3.0912,3.0582,0.0,0.0,0.0,0.0,0.0,0.0,0.0,0.0,0.0,0.0,0.0,3.6123,3.7775,3.8917,3.9137,3.9368,3.9246,3.8595,3.7931,3.7142,3.616,3.4693,3.3379,0.0,0.0,0.0,0.0,0.0,0.0,0.0,0.0,0.0,0.0,0.0,0.0,0.0,0.0,0.0,0.0,0.0,0.0,0.0,0.0,0.0,0.0,0.0,0.0,0.0,0.0,0.0,0.0,0.0,0.0,0.0,0.0,2.8178,2.8178,0.0,0.0,0.0,0.0,0.0,0.0,0.0,0.0,0.0,0.0,0.0,0.0,0.0,2.9205,2.9376,2.8992,2.9029,2.945,3.044,3.1025,3.1285,3.2198,3.2925,3.3394,3.2868,0.0,2.9725,3.0386,0.0,0.0,0.0,0.0,0.0,0.0,0.0,0.0,0.0,0.0,0.0,0.0,0.0,0.0,0.0,0.0,0.0,0.0,0.0,0.0,0.0,0.0,3.2233,3.2909,3.3048,3.2988,3.2937,3.1839,3.0665,3.0099,3.0485,3.1064,0.0,0.0,0.0,0.0,0.0,0.0,3.6785,3.7845,3.8635,3.891,3.9137,3.9305,3.9424,3.9326,3.8613,3.7032,3.6088,3.488,3.3301,3.2402,0.0,0.0,0.0,0.0,0.0,0.0,0.0,0.0,0.0,0.0,0.0,0.0,0.0,0.0,0.0,0.0,0.0,0.0,0.0,0.0,0.0,0.0,0.0,0.0,0.0,0.0,0.0,0.0,0.0,2.726,2.7568,2.7155,2.7457,2.7567,0.0,0.0,0.0,0.0,0.0,0.0,0.0,0.0,0.0,2.891,2.9243,2.9815,3.0672,3.0513,3.0704,3.1244,3.1763,3.2054,3.2174,3.2586,3.297,3.3285,3.3439,3.2663,3.1334,3.1743,3.1602,3.1047,0.0,0.0,0.0,0.0,3.2003,3.2096,3.216,3.2212,3.2103,3.1583,0.0,0.0,0.0,0.0,0.0,0.0,0.0,3.2193,3.2577,3.2807,3.309,3.3834,3.3694,3.3519,3.3931,3.3468,3.2704,3.1777,3.1857,3.2122,3.226,3.2997,0.0,0.0,0.0,3.6584,3.6959,3.7866,3.8585,3.8866,3.9088,3.9312,3.9574,3.9132,3.8566,3.7812,3.661,3.5334,3.4132,3.3266,3.2174,0.0,0.0,0.0,0.0,0.0,0.0,0.0,0.0,0.0,0.0,0.0,0.0,0.0,0.0,0.0,0.0,0.0,0.0,0.0,0.0,0.0,0.0,0.0,0.0,0.0,0.0,0.0,0.0,2.7116,2.7339,2.6652,2.734,2.75,0.0,0.0,0.0,0.0,0.0,0.0,2.8934,2.893,2.9256,2.9931,2.9964,3.0594,3.1885,3.189,3.2166,3.2713,3.2879,3.2972,3.2972,3.2972,3.3072,3.3276,3.3738,3.371,3.3306,3.2954,3.2554,3.2118,3.1489,3.1467,3.1882,3.2466,3.3006,3.3519,3.3756,3.3842,3.37,3.273,3.228,3.1985,3.107,0.0,0.0,0.0,0.0,3.3452,3.3621,3.3694,3.3863,3.4607,3.4365,3.4128,3.4675,3.4613,3.4201,3.3225,3.3186,3.3305,3.3274,3.4213,0.0,3.5174,3.6226,3.7067,3.7285,3.7956,3.8555,3.8859,3.9039,3.9253,3.9568,3.902,3.8525,3.8297,3.7171,3.6122,3.5267,3.4658,3.3457,3.1568,0.0,0.0,0.0,0.0,0.0,0.0,0.0,0.0,0.0,0.0,0.0,0.0,0.0,0.0,0.0,0.0,0.0,0.0,0.0,0.0,0.0,0.0,0.0,0.0,0.0,0.0,0.0,0.0,0.0,2.7675,2.862,0.0,0.0,0.0,0.0,2.9241,2.934,2.9671,3.0362,3.0395,3.0726,3.1482,3.1482,3.1852,3.2641,3.2641,3.2674,3.2707,3.3403,3.3735,3.3735,3.3735,3.4126,3.475,3.4105,3.4235,3.4872,3.3462,3.3122,3.3437,3.2691,3.3183,3.4287,3.4021,3.3914,3.3923,3.3556,3.3416,3.3517,3.4171,3.3889,3.3314,3.3228,3.2798,0.0,0.0,3.3366,3.3553,3.4274,3.4443,3.4641,3.5374,3.5538,3.5504,3.5538,3.4974,3.4285,3.3512,3.3929,3.4451,3.4497,0.0,3.5155,3.6635,3.6959,3.7285,3.8041,3.8195,3.8401,3.884,3.8899,3.9095,3.9555,3.9555,3.9173,3.8335,3.8219,3.7812,3.6995,3.6957,3.6048,3.4134,3.4091,0.0,0.0,0.0,0.0,0.0,0.0,0.0,0.0,0.0,0.0,0.0,0.0,0.0,0.0,0.0,0.0,0.0,0.0,0.0,0.0,0.0,0.0,0.0,0.0,0.0,0.0,0.0,0.0,2.7254,2.7977,0.0,2.728,2.8169,2.8896,2.9121,2.9554,3.0253,3.1353,3.1006,3.1462,3.2983,3.3022,3.3359,3.4093,3.4132,3.4132,3.4132,3.4391,3.4524,3.4524,3.4524,3.4657,3.4888,3.4623,3.468,3.492,3.4395,3.4107,3.3958,3.37,3.3884,3.4284,3.4182,3.4422,3.4827,3.4756,3.4762,3.4705,3.4557,3.3998,3.3418,3.3418,3.3564,3.3772,3.4037,3.4433,3.4861,3.5137,3.5205,3.5273,3.5538,3.56,3.56,3.56,3.5402,3.5137,3.4867,3.4635,3.4522,3.4609,3.542,3.6295,3.6924,3.743,3.7865,3.815,3.8186,3.8319,3.8625,3.88,3.9018,3.9316,3.9511,3.9477,3.9173,3.8601,3.8127,3.7701,3.7125,3.6152,3.4693,3.4686,3.3376,0.0,0.0,0.0,0.0,0.0,0.0,0.0,0.0,0.0,0.0,0.0,0.0,0.0,0.0,0.0,0.0,0.0,0.0,0.0,0.0,0.0,0.0,0.0,0.0,0.0,2.7398,2.7773,2.7103,2.7834,2.8094,2.7436,2.8569,2.9517,3.0015,3.0449,3.128,3.2557,3.199,3.2404,3.4109,3.3933,3.416,3.4883,3.4888,3.4888,3.4888,3.4888,3.4888,3.4888,3.4888,3.4888,3.4888,3.4888,3.4945,3.4981,3.4981,3.4811,3.4566,3.4537,3.4515,3.4577,3.4628,3.4946,3.5372,3.5486,3.5343,3.5075,3.4615,3.4164,3.3795,3.3795,3.4308,3.4872,3.4872,3.5205,3.56,3.56,3.56,3.56,3.56,3.56,3.56,3.56,3.56,3.56,3.56,3.5205,3.4947,3.5153,3.6136,3.6955,3.7144,3.7745,3.8186,3.8186,3.8186,3.8286,3.8464,3.8675,3.8895,3.9192,3.9358,3.9514,3.9586,3.906,3.8624,3.8409,3.7638,3.6635,3.5319,3.4717,3.3597,3.2017,0.0,0.0,0.0,0.0,0.0,0.0,0.0,0.0,0.0,0.0,0.0,0.0,0.0,0.0,0.0,0.0,0.0,0.0,0.0,0.0,0.0,0.0,0.0,2.7892,2.7959,2.7827,2.7344,2.8348,2.8879,2.8349,2.9343,3.0576,3.1942,3.2037,3.2622,3.3987,3.3365,3.3539,3.4823,3.4146,3.4119,3.4865,3.4898,3.4871,3.4888,3.4888,3.4888,3.4888,3.4888,3.4888,3.4888,3.4888,3.4954,3.5099,3.5099,3.5175,3.5274,3.5152,3.5187,3.5303,3.5418,3.5452,3.5474,3.5474,3.4995,3.4382,3.4401,3.4471,3.4586,3.4628,3.5069,3.5571,3.5588,3.5594,3.56,3.56,3.56,3.56,3.56,3.56,3.56,3.56,3.56,3.56,3.56,3.56,3.5761,3.6204,3.6615,3.7041,3.7446,3.7907,0.0,3.8186,3.8186,3.8286,3.8464,3.8499,3.8695,3.9134,3.9215,3.9312,3.9558,3.9571,3.9473,3.9209,3.8611,3.763,3.6183,3.4393,3.3646,3.3986,0.0,0.0,0.0,0.0,0.0,0.0,0.0,0.0,0.0,0.0,0.0,0.0,0.0,0.0,0.0,0.0,0.0,0.0,0.0,0.0,0.0,2.653,2.6826,2.6975,2.7388,2.7643,2.7538,2.8249,2.8693,2.8539,2.9647,3.0509,3.0917,3.0948,3.1495,3.2808,3.221,3.2415,3.363,3.3483,3.3666,3.4319,3.4319,3.4515,3.4888,3.4888,3.4888,3.4888,3.4888,3.4888,3.4888,3.4888,3.4906,3.4936,3.4936,3.4993,3.5028,3.5087,3.5128,3.5152,3.5099,3.4859,3.4567,3.4567,3.4241,3.3903,3.4392,3.4252,3.406,3.4968,3.5003,3.4804,3.5252,3.5452,3.552,3.552,3.5543,3.56,3.56,3.56,3.56,3.56,3.56,3.56,3.56,3.56,3.5761,3.6204,3.6615,3.7041,3.7446,3.7907,3.8186,3.8186,3.8186,3.8286,3.8464,3.8687,3.8844,3.8971,3.913,3.9181,3.9092,3.9085,3.8979,3.8699,3.8531,3.8175,3.7612,3.6,3.4742,0.0,0.0,0.0,0.0,0.0,0.0,0.0,0.0,0.0,0.0,0.0,0.0,0.0,0.0,0.0,0.0,0.0,0.0,0.0,0.0,0.0,0.0,2.7656,2.7872,2.7872,2.7705,2.7705,2.7998,2.8374,2.8816,2.9348,3.0073,3.0612,3.0897,3.0927,3.1345,3.2362,3.2026,3.2228,3.3176,3.3195,3.3384,3.3733,3.3955,3.4257,3.4564,3.4781,3.4888,3.4888,3.4888,3.4888,3.4888,3.4888,3.4888,3.4865,3.4655,3.4691,3.4894,0.0,0.0,0.0,0.0,3.4284,3.3853,3.3853,3.3521,3.3149,3.3559,3.3456,3.3307,3.4061,3.4333,3.4468,3.482,3.5147,3.5434,3.5434,3.5486,3.5571,3.5571,3.5571,3.56,3.56,3.56,3.56,3.56,3.56,0.0,3.5975,3.6488,3.6983,3.7222,3.7774,3.8186,3.8186,3.8186,3.8245,3.8356,3.8504,3.8633,3.8732,3.8829,0.0,0.0,0.0,3.8682,3.8128,3.7969,0.0,0.0,0.0,0.0,0.0,3.3701,0.0,0.0,3.134,3.0667,0.0,0.0,0.0,0.0,0.0,0.0,0.0,0.0,0.0,0.0,0.0,0.0,0.0,0.0,0.0,0.0,2.9028,2.9424,2.9582,2.8522,2.7951,2.863,2.8757,2.9265,3.0395,3.0575,3.0867,3.1451,3.1503,3.1725,3.2258,3.2316,0.0,0.0,0.0,3.3064,3.3195,3.3681,3.3981,3.4107,3.4521,3.4739,3.4799,3.4799,3.4829,3.4888,3.4888,3.4888,3.4847,3.4386,3.4429,3.4799,3.4799,3.4763,3.4673,3.4235,3.3803,3.3407,3.3407,0.0,0.0,3.2598,3.266,3.2722,3.2867,3.3606,3.4419,3.4544,3.5006,3.542,3.5524,3.5634,3.5727,3.5727,3.5773,3.5819,3.5718,3.5729,3.5707,3.5639,3.56,3.5639,3.5707,3.6386,3.69,3.69,3.7627,3.8186,3.8186,3.8186,3.8199,3.8224,3.8228,0.0,3.8472,3.8491,3.8573,3.88,3.8811,3.8475,3.7691,3.726,3.6952,3.6723,3.6496,3.631,3.6185,3.5526,3.495,3.4454,3.1978,3.1099,0.0,0.0,0.0,0.0,0.0,0.0,0.0,0.0,0.0,0.0,0.0,0.0,0.0,0.0,0.0,2.8471,2.8268,2.8354,2.937,2.8879,2.8671,2.9338,2.9841,3.0223,3.0492,3.0979,3.1361,3.1473,3.1503,3.1561,3.1683,3.166,3.171,3.1839,3.1839,3.2255,3.3182,3.2875,3.3193,3.4094,3.37,0.0,3.4257,3.4257,3.4491,3.4888,3.4888,3.4888,3.4877,3.4781,3.4552,3.4257,3.4257,3.3961,3.3501,3.3417,3.3401,3.3394,3.3394,3.3344,3.3381,3.3932,3.3735,3.3531,3.454,3.4624,0.0,3.5514,3.5922,3.6232,3.6771,3.702,3.7111,3.7111,3.722,3.712,3.6485,3.6449,3.6372,3.5746,3.56,3.5814,3.6479,3.6732,3.69,3.69,3.7627,3.8186,3.8186,3.8186,3.8266,3.8433,3.8457,3.8477,3.8487,3.8491,3.8461,3.8344,3.834,3.8263,3.8073,3.7659,3.739,3.7327,3.6965,3.6326,3.5423,3.526,3.495,3.4483,3.3356,3.2683,0.0,0.0,0.0,0.0,0.0,0.0,0.0,0.0,0.0,0.0,0.0,2.5898,2.692,0.0,2.8018,2.9334,2.8979,2.9003,3.0309,2.9951,2.9681,3.0004,3.0313,3.0635,3.0987,3.1301,3.1503,3.1503,3.1503,3.1503,3.1503,3.1503,3.1503,3.1503,3.1503,3.1775,3.2331,3.2646,3.2942,3.3252,3.3832,3.4265,3.4612,3.4949,3.5419,3.599,3.5666,3.5501,3.5476,3.5182,3.4546,3.3841,3.41,3.3832,3.3349,3.3633,3.3626,3.3446,3.3446,3.348,3.3553,3.3879,3.3774,3.3614,3.4267,3.4623,3.493,3.5518,3.6173,3.6788,3.7115,3.7284,3.743,3.7476,3.7599,3.7607,3.7285,3.7213,3.7141,3.6817,3.6708,3.6792,3.7274,3.756,3.7776,3.8023,3.8588,3.9108,3.9307,3.9015,3.8849,3.8938,3.8595,3.834,3.834,3.834,3.8323,3.8195,3.8186,3.8102,3.7876,3.7609,3.7316,3.6909,3.6686,3.6196,3.5405,3.5405,3.5123,3.4638,3.4264,3.3819,0.0,0.0,0.0,0.0,0.0,0.0,0.0,2.4842,2.5494,2.5099,2.5515,2.6357,2.7546,2.7765,2.8303,2.9846,2.9535,2.952,3.0748,3.0547,3.0365,3.047,3.0617,3.0927,3.1451,3.1503,3.1503,3.1503,3.1503,3.1503,3.1503,3.1623,3.1683,3.1683,3.1809,3.2,3.2253,3.3018,3.3295,3.2984,3.4256,3.4911,3.4976,3.5494,3.6106,3.6704,3.6147,3.5932,3.5885,3.5279,3.4471,3.3706,3.4166,3.4055,3.3671,3.4017,3.394,3.3702,3.3702,3.3791,3.3873,3.3873,3.3873,3.3873,3.3873,3.4634,3.553,3.5665,3.6486,3.7352,3.7501,3.7609,3.7717,3.7809,3.7934,3.8051,3.8014,3.7944,3.7864,3.7851,3.7763,3.7772,3.8067,3.8371,3.872,3.9138,3.9539,3.9985,4.0429,3.998,3.9623,3.9623,3.9047,3.8581,3.844,3.8291,3.8186,3.8186,3.8119,3.7902,3.7519,3.7353,3.6963,3.6299,3.6194,3.5992,3.56,3.5509,3.5218,3.4787,3.4589,3.4272,2.6346,2.5509,2.4961,2.542,2.5155,2.4941,0.0,2.5578,2.5765,2.6355,2.6939,2.7581,2.8283,2.8408,2.8471,2.8696,2.8157,2.7977,2.8739,2.9262,2.9823,3.043,3.1028,3.1421,3.1473,3.1503,3.1503,3.1503,3.1503,3.1503,3.1503,3.2056,3.2392,3.2392,3.2976,3.3801,3.4858,3.4476,3.4512,3.497,3.4617,3.4432,3.4389,3.4482,3.483,3.5404,3.5328,3.53,3.5251,3.4643,3.4323,3.4222,3.4415,3.4448,3.4297,3.3772,3.3921,3.4376,3.4376,3.4779,3.528,3.528,3.528,3.528,3.528,3.573,3.6414,3.6992,3.7648,3.8313,3.891,3.9057,3.907,3.909,3.9189,3.912,3.8472,3.8421,3.8361,3.7825,3.7708,3.7941,3.875,3.8918,3.9006,3.9161,3.9539,3.9985,4.0429,4.0442,4.0374,4.0374,4.0302,3.998,3.9301,3.8617,3.8186,3.8186,3.7796,3.7551,3.7505,3.6806,3.6388,3.6284,3.5905,3.5656,3.56,3.5126,3.4852,3.4775,3.3821,3.3346,2.5515,2.5579,2.568,2.4861,2.4999,2.5225,2.4779,2.522,2.5786,2.6049,2.6634,2.7243,2.7819,2.7923,2.8042,2.8441,2.8254,2.8465,2.9517,2.9918,3.0329,3.0984,3.1686,3.1936,3.154,3.1503,3.1503,3.1503,3.1869,3.2086,3.2086,3.2729,3.3088,3.3088,3.3335,3.3751,3.4236,3.4294,3.4294,3.4274,3.4702,3.4931,3.496,3.5338,3.5651,3.5907,3.5907,3.5697,3.5362,3.5108,3.4999,3.5006,3.5054,3.5078,3.5048,3.4771,3.4831,3.5078,3.5078,3.528,3.5511,3.5511,3.5511,3.5511,3.5511,3.5926,3.6446,3.6738,3.7531,3.8348,3.8639,3.8993,3.9335,3.9408,3.9468,3.9434,3.9225,3.9145,3.9084,3.9005,3.8919,3.9038,3.9561,3.9633,3.9737,4.0065,4.05,4.0948,4.1445,4.1308,4.1017,4.0551,4.0515,4.0374,4.0053,3.9727,3.9241,3.8555,3.8316,3.7768,3.6851,3.6482,3.6156,3.591,3.5711,3.56,3.56,3.5073,3.4637,3.4321,3.3942,3.3626,2.5153,2.559,2.591,2.4546,2.4904,2.5293,2.4194,2.4906,2.5784,2.5751,2.6244,2.6912,2.7619,2.7742,2.7909,2.8389,2.8627,2.9023,2.9839,3.0269,3.0754,3.1412,3.2102,3.2385,3.2086,3.2056,3.2056,3.2056,3.2512,3.2789,3.2789,3.3395,3.3769,3.3769,3.3971,3.4116,3.4302,3.4683,3.4675,3.4309,3.5187,3.5531,3.5454,3.6099,3.6321,3.6156,3.6344,3.6046,3.5511,3.5511,3.5511,3.5511,3.5511,3.5511,3.5511,3.5511,3.5511,3.5511,3.5511,3.5511,3.5511,3.5511,3.5511,3.5511,3.5511,3.606,3.6677,3.6677,3.7589,3.8576,3.8576,3.8932,3.9302,3.9428,3.9448,3.9481,3.956,3.9494,3.9521,3.9723,3.9697,3.9716,3.9961,4.0024,4.0175,4.0512,4.0972,4.1532,4.2103,4.2114,4.1823,4.1212,4.0954,4.084,4.084,4.0524,3.9845,3.8782,3.8478,3.7727,3.635,3.6196,3.5959,3.5611,3.56,3.5633,3.5687,3.512,3.4694,3.4375,3.4327,3.4056,2.5839,2.538,2.5034,2.4985,2.5013,2.485,2.4247,2.4984,2.5809,2.5799,2.6284,2.7051,2.8176,2.8377,2.8385,2.8402,2.8954,2.9181,2.8644,2.968,3.0742,3.1434,3.2085,3.2759,3.3372,3.3432,3.3432,3.3432,3.3455,3.3455,3.3455,3.4106,3.4466,3.4466,3.5108,3.5705,3.6322,3.6314,3.6314,3.6322,3.6345,3.6047,3.5508,3.6125,3.607,3.5554,3.6141,3.6046,3.5511,3.5511,3.5511,3.5511,3.5511,3.5511,3.5511,3.5511,3.5511,3.5511,3.5511,3.5511,3.5511,3.5511,3.5511,3.5511,3.5511,3.6375,3.7361,3.7361,3.8282,3.9255,3.9255,3.9269,3.9315,3.9322,3.9322,3.9322,3.9329,3.9322,3.9362,3.9495,3.9514,3.956,3.9684,3.9813,3.9897,3.9916,4.0451,4.1145,4.2061,4.2596,4.2855,4.2824,4.2117,4.1669,4.1669,4.0515,3.9499,3.8768,3.7915,3.7104,3.6323,3.5877,3.5616,3.56,3.56,3.5685,3.5893,3.5283,3.5094,3.5254,3.4741,3.4489,2.4945,2.4765,2.4912,2.4498,2.4397,2.4346,2.4162,2.4707,2.5357,2.5725,2.6269,2.6938,2.7672,2.8133,2.8403,2.8403,2.9717,3.0676,3.0454,3.1615,3.2568,3.2813,3.3429,3.3919,3.4128,3.3761,3.3492,3.3492,3.3919,3.4158,3.4158,3.4809,3.516,3.516,3.537,3.5595,3.579,3.579,3.579,3.579,3.579,3.57,3.5519,3.5716,3.57,3.5497,3.5724,3.594,3.6156,3.6156,3.6387,3.6768,3.6768,3.6768,3.6768,3.6768,3.6768,3.6648,3.578,3.5511,3.5511,3.5511,3.5511,3.5511,3.5511,3.6092,3.6738,3.6738,3.764,3.8632,3.8632,3.8959,3.9315,3.9315,3.9315,3.9315,3.9315,3.9315,3.9355,3.9475,3.9501,3.9554,3.9671,3.9807,3.9916,4.0018,4.0482,4.1048,4.1663,4.2134,4.2433,4.2433,4.2467,4.2371,4.2053,4.1644,4.0821,3.9441,3.9078,3.8448,3.7387,3.722,3.7133,3.7133,3.7133,3.6967,3.6621,3.6072,3.5639,3.5289,3.5202,3.5175,2.4382,2.4328,2.4591,2.4187,2.4111,2.4163,2.436,2.4715,2.522,2.5981,2.6433,2.6938,2.7672,2.8133,2.8455,2.8691,3.0227,3.1395,3.1395,3.2621,3.3582,3.3829,3.4256,3.4585,3.4847,3.448,3.4203,3.4203,3.46,3.4847,3.4847,3.528,3.5511,3.5511,3.5511,3.5511,3.5511,3.5511,3.5511,3.5511,3.5729,3.5848,3.5857,3.6342,3.6408,3.6186,3.6433,3.6641,3.6806,3.6806,3.7045,3.7396,3.7396,3.7396,3.7396,3.7396,3.7396,3.7276,3.6468,3.6169,3.6169,3.6169,3.6169,3.6169,3.6169,3.6762,3.746,3.746,3.8419,3.9397,3.9397,3.9716,4.0064,4.0064,4.0064,4.0064,4.0064,4.0064,4.0091,4.0166,4.0186,4.024,4.0401,4.0345,4.0245,4.0121,4.0359,4.0719,4.1191,4.1663,4.1946,4.1946,4.2211,4.2262,4.1967,4.1792,4.1128,3.9773,3.9536,3.8981,3.7928,3.7916,3.7916,3.7916,3.769,3.7422,3.7058,3.6501,3.6052,3.5721,3.5811,3.5876,2.419,2.4039,2.4111,2.4111,2.4111,2.4249,2.4854,2.5018,2.5358,2.6484,2.6711,2.7077,2.8141,2.8403,2.8656,2.9249,3.0571,3.1524,3.1529,3.2733,3.3851,3.4496,3.4555,3.4787,3.5429,3.5511,3.5511,3.5511,3.5511,3.5511,3.5511,3.5511,3.5511,3.5511,3.5541,3.5541,3.5541,3.5571,3.5609,3.5601,3.6246,3.6553,3.66,3.7792,3.7991,3.7439,3.8058,3.8013,3.7456,3.7456,3.7486,3.7516,3.7516,3.7516,3.7516,3.7516,3.7516,3.7516,3.7516,3.7456,3.7396,3.7396,3.7396,3.7404,3.7439,3.8358,3.9416,3.9447,4.0386,4.1394,4.1394,4.1394,4.1394,4.1394,4.1394,4.1394,4.1394,4.1394,4.1394,4.1394,4.1394,4.1451,4.1659,4.1345,4.0845,4.0278,4.0195,4.035,4.0735,4.1168,4.1477,4.1477,4.1499,4.1504,4.1482,4.1047,4.048,3.9773,3.9284,3.8734,3.8052,3.8018,3.8018,3.8018,3.745,3.7183,3.7259,3.6685,3.6447,3.6546,3.6546,3.6576,2.424,2.4089,2.4111,2.4111,2.4111,2.4249,2.4854,2.5309,2.5798,2.6554,2.7035,2.7376,2.7689,2.8464,2.9311,3.0009,3.1582,3.2916,3.3476,3.438,3.5032,3.522,3.5258,3.531,3.5481,3.5511,3.5511,3.5511,3.5511,3.5511,3.5511,3.5511,3.5511,3.5511,3.5968,3.6246,3.6246,3.6686,3.6917,3.6917,3.7105,3.7157,3.7165,3.7523,3.7567,3.7404,3.7584,3.7837,3.8161,3.8161,3.8452,3.8883,3.8883,3.8883,3.8883,3.8883,3.8883,3.8883,3.8883,3.8234,3.7396,3.7396,3.7396,3.7498,3.8064,3.8757,3.9517,4.0055,4.0787,4.1394,4.1394,4.1394,4.1394,4.1394,4.1394,4.1394,4.1394,4.1394,4.1394,4.1394,4.1394,4.1477,4.1664,4.1615,4.1525,4.1587,4.1586,4.128,4.0377,4.0689,4.0995,4.0995,4.1293,4.1371,4.0995,4.0878,4.0572,4.0025,3.9877,3.9734,3.9559,3.9531,3.9531,3.9531,3.9394,3.8876,3.8019,3.7865,3.7606,3.7246,3.7246,3.7523,2.4797,2.4664,2.4543,2.479,2.4842,2.4999,2.5612,2.5971,2.6295,2.6633,2.7131,2.742,2.7201,2.8386,2.97,3.0679,3.2483,3.4003,3.4647,3.5439,3.5818,3.5541,3.5759,3.5938,3.5938,3.5938,3.5938,3.5938,3.5669,3.5511,3.5511,3.5511,3.5631,3.5946,3.6306,3.6643,3.6896,3.7216,3.7396,3.7396,3.7704,3.7853,3.7853,3.8135,3.8285,3.8285,3.8285,3.8503,3.8841,3.8841,3.9071,3.9391,3.9391,3.9391,3.9391,3.9391,3.9391,3.9391,3.9391,3.8913,3.8285,3.8285,3.8285,3.8433,3.9137,3.9805,4.0476,4.1194,4.1893,4.2355,4.2355,4.2355,4.2355,4.2355,4.2355,4.2355,4.2355,4.2355,4.2355,4.2355,4.2446,4.2425,4.2164,4.2208,4.2213,4.2043,4.2058,4.1836,4.1072,4.1265,4.1451,4.1451,4.1676,4.1737,4.147,4.1451,4.136,4.1067,4.1088,4.1088,4.1088,4.1088,4.0924,4.0621,4.0374,3.9743,3.8764,3.8528,3.8246,3.7954,3.7954,3.813,2.5664,2.5529,2.522,2.5678,2.5801,2.5965,2.6546,2.6633,2.6606,2.6685,2.7126,2.742,2.7014,2.8502,3.0199,3.1588,3.3374,3.4826,3.5481,3.6196,3.6395,3.581,3.6276,3.6605,3.6605,3.6605,3.6605,3.6605,3.6088,3.5729,3.5639,3.5631,3.5976,3.6733,3.6763,3.7054,3.7665,3.7665,3.7665,3.7665,3.8242,3.852,3.8542,3.9131,3.9391,3.9391,3.9391,3.9391,3.9391,3.9391,3.9391,3.9391,3.9391,3.9391,3.9391,3.9391,3.9451,3.9541,3.9541,3.9601,3.9631,3.9451,3.9463,3.9666,4.0409,4.1102,4.1835,4.2643,4.3297,4.3738,4.3738,4.3738,4.3705,4.3606,4.3606,4.3606,4.3606,4.3606,4.3606,4.3606,4.3724,4.3628,4.2948,4.2977,4.2876,4.2247,4.2278,4.2374,4.2374,4.2328,4.2293,4.2293,4.2293,4.2293,4.2293,4.2293,4.2293,4.2293,4.2293,4.2293,4.2293,4.2293,4.1977,4.1314,4.0791,4.0138,3.9393,3.8867,3.8612,3.8614,3.8614,3.8684,2.6568,2.6138,2.5678,2.5782,2.5801,2.5965,2.6546,2.6303,2.6104,2.6606,2.7221,2.7823,2.8281,2.9845,3.1715,3.3666,3.465,3.5596,3.687,3.7148,3.7186,3.7067,3.7157,3.7246,3.7246,3.7246,3.7246,3.7246,3.7127,3.6857,3.6335,3.6335,3.6844,3.8042,3.8071,3.8392,3.9062,3.9062,3.9062,3.9062,3.9182,3.9221,3.9242,3.9361,3.9391,3.9391,3.9391,3.9391,3.9391,3.9391,3.9391,3.9391,3.9391,3.9391,3.9391,3.9391,3.9759,4.0217,4.0217,4.0576,4.0885,3.9759,3.98,4.0435,4.1118,4.1828,4.2699,4.3955,4.4413,4.4497,4.4497,4.4497,4.4364,4.3738,4.3606,4.3606,4.3606,4.3606,4.3606,4.3606,4.3628,4.3617,4.3485,4.3474,4.3507,4.3546,4.3664,4.3765,4.3765,4.2901,4.2293,4.2293,4.2293,4.2293,4.2293,4.2293,4.2293,4.2293,4.2293,4.2293,4.2293,4.2293,4.1977,4.1314,4.1201,4.0553,3.9393,3.929,3.926,3.9322,3.9322,3.9621,2.8049,2.778,2.7375,2.7659,2.7458,2.7295,2.7572,2.7169,2.6726,2.6699,2.7477,2.8134,2.8167,2.9967,3.188,3.325,3.4249,3.5358,3.6734,3.6926,3.7045,3.7366,3.7704,3.7913,3.7913,3.7913,3.7913,3.7913,3.7605,3.7276,3.6985,3.7293,3.7772,3.8371,3.8751,3.9071,3.9391,3.9391,3.9391,3.9391,3.9391,3.9391,3.9391,3.9391,3.9391,3.9391,3.9391,3.9391,3.9421,3.9789,3.9909,3.9969,4.0307,4.0427,4.0427,4.0427,4.0636,4.0915,4.0915,4.1134,4.1274,4.0636,4.0946,4.174,4.2892,4.3452,4.396,4.4982,4.5267,4.5267,4.5267,4.5267,4.5193,4.4821,4.4747,4.4747,4.4747,4.4747,4.4747,4.4747,4.4747,4.4747,4.4747,4.4747,4.4777,4.4861,4.4771,4.4659,4.4659,4.3992,4.3457,4.3367,4.3436,4.3484,4.3484,4.3484,4.3484,4.3484,4.3484,4.3484,4.3484,4.3484,4.3006,4.1962,4.1907,4.1294,3.9959,4.0356,4.0561,4.0592,4.0962,4.1291,2.9695,2.9534,2.9192,2.9612,2.9208,2.8694,2.8695,2.8157,2.7495,2.7021,2.7792,2.8488,2.8378,3.0192,3.1977,3.2798,3.3933,3.5176,3.6523,3.6934,3.7285,3.7755,3.8422,3.876,3.864,3.8601,3.8601,3.8601,3.8123,3.7755,3.7605,3.8242,3.8601,3.8601,3.9131,3.9391,3.9391,3.9391,3.9391,3.9391,3.9391,3.9391,3.9391,3.9541,3.9601,3.9631,3.9759,3.9819,3.9879,4.0397,4.0606,4.0675,4.1184,4.1403,4.1403,4.1403,4.1493,4.1613,4.1613,4.1703,4.1841,4.2022,4.2238,4.2691,4.392,4.4516,4.4894,4.5583,4.5903,4.6054,4.6054,4.6054,4.5988,4.5822,4.5789,4.5789,4.5789,4.5789,4.5789,4.5789,4.5789,4.5789,4.5789,4.5789,4.5789,4.5789,4.5563,4.5362,4.5324,4.5103,4.4903,4.4678,4.477,4.4838,4.4838,4.4973,4.5082,4.5082,4.5082,4.5082,4.5082,4.4913,4.4242,4.2998,4.2807,4.2142,4.0944,4.1546,4.1801,4.1832,4.2346,4.2593,3.128,3.0831,3.0334,3.0391,2.991,2.9419,2.9425,2.8532,2.7683,2.7629,2.819,2.9044,3.0212,3.1493,3.2825,3.411,3.4919,3.5848,3.7135,3.8383,3.9152,3.9212,3.9819,3.9978,3.937,3.9302,3.9302,3.9302,3.9242,3.8952,3.8341,3.8952,3.9302,3.9302,3.9361,3.9391,3.9391,3.9391,3.9391,3.9391,3.9391,3.9391,3.9421,4.0029,4.0307,4.0337,4.0945,4.1224,4.1214,4.1274,4.1313,4.1313,4.1373,4.1403,4.1403,4.1403,4.1802,4.2321,4.2321,4.2681,4.3258,4.3995,4.3392,4.2433,4.2578,4.3562,4.4754,4.5518,4.6241,4.6808,4.6808,4.6808,4.6643,4.5955,4.5789,4.5789,4.5789,4.5789,4.5789,4.5789,4.5789,4.5789,4.5789,4.5789,4.5789,4.5789,4.587,4.5891,4.5752,4.5965,4.6061,4.5857,4.5704,4.5594,4.5594,4.6218,4.659,4.659,4.659,4.659,4.659,4.5948,4.5258,4.4496,4.3831,4.3137,4.2408,4.247,4.25,4.25,4.2562,4.2593,3.2573,3.2522,3.2299,3.2299,3.1798,3.119,3.0811,3.0028,2.9267,2.8924,2.9344,2.9961,3.0465,3.1291,3.2206,3.3148,3.3507,3.4434,3.6567,3.7315,3.8242,3.9819,4.0247,4.0307,4.0029,3.9999,3.984,3.9421,3.9391,3.9272,3.902,3.9242,3.9391,3.9391,3.9391,3.9391,3.9391,3.9391,3.9601,3.9999,3.9999,4.0208,4.0606,4.0885,4.1005,4.1014,4.1274,4.1403,4.1433,4.1832,4.2012,4.2041,4.2402,4.2542,4.2542,4.2542,4.2721,4.294,4.294,4.31,4.3438,4.4255,4.3802,4.3107,4.4107,4.5109,4.5993,4.6284,4.6945,4.757,4.757,4.757,4.7504,4.7206,4.7106,4.7106,4.7106,4.7106,4.7106,4.7106,4.7106,4.7106,4.7106,4.7106,4.7106,4.7106,4.6851,4.6623,4.6594,4.6406,4.6287,4.6193,4.6125,4.607,4.607,4.6346,4.6514,4.6514,4.6514,4.6514,4.6514,4.6231,4.5568,4.4542,4.4115,4.3394,4.2407,4.2707,4.2835,4.2856,4.3253,4.3436,3.3612,3.3791,3.3791,3.3791,3.3139,3.2375,3.1893,3.1116,3.0367,2.9961,3.0193,3.0545,3.0754,3.1189,3.166,3.2116,3.2699,3.3754,3.5655,3.6583,3.7682,3.932,3.9849,4.0088,4.0088,4.0268,4.0118,3.9451,3.9391,3.9481,3.9699,3.969,3.9601,3.9421,3.9391,3.9511,3.969,3.969,4.0029,4.0705,4.0705,4.0945,4.1403,4.1622,4.1712,4.1712,4.1873,4.1953,4.1992,4.2471,4.2661,4.2711,4.313,4.33,4.33,4.33,4.33,4.33,4.33,4.33,4.3389,4.3966,4.3761,4.3517,4.4652,4.5706,4.6533,4.675,4.7379,4.8001,4.8001,4.8001,4.8001,4.8001,4.8001,4.8001,4.8001,4.8001,4.8001,4.8001,4.8001,4.8001,4.8001,4.8001,4.8001,4.8001,4.7634,4.7374,4.7374,4.7036,4.6814,4.6861,4.6869,4.6792,4.6645,4.682,4.6977,4.703,4.703,4.7053,4.7099,4.6882,4.6355,4.5438,4.4885,4.415,4.3299,4.3617,4.3764,4.3794,4.4465,4.477,3.4308,3.4496,3.4496,3.4496,3.3484,3.2505,3.2482,3.1472,3.0515,3.0485,3.0485,3.0695,3.1361,3.1503,3.1503,3.1503,3.3185,3.4496,3.4526,3.6763,3.8131,3.7516,3.8584,3.9421,3.9421,3.9999,4.0118,3.9451,3.9391,3.9699,4.0337,4.0397,4.0088,3.9421,3.9391,3.9729,4.0397,4.0397,4.0735,4.1403,4.1403,4.1403,4.1433,4.2071,4.2381,4.241,4.302,4.327,4.327,4.33,4.33,4.33,4.33,4.33,4.33,4.33,4.33,4.33,4.33,4.33,4.33,4.3309,4.3309,4.33,4.3319,4.4434,4.5868,4.657,4.7379,4.8001,4.8001,4.8001,4.8001,4.8001,4.8001,4.8001,4.8001,4.8001,4.8001,4.8001,4.8001,4.8001,4.8001,4.8001,4.8001,4.8001,4.8001,4.8001,4.8001,4.8001,4.8025,4.8154,4.817,4.7976,4.7422,4.8056,4.8578,4.8777,4.8785,4.8822,4.8969,4.8273,4.7885,4.7868,4.6416,4.5665,4.5647,4.561,4.5566,4.5597,4.6265,4.6573,3.3642,3.3829,3.3829,3.3829,3.3492,3.3058,3.2602,3.2183,3.1734,3.1279,3.1555,3.1944,3.2146,3.2572,3.3327,3.4673,3.5438,3.6335,3.7665,3.8563,3.9161,3.943,4.0217,4.0945,4.1403,4.1224,4.1005,4.0786,4.0765,4.0855,4.1064,4.1064,4.0975,4.0765,4.0765,4.1094,4.1772,4.1313,4.1633,4.2681,4.2271,4.2301,4.2711,4.293,4.302,4.302,4.321,4.33,4.33,4.33,4.33,4.33,4.33,4.33,4.33,4.33,4.33,4.33,4.33,4.33,4.3459,4.4463,4.4447,4.4278,4.5769,4.5601,4.526,4.705,4.8132,4.8854,4.9384,4.9508,4.9508,4.9508,4.9508,4.9508,4.9508,4.9508,4.9508,4.9508,4.9508,4.9508,4.9508,4.9508,4.9508,4.9508,4.9508,4.9508,4.9508,4.9508,4.9533,4.955,4.9559,4.9186,4.8233,4.8826,4.9286,4.9334,4.9152,4.9146,4.9325,4.8282,4.7663,4.7627,4.6865,4.6332,4.6102,4.5945,4.5878,4.5878,4.6092,4.6427,3.3245,3.3492,3.3492,3.3492,3.3305,3.2998,3.2602,3.2303,3.2086,3.1899,3.2206,3.2579,3.2819,3.3215,3.3911,3.5168,3.6186,3.7075,3.7836,3.8763,3.9541,3.9969,4.0606,4.1283,4.1952,4.1862,4.1673,4.1433,4.1403,4.1523,4.1772,4.1772,4.2002,4.2471,4.1783,4.1852,4.276,4.2101,4.2411,4.3668,4.303,4.294,4.33,4.33,4.33,4.33,4.33,4.33,0.0,4.33,4.33,4.33,4.33,4.33,4.3329,4.3569,4.3698,4.3718,4.3967,4.4057,4.4208,4.5142,4.5102,4.493,4.6298,4.6226,4.5981,4.7385,4.8151,4.8706,4.9495,4.9713,4.9783,5.0101,5.0203,5.0203,5.0203,5.0203,5.0203,5.0203,5.0203,5.0203,5.0203,5.0203,5.0203,5.0203,5.0203,5.0203,5.0203,5.0203,5.0237,5.0272,4.9982,4.9688,4.9372,4.9633,4.9851,4.9883,4.9539,4.9375,4.9457,4.8492,4.793,4.7877,4.7334,4.6965,4.6829,4.6679,4.6692,4.6864,4.6946,4.7201,0.0,3.3365,3.3365,3.3365,3.2878,3.2452,3.2482,3.2026,0.0,3.2415,3.2602,3.2819,3.3455,3.3612,3.3664,3.3761,3.5848,3.7067,3.593,3.7896,3.9511,3.9601,4.0148,4.0786,4.1454,4.2101,4.2221,4.1583,4.1553,4.1822,4.25,4.253,4.311,4.4337,4.2621,4.2301,4.3599,4.29,4.314,4.4366,4.3628,4.33,4.33,4.33,4.3329,4.3359,4.3359,4.3389,4.3449,4.3449,4.3419,4.3389,4.3419,4.3419,4.3449,4.4117,4.4366,4.4456,4.5095,4.5315,4.5304,4.5374,4.5394,4.5424,4.5424,4.6434,4.7539,4.7602,4.7688,4.7952,4.8849,4.9085,4.9352,5.0172,5.0377,5.0377,5.0377,5.0377,5.0377,5.0377,5.0377,5.0377,5.0377,5.0377,5.0377,5.0377,5.0377,5.0377,5.0377,5.0377,5.0404,5.0516,4.9812,4.9706,5.0651,5.0363,5.0219,5.0408,4.9821,4.9417,4.9379,4.8748,4.8431,4.8459,4.7804,4.7526,4.7709,4.7653,4.7865,4.8352,4.854,4.8665,3.1869,0.0,3.1959,3.1959,3.1839,3.1869,0.0,3.2392,3.2452,3.3125,3.3672,3.4069,3.4256,3.4689,3.534,3.6327,3.7434,3.8242,3.8443,3.9451,4.0546,4.1583,4.1832,4.2182,4.2801,4.299,4.301,4.2861,4.2861,4.314,4.3808,4.3838,4.4227,4.5035,4.4626,4.4766,4.5613,4.4426,4.4257,4.5035,4.3878,4.33,4.33,4.33,4.3569,4.4057,4.4057,4.4366,4.4825,4.4825,4.4516,4.4127,4.4636,4.4516,4.4147,4.4825,4.5065,4.5095,4.5244,4.5315,4.5394,4.5892,4.6401,4.683,4.683,4.6812,4.6891,4.7447,4.8493,4.9627,5.038,5.1092,5.163,5.1841,5.1885,5.1885,5.1885,5.1885,5.1885,5.1885,5.1885,5.1885,5.1885,5.1885,5.1885,5.1885,5.1885,5.1885,5.1885,5.1885,5.1912,5.1914,5.1174,5.0756,5.0986,5.0084,4.9774,5.0445,4.9521,4.9044,4.9243,4.8183,4.7751,4.8112,4.7968,4.7895,4.7937,4.7903,4.8234,4.8829,4.8872,4.9167,3.1503,3.172,3.1959,3.1959,3.2176,3.2512,3.2878,3.2968,3.3155,3.3821,3.4248,3.4585,3.4907,3.525,3.5818,3.6836,3.7772,3.885,4.0127,4.0367,4.0995,4.2621,4.258,4.288,4.4097,4.3938,4.3878,4.4177,4.4217,4.4366,4.4736,4.4755,4.5055,4.5743,4.5743,4.5922,4.63,4.5264,4.5095,4.5743,4.4725,4.4217,4.4217,4.4217,4.4426,4.4755,4.4755,4.4975,4.5315,4.5315,4.5095,4.4785,4.5155,4.5065,4.4845,4.5503,4.5743,4.5802,4.6112,4.6232,4.6292,4.664,4.6999,4.7309,4.7309,4.709,4.6953,4.7359,4.8091,4.8939,4.9742,5.0287,5.0739,5.113,5.1205,5.1308,5.1701,5.1807,5.1926,5.232,5.2391,5.2391,5.2391,5.2391,5.2391,5.2391,5.2391,5.2391,5.2391,5.2681,5.2879,5.2879,5.2403,5.2083,5.2077,5.0723,4.9989,5.0169,4.9337,4.8872,4.8933,4.7966,4.7699,4.8259,4.8669,4.8832,4.8724,4.8832,4.8992,4.9288,4.9386,4.9601,3.1623,3.2213,3.2759,3.2542,3.2998,3.3522,3.3642,3.3642,3.3851,3.4518,3.4637,3.4847,3.5519,3.5639,3.5908,3.6673,3.7871,3.9388,4.1394,4.1205,4.1524,4.3389,4.316,4.3509,4.5135,4.4796,4.4696,4.5244,4.5315,4.5334,4.5454,4.5454,4.5743,4.642,4.645,4.645,4.645,4.5783,4.5753,4.63,4.5633,4.5315,4.5315,4.5315,4.5374,4.5454,4.5454,4.5514,4.5614,4.5614,4.5554,4.5454,4.5574,4.5544,4.5544,4.6221,4.645,4.654,4.7089,4.7309,4.7309,4.7309,4.7309,4.7309,4.7309,4.7309,4.7309,4.7309,4.7406,4.7677,4.8407,4.8708,4.8953,4.9627,4.9795,4.9992,5.0752,5.0999,5.1355,5.2185,5.2476,5.259,5.269,5.2723,5.2678,5.2551,5.2533,5.2455,5.2319,5.2785,5.317,5.317,5.2977,5.2842,5.2805,5.1319,5.02,4.9764,4.9233,4.8881,4.8714,4.8152,4.812,4.8703,4.9422,4.9727,4.9602,4.9727,4.9799,4.982,4.989,5.0039,3.2176,3.3245,3.3911,3.2781,3.2998,3.3642,3.4226,3.4346,3.4548,3.522,3.534,3.5549,3.6216,3.6335,3.6725,3.793,3.9239,4.0786,4.2741,4.2911,4.3399,4.4815,4.4926,4.4985,4.5274,4.5214,4.5185,4.5285,4.5315,4.5544,4.6132,4.6151,4.645,4.7119,4.7149,4.7149,4.7149,4.6491,4.6211,4.63,4.5633,4.5315,4.5315,4.5315,4.5603,4.6151,4.6151,4.6461,4.701,4.701,4.667,4.6211,4.676,4.664,4.6241,4.6909,4.7149,4.7149,4.7268,4.7309,4.7309,4.7309,4.7309,4.7309,4.7309,4.7309,4.7309,4.7309,4.7817,4.8428,4.8573,4.9116,4.9637,4.9765,4.9795,4.9835,4.9962,5.0576,5.1325,5.2079,5.2795,5.3458,5.4078,5.4177,5.3912,5.32,5.3094,5.2789,5.1992,5.1986,5.205,5.205,5.1372,5.0938,5.0928,5.0039,4.9478,4.9389,4.9281,4.9234,4.92,4.9089,4.9093,4.9183,4.9337,4.9456,4.9602,4.9456,4.9869,5.0781,5.0355,5.0701,3.2333,3.3215,3.4061,3.4532,3.513,3.5609,3.5595,3.5565,3.5775,3.6417,3.6267,3.6237,3.6866,3.7293,3.7952,3.9269,4.0625,4.1903,4.312,4.3599,4.4326,4.5683,4.5514,4.5574,4.6322,4.6042,4.5982,4.6352,4.6381,4.6531,4.6809,4.685,4.6969,4.7309,4.7309,4.7309,4.7309,4.6999,4.685,4.685,4.6531,4.6381,4.6381,4.6381,4.6561,4.685,4.685,4.7029,4.7309,4.7309,4.7119,4.6879,4.7179,4.7119,4.6879,4.7179,4.7309,4.7369,4.7698,4.7859,4.7919,4.8248,4.8379,4.8379,4.8379,4.8379,4.8379,4.8379,4.8134,4.7983,4.8347,4.8706,4.9199,5.004,5.0216,5.0494,5.1472,5.2004,5.2528,5.3282,5.3348,5.3412,5.374,5.3376,5.2902,5.2492,5.2442,5.23,5.185,5.2145,5.2387,5.2387,5.2396,5.2186,5.1663,5.1283,5.0562,4.9382,4.9288,4.9288,4.9288,4.9625,4.9793,4.9793,5.0152,5.0389,5.0451,5.0389,5.0596,5.1093,5.0861,5.1035,3.2699,3.3335,3.4151,3.5827,3.6716,3.7195,3.7165,3.7054,3.7114,3.7725,3.7375,3.7144,3.7755,3.8661,3.9658,4.0705,4.2122,4.3289,4.3938,4.4446,4.5194,4.639,4.6072,4.6172,4.7209,4.685,4.676,4.7268,4.7309,4.7309,4.7309,4.7309,4.7309,4.7309,4.7309,4.7309,4.7309,4.7309,4.7309,4.7309,4.7309,4.7309,4.7309,4.7309,4.7309,4.7309,4.7309,4.7309,4.7309,4.7309,4.7309,4.7309,4.7489,4.7638,4.7769,4.7769,4.7769,4.7859,4.8349,4.8517,4.8618,4.9127,4.9288,4.9288,4.9288,4.9288,4.9288,4.9288,4.8558,4.7889,4.8397,4.8517,4.8837,5.0007,5.0314,5.0672,5.2045,5.2523,5.2875,5.3669,5.3437,5.3184,5.3345,5.2799,5.223,5.201,5.1999,5.1925,5.1681,5.216,5.2515,5.2515,5.3005,5.3042,5.2324,5.2268,5.1565,4.9861,4.9783,4.9847,4.9847,5.0262,5.0573,5.0631,5.1065,5.1339,5.1444,5.1566,5.1662,5.1778,5.1842,5.1902,3.3829,3.4376,3.4607,3.537,3.6058,3.7024,3.8802,3.8721,3.8461,3.9131,3.8721,3.8461,3.9122,4.0825,4.2141,4.2231,4.3858,4.5334,4.6001,4.6121,4.642,4.7149,4.7189,4.7179,4.7309,4.7268,4.7238,4.7309,4.7309,4.7309,4.7309,4.7309,4.7309,4.7309,4.7309,4.7309,4.7309,4.7309,4.7309,4.7309,4.7309,4.7309,4.7309,4.7309,4.7309,4.7309,4.7309,4.7309,4.7309,4.7309,4.7309,4.7369,4.7978,4.8618,4.9168,4.9168,4.9168,4.9168,4.9198,4.9228,4.9228,4.9288,4.9288,4.9288,4.9288,4.9288,4.9288,4.9288,4.9228,4.9168,4.9228,4.9228,4.9251,4.9378,4.9389,4.9434,4.9568,5.0182,5.0931,5.1647,5.2416,5.3134,5.3819,5.3903,5.3561,5.2675,5.2541,5.2216,5.1352,5.1296,5.1326,5.1326,5.1368,5.1363,5.1323,5.1293,5.1228,5.1068,5.1301,5.144,5.144,5.147,5.1604,5.1853,5.1676,5.178,5.2227,5.2679,5.3099,5.3515,5.3715,5.4025,3.4196,3.4787,3.5468,3.6926,3.7503,3.7862,3.8601,3.8901,3.932,4.0427,4.0098,3.9858,4.0526,4.1622,4.2521,4.291,4.4636,4.6001,4.6271,4.6659,4.7029,4.7268,4.7309,4.7309,4.7309,4.7309,4.7309,4.7309,4.7309,4.7309,4.7309,4.7309,4.7309,4.7309,4.7309,4.7309,4.7309,4.7309,4.7309,4.7309,4.7309,4.7309,4.7309,4.7309,4.7309,4.7309,4.7309,4.7549,4.7908,4.7908,4.8158,4.8588,4.8828,4.9078,4.9288,4.9288,4.9288,4.9348,4.9733,4.9871,4.9931,5.0361,5.0481,5.0481,5.0481,5.0481,5.0481,5.0481,5.0481,5.0391,4.9961,4.9871,5.0121,5.1117,5.1343,5.1523,5.2089,5.247,5.277,5.3031,5.2888,5.2786,5.3088,5.2651,5.2151,5.1773,5.2078,5.2222,5.1863,5.2187,5.2438,5.2438,5.2438,5.2438,5.2438,5.2438,5.2438,5.2438,5.1772,5.1339,5.1339,5.1339,5.1667,5.2357,5.2111,5.244,5.3357,5.3371,5.3552,5.3894,5.3949,5.4082,3.4877,3.5318,3.593,3.7644,3.8251,3.852,3.8939,3.9709,4.0726,4.2052,4.1773,4.1414,4.1673,4.2421,4.313,4.3549,4.5313,4.661,4.661,4.6999,4.7309,4.7309,4.7309,4.7309,4.7309,4.7309,4.7309,4.7309,4.7309,4.7309,4.7309,4.7309,4.7309,4.7309,4.7309,4.7309,4.7309,4.7309,4.7309,4.7309,4.7309,4.7309,4.7298,4.7519,4.7608,4.7638,4.7859,4.8188,4.8618,4.8618,4.9007,4.9595,4.9595,4.9714,4.9894,4.9894,4.9894,4.9954,5.0368,5.0518,5.0596,5.1056,5.1206,5.1206,5.1206,5.1206,5.1236,5.1457,5.1517,5.1457,5.1206,5.0847,5.0841,5.2166,5.2479,5.2661,5.3295,5.3595,5.3688,5.347,5.3087,5.2784,5.2784,5.2245,5.1816,5.1816,5.2217,5.2528,5.2528,5.2917,5.3198,5.3198,5.3198,5.3198,5.3198,5.3198,5.3198,5.3198,5.2336,5.1881,5.1964,5.1964,5.2274,5.2999,5.2767,5.3092,5.3975,5.4008,5.4098,5.4279,5.4534,5.4625,3.6134,3.5998,3.581,3.7097,3.7913,3.879,4.0127,4.1463,4.276,4.4047,4.3788,4.313,4.2521,4.3459,4.4307,4.4307,4.5982,4.7309,4.7309,4.7309,4.7309,4.7309,4.7309,4.7309,4.7309,4.7309,4.7309,4.7309,4.7309,4.7309,4.7309,4.7309,4.7309,4.7309,4.7309,4.7309,4.7309,4.7309,4.7309,4.7309,4.7298,4.7298,4.7328,4.8008,4.8308,4.8338,4.9007,4.9288,4.9318,4.9318,4.9673,5.0207,5.0207,5.0637,5.1206,5.1206,5.1206,5.1206,5.1206,5.1206,5.1206,5.1206,5.1206,5.1206,5.1206,5.1206,5.1367,5.2037,5.2217,5.2366,5.3049,5.2217,5.1397,5.2067,5.2217,5.2217,5.2217,5.2737,5.3007,5.2336,5.2737,5.3198,5.3198,5.3198,5.3198,5.3198,5.3198,5.3228,5.3216,5.3216,5.3216,5.3216,5.3216,5.3216,5.3216,5.3216,5.3216,5.3216,5.3216,5.3326,5.3598,5.361,5.3688,5.3909,5.3712,5.37,5.3921,5.4588,5.4922,5.4922,5.5657,5.6016,3.5818,3.6297,3.7037,3.7883,3.9329,4.0855,4.2143,4.2751,4.3409,4.4736,4.4486,4.3938,4.3778,4.4436,4.5005,4.5005,4.6292,4.7309,4.7309,4.7309,4.7309,4.7309,4.7309,4.7309,4.7309,4.7309,4.7309,4.7309,4.7309,4.7309,4.7309,4.7309,4.7309,4.7309,4.7309,4.7309,4.7309,4.7309,4.7309,4.7309,4.7799,4.8008,4.8008,4.8218,4.8558,4.9007,4.9198,4.9535,4.9961,5.044,5.0739,5.0907,5.0907,5.1026,5.1206,5.1206,5.1206,5.1206,5.1206,5.1206,5.1206,5.1206,5.1206,5.1307,5.1756,5.1917,5.2037,5.2707,5.2887,5.2947,5.3169,5.2887,5.2677,5.2857,5.2887,5.2887,5.2887,5.3067,5.3139,5.2947,5.3067,5.3198,5.3198,5.3198,5.3198,5.3198,5.3605,5.4072,5.4563,5.4623,5.4623,5.4623,5.4623,5.4623,5.4623,5.4623,5.4623,5.4623,5.4623,5.4211,5.3356,5.3338,5.3657,5.4395,5.4138,5.4465,5.5384,5.5399,5.5601,5.5969,5.6195,5.6384,3.6686,3.7225,3.8093,3.9299,4.0505,4.1932,4.4027,4.4496,4.4805,4.5873,4.5563,4.5104,4.5104,4.5414,4.5683,4.5683,4.6591,4.7309,4.7309,4.7309,4.7309,4.7309,4.7309,4.7309,4.7309,4.7309,4.7309,4.7309,4.7309,4.7309,4.7309,4.7309,4.7315,4.7295,4.7554,4.7725,4.7809,4.7994,4.8098,4.8098,4.8498,4.8816,4.9063,4.9063,4.9284,4.9673,4.9954,5.0272,5.0637,5.1026,5.1206,5.1206,5.1206,5.1206,5.1206,5.1206,5.1367,5.1606,5.1606,5.1756,5.1995,5.1995,5.1995,5.2067,5.2456,5.2618,5.2737,5.3426,5.3605,5.3665,5.3935,5.3994,5.3935,5.3665,5.3605,5.3605,5.3605,5.3815,5.3905,5.3665,5.3815,5.3994,5.3994,5.3994,5.3994,5.3994,5.4354,5.473,5.5162,5.5192,5.5311,5.5581,5.5611,5.57,5.5927,5.5957,5.5957,5.5957,5.5957,5.5581,5.4773,5.4264,5.4248,5.483,5.4668,5.4953,5.5681,5.5518,5.5606,5.5917,5.5917,5.6168,3.8131,3.8401,3.8969,4.0984,4.1673,4.2641,4.5702,4.639,4.657,4.7179,4.682,4.639,4.639,4.639,4.639,4.639,4.6909,4.7309,4.7309,4.7309,4.7309,4.7309,4.7309,4.7391,4.7616,4.7502,4.744,4.754,4.7489,4.7489,4.7489,4.7437,4.7407,4.7403,4.8055,4.851,4.8723,4.9131,4.9329,4.9288,4.9378,4.9673,5.0207,5.0207,5.0226,5.0327,5.0936,5.1206,5.1206,5.1206,5.1206,5.1206,5.1206,5.1247,5.1307,5.1307,5.1738,5.2276,5.2276,5.2677,5.3198,5.3198,5.3198,5.3228,5.3276,5.3276,5.3426,5.4102,5.4299,5.4418,5.5042,5.5192,5.5029,5.4431,5.4299,5.4299,5.4299,5.476,5.5029,5.4418,5.479,5.5192,5.5192,5.5192,5.5222,5.5281,5.5281,5.5311,5.5371,5.5359,5.5611,5.6222,5.6282,5.6479,5.7034,5.7094,5.7094,5.7094,5.7094,5.7094,5.7094,5.6025,5.5397,5.5359,5.5397,5.5409,5.5409,5.5409,5.5434,5.5485,5.5485,5.5828,3.7584,3.8383,3.967,4.1682,4.3728,4.5553,4.679,4.7089,4.7119,4.7268,4.7179,4.7089,4.7089,4.7089,4.7089,4.7089,4.7219,4.7309,4.7309,4.7309,4.7309,4.7309,4.7309,4.8118,5.0163,4.9117,4.8609,4.9287,4.9056,4.8858,4.8858,4.8533,4.8302,4.8317,4.8817,4.9273,4.9633,4.9727,4.9622,4.9318,4.9793,5.0069,5.0207,5.0207,5.0476,5.0996,5.1146,5.1206,5.1206,5.1206,5.1206,5.1206,5.1206,5.1517,5.1965,5.1965,5.2396,5.2977,5.2977,5.3079,5.3198,5.3198,5.3198,5.3306,5.3832,5.397,5.4132,5.479,5.497,5.5012,5.5162,5.5192,5.5162,5.5029,5.497,5.497,5.497,5.5102,5.5162,5.4999,5.5102,5.5192,5.5192,5.5192,5.5371,5.5923,5.5983,5.6162,5.6628,5.6675,5.6748,5.6898,5.6898,5.6958,5.7107,5.7094,5.7094,5.7094,5.7094,5.7094,5.7094,5.7088,5.6951,5.6688,5.6938,5.7067,5.7067,5.7067,5.7285,5.7704,5.7704,5.7909,3.8165,3.9092,4.0417,4.2741,4.5065,4.6879,4.7209,4.7549,4.7799,4.7799,4.7519,4.7309,4.7309,4.7309,4.7399,4.7728,4.7499,4.7463,4.7865,4.7573,4.7314,4.7314,4.7314,4.8096,5.0097,5.0022,4.9786,4.9603,4.9423,4.9183,4.8973,4.8723,4.8401,4.7995,4.8851,4.9683,5.0499,5.0529,5.0423,5.0212,5.0529,5.0697,5.0697,5.0697,5.0877,5.1206,5.1206,5.1206,5.1206,5.1206,5.1206,5.1236,5.1546,5.1887,5.2247,5.2558,5.3097,5.3695,5.3695,5.3905,5.4144,5.4144,5.4144,5.4234,5.4581,5.467,5.476,5.5102,5.5192,5.5192,5.5192,5.5192,5.5192,5.5192,5.5192,5.5192,5.5192,5.5192,5.5192,5.5192,5.5192,5.5311,5.5611,5.591,5.6239,5.6568,5.6628,5.6748,5.7077,5.7094,5.7214,5.753,5.756,5.7723,5.8022,5.8052,5.8052,5.8052,5.8052,5.8052,5.8052,5.836,5.8151,5.7346,5.7501,5.7674,5.7803,5.7803,5.7957,5.8225,5.8225,5.8454,3.8862,4.0118,4.1644,4.4067,4.6072,4.7489,4.7489,4.7978,4.8457,4.8457,4.8038,4.7638,4.7638,4.7638,4.7829,4.8368,4.7948,4.7815,4.8611,4.7899,4.7471,4.791,4.7951,4.8416,4.9509,5.0476,5.0642,4.97,4.9636,4.9448,4.908,4.9039,4.873,4.7991,4.9059,5.0118,5.1176,5.1206,5.1206,5.1206,5.1206,5.1206,5.1206,5.1206,5.1206,5.1206,5.1206,5.1206,5.1206,5.1325,5.1367,5.1427,5.2127,5.2426,5.2606,5.3156,5.3815,5.4359,5.4359,5.473,5.5192,5.5192,5.5192,5.5192,5.5192,5.5281,5.5371,5.5371,5.5461,5.5521,5.5521,5.5521,5.5521,5.5521,5.5521,5.5491,5.5401,5.5461,5.5521,5.5521,5.5521,5.57,5.6252,5.6778,5.7124,5.7244,5.7274,5.7304,5.7423,5.7466,5.7663,5.8218,5.8264,5.8517,5.9069,5.9099,5.9099,5.9099,5.9099,5.9099,5.9099,5.9315,5.8964,5.7958,5.7928,5.8045,5.8265,5.8265,5.829,5.8342,5.8342,5.8646,3.8191,4.1115,4.4147,4.5642,4.713,4.8158,4.8158,4.8678,4.9168,4.9168,4.9108,4.9037,4.9037,4.9037,4.9067,4.9168,4.8761,4.8622,4.9131,4.8107,4.8148,5.04,5.0694,5.0736,5.0916,5.0564,5.0497,5.0918,5.0948,5.0907,5.0853,5.0853,5.0807,5.0695,5.0855,5.1021,5.1206,5.1206,5.1206,5.1206,5.1206,5.1206,5.1206,5.1206,5.1206,5.1206,5.1206,5.1206,5.1236,5.1828,5.2067,5.2127,5.2797,5.3426,5.394,5.403,5.4491,5.5072,5.5072,5.5132,5.5192,5.5192,5.5192,5.5192,5.5192,5.5623,5.6072,5.6072,5.6449,5.6855,5.6855,5.6855,5.6855,5.6855,5.6855,5.6718,5.6192,5.6479,5.6855,5.6855,5.6855,5.6855,5.6958,5.7047,5.7304,5.7889,5.7979,5.8188,5.877,5.883,5.886,5.8949,5.8979,5.9009,5.9099,5.9099,5.9099,5.9099,5.9099,5.9099,5.9099,5.9126,5.9171,5.9245,5.9245,5.9258,5.9298,5.9298,5.9461,5.9743,5.9743,5.9773,3.8969,4.2132,4.5084,4.6061,4.7298,4.8397,4.8768,4.9355,4.9781,4.9781,5.0092,5.0163,4.9426,4.9288,4.9385,4.9605,4.9266,4.9321,5.0249,4.9855,4.9908,5.107,5.1187,5.119,5.1183,5.0947,5.0877,5.1187,5.1206,5.1206,5.1206,5.1206,5.1206,5.1206,5.1206,5.1206,5.1206,5.1206,5.1206,5.1206,5.1206,5.1397,5.1756,5.1756,5.1756,5.1756,5.1756,5.1977,5.2336,5.2648,5.2767,5.2827,5.3503,5.3952,5.4239,5.461,5.494,5.5192,5.5192,5.5192,5.5251,5.5641,5.576,5.582,5.6179,5.6479,5.6688,5.6688,5.6898,5.7094,5.7094,5.7094,5.7094,5.7094,5.7393,5.759,5.7334,5.7184,5.7094,5.7094,5.7393,5.7649,5.7649,5.7962,5.8321,5.8607,5.8667,5.8756,5.9069,5.9099,5.9099,5.9099,5.9099,5.9099,5.9099,5.9099,5.9099,5.9099,5.9458,5.9668,5.9668,6.0027,6.036,6.0631,5.9864,5.9583,5.9787,5.9929,6.0074,6.0237,6.0381,6.0643,3.9469,4.2192,4.4566,4.5523,4.707,4.8438,4.8917,4.9793,5.0446,5.0446,5.0847,5.0948,5.0175,4.9905,4.9871,5.0186,4.9981,5.0118,5.1063,5.1206,5.1206,5.1206,5.1206,5.1206,5.1206,5.1206,5.1206,5.1206,5.1206,5.1206,5.1206,5.1206,5.1206,5.1206,5.1206,5.1206,5.1206,5.1206,5.1206,5.1206,5.1367,5.1738,5.2217,5.2366,5.2546,5.2695,5.2516,5.2737,5.3228,5.3396,5.3456,5.3516,5.4192,5.4461,5.4521,5.5012,5.5192,5.5222,5.5401,5.5461,5.5551,5.6222,5.6432,5.6509,5.6958,5.7214,5.7363,5.7363,5.7483,5.7603,5.7603,5.7603,5.7603,5.7603,5.7979,5.8367,5.8367,5.7949,5.7603,5.7603,5.8008,5.8367,5.8367,5.8756,5.9099,5.9099,5.9099,5.9099,5.9099,5.9249,5.9338,5.9338,5.9518,5.9608,5.9608,5.9608,5.9608,5.9608,6.0086,6.0356,6.0356,6.0821,6.1188,6.1394,6.0418,6.0096,6.0515,6.0711,6.0817,6.0817,6.1015,6.1383,3.8913,4.0516,4.2052,4.3918,4.6381,4.8308,4.8338,4.9781,5.1146,5.1146,5.1187,5.1367,5.1947,5.1528,5.1128,5.1116,5.1104,5.1134,5.1176,5.1206,5.1206,5.1206,5.1206,5.1206,5.1206,5.1206,5.1206,5.1206,5.1206,5.1206,5.1206,5.1206,5.1206,5.1206,5.1206,5.1206,5.1206,5.1206,5.1206,5.1206,5.1846,5.2157,5.2217,5.2857,5.3486,5.4059,5.3426,5.3169,5.3258,5.3892,5.4149,5.4209,5.488,5.5162,5.5162,5.5192,5.5192,5.5281,5.5923,5.6162,5.6252,5.6868,5.7034,5.7077,5.7107,5.753,5.8068,5.8068,5.8517,5.9009,5.9009,5.9009,5.9009,5.9009,5.9026,5.9069,5.9069,5.9009,5.9009,5.9009,5.9026,5.9069,5.9069,5.9069,5.9099,5.9099,5.9099,5.9099,5.9099,5.9638,6.004,6.004,6.0625,6.1,6.1,6.1,6.1,6.1,6.103,6.106,6.106,6.109,6.1104,6.1118,6.1058,6.1304,6.1892,6.1906,6.1906,6.1906,6.1919,6.1963,3.8054,4.0047,4.2311,4.3459,4.5384,4.7369,4.8648,4.9793,5.0697,5.1116,5.1546,5.1917,5.2157,5.2007,5.187,5.2019,5.2037,5.1834,5.1268,5.1197,5.1196,5.1194,5.1206,5.1546,5.2395,5.1712,5.1367,5.1816,5.1427,5.1206,5.1206,5.1206,5.1206,5.1206,5.1206,5.1599,5.2479,5.2168,5.2324,5.2948,5.2858,5.3054,5.3491,5.3743,5.4192,5.482,5.4593,5.4473,5.4503,5.473,5.485,5.485,5.5102,5.5192,5.5251,5.5671,5.5833,5.5923,5.6568,5.6778,5.6898,5.753,5.7739,5.7829,5.8261,5.856,5.8726,5.8726,5.8906,5.9099,5.9099,5.9428,5.9847,6.0282,6.0372,6.0372,6.0372,5.9714,5.9099,5.9099,5.9099,5.9249,5.9681,5.9741,5.9877,6.0312,6.0372,6.0372,6.0372,6.0581,6.0745,6.0745,6.094,6.109,6.109,6.109,6.109,6.109,6.1479,6.1817,6.1984,6.2265,6.256,6.2942,6.2956,6.2449,6.1438,6.1602,6.1698,6.1682,6.2068,6.2489,3.7225,3.9209,4.1553,4.2232,4.3868,4.5922,4.8128,4.9105,4.986,5.0966,5.1726,5.2276,5.2486,5.2725,5.2839,5.2747,5.2735,5.2532,5.1953,5.1487,5.1196,5.1202,5.1196,5.1642,5.2863,5.1886,5.1487,5.2157,5.1851,5.1654,5.1654,5.1356,5.16,5.2518,5.1951,5.221,5.3429,5.2966,5.3068,5.3651,5.3577,5.3773,5.4209,5.4418,5.479,5.5192,5.5192,5.5192,5.5192,5.5192,5.5192,5.5192,5.5192,5.5341,5.5581,5.6042,5.6342,5.6598,5.7214,5.7453,5.7543,5.8218,5.8457,5.8517,5.8966,5.9099,5.9159,5.9368,5.9428,5.9488,5.9714,6.0116,6.0535,6.1,6.109,6.109,6.109,6.0402,5.9774,5.9774,5.9774,5.9907,6.0356,6.0459,6.0595,6.103,6.109,6.109,6.109,6.1299,6.1419,6.1419,6.1642,6.1762,6.1762,6.1762,6.1762,6.1762,6.2181,6.252,6.2689,6.3055,6.3424,6.3837,6.3951,6.3355,6.2058,6.2447,6.2641,6.2655,6.3057,6.3479,0.0,0.0,0.0,4.0217,4.1873,4.4018,4.661,4.7728,4.8787,5.0739,5.1696,5.2366,5.3067,5.3773,5.4012,5.3366,5.3258,5.3258,5.3253,5.2123,5.1305,5.122,5.1226,5.1607,5.2462,5.1743,5.1546,5.2217,5.2408,5.2528,5.2528,5.1745,5.2462,5.5046,5.344,5.2966,5.3886,5.3463,5.3228,5.3288,5.3922,5.4239,5.4239,5.491,5.5192,5.5192,5.5192,5.5192,5.5192,5.5192,5.5222,5.5222,5.5222,5.5641,5.6222,5.6252,5.6628,5.7214,5.7889,5.8115,5.8234,5.8876,5.9099,5.9099,5.9129,5.9129,5.9279,5.9951,6.013,6.0266,6.094,6.112,6.112,6.115,6.115,6.115,6.115,6.115,6.115,6.112,6.109,6.112,6.112,6.112,6.115,6.115,6.115,6.115,6.115,6.1732,6.2121,6.2121,6.2704,6.3108,6.3108,6.3108,6.3108,6.3108,6.3108,6.3108,6.3108,6.3367,6.3495,6.351,6.3823,6.3993,6.3993,6.4582,6.486,6.486,6.4874,6.4888,3.6493,0.0,0.0,0.0,0.0,0.0,4.4636,4.5663,4.6841,4.9307,5.069,5.1828,5.2977,5.4144,5.4862,5.4683,5.4653,5.4653,5.4655,5.431,5.3369,5.1446,5.2067,5.287,5.3459,5.2984,5.2851,5.3375,5.3162,5.3164,5.3477,5.2959,5.2971,5.3724,5.3272,5.3355,5.4116,5.3977,5.4162,5.4653,5.482,5.491,5.491,5.5132,5.5192,5.5192,5.5192,5.5192,5.5192,5.5192,5.5491,5.5923,5.5923,5.6299,5.6898,5.7393,5.7679,5.7919,5.8577,5.8816,5.8846,5.9039,5.9099,5.9189,5.9681,5.9831,5.9967,6.0611,6.0821,6.0984,6.1642,6.1822,6.1942,6.2435,6.2555,6.2555,6.2555,6.2555,6.2241,6.1299,6.109,6.1239,6.1732,6.1822,6.2002,6.2465,6.2555,6.2555,6.2555,6.2704,6.2824,6.2824,6.2988,6.3108,6.3108,6.3108,6.3108,6.3108,6.3108,6.3194,6.3395,6.328,6.3309,6.351,6.3595,6.3652,6.3652,6.4049,6.4247,6.4261,6.444,6.4663,0.0,0.0,0.0,3.9302,0.0,0.0,4.3738,4.4825,4.6112,4.9075,5.0499,5.1606,5.2947,5.369,5.4199,5.4603,5.4955,5.5198,5.5188,5.4245,5.3352,5.2935,5.3555,5.4133,5.4417,5.3938,5.373,5.3998,5.3778,5.3853,5.4404,5.3938,5.3744,5.4035,5.3744,5.3922,5.461,5.461,5.482,5.5192,5.5192,5.5192,5.5192,5.5192,5.5192,5.5222,5.5491,5.5623,5.5641,5.588,5.606,5.6222,5.6492,5.6958,5.756,5.7979,5.8278,5.8577,5.8966,5.9099,5.9159,5.9428,5.9518,5.9638,6.0296,6.0505,6.0655,6.1343,6.1732,6.2032,6.2435,6.2525,6.2614,6.3003,6.3108,6.3108,6.3108,6.3108,6.2854,6.2091,6.1942,6.2061,6.2465,6.2525,6.2644,6.3048,6.3108,6.3108,6.3108,6.3108,6.3108,6.3108,6.3108,6.3108,6.3108,6.3108,6.3108,6.3108,6.3108,6.318,6.3338,6.3295,6.3352,6.351,6.3652,6.3724,6.3724,6.3908,6.4078,6.416,6.4216,6.4398,3.7002,3.7964,0.0,3.9391,3.9451,0.0,4.319,4.4436,4.5843,4.8891,5.0129,5.1109,5.2558,5.2582,5.2738,5.3872,5.4688,5.5203,5.5202,5.3157,5.2519,5.4916,5.5194,5.5185,5.5187,5.4658,5.4316,5.4321,5.4316,5.456,5.517,5.4645,5.459,5.517,5.4615,5.461,5.5179,5.5192,5.5192,5.5192,5.5192,5.5192,5.5192,5.5281,5.5311,5.5341,5.6,5.6312,5.6342,5.6958,5.6898,5.6449,5.7017,5.7633,5.8205,5.8205,5.8577,5.9099,5.9099,5.9159,5.9308,5.9921,6.016,6.034,6.1,6.121,6.1359,6.2032,6.2644,6.3108,6.3108,6.3108,6.3108,6.3108,6.3108,6.3108,6.3108,6.3108,6.3108,6.3108,6.3108,6.3108,6.3108,6.3108,6.3108,6.3108,6.3108,6.3108,6.3108,6.3108,6.3108,6.3108,6.3108,6.3108,6.3108,6.3108,6.3123,6.3183,6.3183,6.3213,6.3303,6.3548,6.3647,6.3557,6.3811,6.3951,6.3951,6.3993,6.4118,6.434,6.4104,6.4162,3.7952,3.8311,3.8721,3.9272,3.9819,0.0,4.1025,4.2092,4.3449,4.5114,4.642,4.7935,5.0147,5.1039,5.2208,5.4564,5.5085,5.5189,5.5191,5.4755,5.4612,5.5147,5.5204,5.5203,5.519,5.5067,5.5001,5.4994,5.5005,5.5055,5.5207,5.5067,5.5055,5.5207,5.5067,5.5072,5.5192,5.5192,5.5192,5.5192,5.5192,5.5192,5.5222,5.576,5.6013,5.6042,5.6658,5.6928,5.6987,5.762,5.7829,5.7739,5.7859,5.8308,5.8906,5.8906,5.9009,5.9099,5.9099,5.9458,5.9921,6.007,6.0475,6.103,6.1702,6.1912,6.2032,6.2704,6.3003,6.3108,6.3108,6.3108,6.3108,6.3108,6.3108,6.3108,6.3108,6.3108,6.3108,6.3108,6.3108,6.3108,6.3108,6.3108,6.3108,6.3108,6.3108,6.3108,6.3108,6.3108,6.3108,6.3108,6.3108,6.3108,6.3108,6.3108,6.3303,6.3797,6.3827,6.4066,6.462,6.4664,6.4469,6.3914,6.3693,6.361,6.361,6.388,6.4035,6.4061,6.4035,6.4436,3.8401,3.8631,3.9071,3.9729,3.9909,0.0,0.0,4.1682,4.285,4.4466,4.551,4.6915,4.9448,4.9552,5.0103,5.2767,5.0982,5.017,5.2838,5.4375,5.5192,5.5193,5.5593,5.5681,5.5234,5.576,5.6145,5.6135,5.5863,5.57,5.57,5.5371,5.5192,5.5192,5.5192,5.5192,5.5192,5.5192,5.5192,5.5192,5.5192,5.5371,5.57,5.6042,5.6372,5.6688,5.7334,5.759,5.7649,5.8308,5.8607,5.8607,5.8607,5.8786,5.9099,5.9099,5.9099,5.9159,5.9488,5.9831,6.022,6.0878,6.1313,6.1732,6.2405,6.2614,6.2674,6.3018,6.3108,6.3108,6.3108,6.3108,6.3108,6.3108,6.3108,6.3108,6.3108,6.3108,6.3108,6.3108,6.3108,6.3108,6.3108,6.3108,6.3108,6.3108,6.3108,6.3108,6.3108,6.3108,6.3227,6.3512,6.3542,6.3677,6.4006,6.4066,6.4186,6.447,6.45,6.465,6.4994,6.5158,6.5185,6.5,6.4843,6.4648,6.4488,6.4678,6.4711,6.472,6.4898,6.5319,3.9119,3.9379,3.9879,4.0307,4.0088,3.9999,0.0,0.0,0.0,4.4058,4.476,4.5728,4.7755,4.6994,4.6822,4.9287,4.6294,4.5338,5.0046,5.2556,5.4167,5.4872,5.5728,5.6077,5.5611,5.6389,5.6928,5.6928,5.6372,5.6013,5.6013,5.5623,5.5341,5.5192,5.5192,5.5192,5.5192,5.5192,5.5251,5.5401,5.5401,5.5743,5.6372,5.6521,5.6838,5.7334,5.8008,5.8308,5.8324,5.8876,5.9099,5.9099,5.9099,5.9099,5.9129,5.9249,5.9279,5.9398,6.007,6.037,6.0669,6.1746,6.2181,6.2405,6.2944,6.3108,6.3108,6.3108,6.3108,6.3108,6.3108,6.3108,6.3108,6.3108,6.3108,6.3108,6.3108,6.3108,6.3108,6.3108,6.3183,6.3257,6.3123,6.3183,6.3273,6.3273,6.3393,6.3482,6.3482,6.3482,6.3662,6.4156,6.4186,6.4411,6.4964,6.4994,6.5054,6.5174,6.5174,6.5233,6.5398,6.5532,6.5708,6.5973,6.5955,6.5762,6.5498,6.5736,6.5668,6.5333,6.5665,6.6056,4.1074,4.1094,4.1035,4.0516,4.0795,4.0885,3.9849,0.0,4.1403,4.1025,0.0,4.189,4.1777,0.0,0.0,4.3904,4.4686,4.5962,4.8517,4.9163,5.0538,5.3662,5.4837,5.5743,5.6778,5.6539,5.6312,5.6312,5.5683,5.5311,5.5311,5.5803,5.5803,5.5222,5.5192,5.5192,5.5192,5.5192,5.5491,5.6102,5.6102,5.6402,5.7017,5.762,5.7919,5.8025,5.8697,5.9009,5.9009,5.9069,5.9099,5.9099,5.9099,5.9099,5.9189,5.9771,5.998,6.007,6.0731,6.1373,6.1882,6.2061,6.2495,6.3003,6.3078,6.3108,6.3108,6.3108,6.3108,6.3108,6.3108,6.3108,6.3108,6.3108,6.3108,6.3108,6.3108,6.3108,6.3108,6.3108,6.3542,6.3722,6.3183,6.3542,6.3887,6.3887,6.4411,6.4785,6.4785,6.4785,6.4815,6.4874,6.4874,6.4904,6.4994,6.4994,6.5233,6.5847,6.5877,6.6161,6.6759,6.6251,6.5952,6.5997,6.571,6.5542,6.5498,6.6646,6.6453,6.5038,6.5098,6.5785,4.1403,4.1403,4.1343,4.1035,4.0885,4.0666,4.0118,4.0118,4.0268,4.0367,0.0,0.0,0.0,0.0,0.0,0.0,4.3292,4.483,4.6824,4.7533,4.8959,5.1977,5.2659,5.3384,5.4713,5.4952,5.5371,5.6132,5.5581,5.5371,5.576,5.5683,5.5491,5.5222,5.5192,5.5192,5.5192,5.5581,5.5923,5.6192,5.6539,5.7064,5.7679,5.7979,5.8294,5.8697,5.8979,5.9099,5.9099,5.9099,5.9099,5.9129,5.9518,5.9428,5.9115,5.9428,5.9771,6.019,6.0864,6.1553,6.2151,6.2555,6.2854,6.3108,6.3108,6.3108,6.3108,6.3108,6.3108,6.3108,6.3108,6.3108,6.3108,6.3108,6.3108,6.3108,6.3108,6.3363,6.3632,6.3632,6.4156,6.45,6.4231,6.4411,6.459,6.459,6.4815,6.4994,6.4994,6.4994,6.5144,6.5547,6.5577,6.5727,6.6131,6.6161,6.6281,6.655,6.658,6.6882,6.7548,6.7306,6.7335,6.7678,6.7537,6.74,6.7178,6.7718,6.7541,6.6748,6.712,6.7449,4.2481,4.2322,4.2112,4.1762,4.1154,4.0586,4.0208,4.0029,4.0029,4.0337,4.0447,0.0,0.0,0.0,4.1908,4.1922,0.0,4.3843,4.5326,4.6086,4.7526,5.0334,5.1158,5.1846,5.2827,5.3204,5.4012,5.5551,5.5042,5.5012,5.5893,5.5641,5.5401,5.5222,5.5192,5.5192,5.5192,5.5863,5.6282,5.6449,5.7077,5.7723,5.8354,5.8354,5.8637,5.9099,5.9099,5.9099,5.9129,5.9308,5.9368,5.9428,6.0116,6.0086,5.9654,5.9654,5.9967,6.0446,6.094,6.1553,6.2211,6.2884,6.3108,6.3108,6.3108,6.3108,6.3108,6.3108,6.3108,6.3108,6.3108,6.3108,6.3108,6.3108,6.3108,6.3168,6.3303,6.3677,6.4066,6.4246,6.4829,6.5263,6.5263,6.5263,6.5263,6.5263,6.5428,6.5547,6.5547,6.5547,6.5727,6.6221,6.6281,6.646,6.6954,6.7014,6.7045,6.7137,6.7228,6.7502,6.7985,6.8,6.8209,6.8639,6.8654,6.8491,6.8164,6.8253,6.8134,6.788,6.8402,6.8565,4.5165,4.4696,4.3898,4.267,4.1862,4.1035,3.9729,4.0427,4.1154,4.0516,4.1874,4.301,4.2491,4.2851,0.0,0.0,4.3339,0.0,0.0,4.4376,4.5642,4.8989,5.1031,5.2187,5.2217,5.1666,5.2115,5.4119,5.3635,5.3845,5.5162,5.5833,5.5863,5.5222,5.5192,5.5192,5.5192,5.5863,5.6492,5.7077,5.7739,5.8427,5.9069,5.9069,5.9069,5.9099,5.9099,5.9099,5.9159,5.9801,6.007,6.013,6.0791,6.106,6.103,6.103,6.106,6.106,6.109,6.1553,6.2211,6.2884,6.3108,6.3108,6.3108,6.3108,6.3108,6.3108,6.3108,6.3108,6.3108,6.3108,6.3108,6.3108,6.3108,6.3243,6.3842,6.3977,6.4186,6.4845,6.5518,6.5981,6.5981,6.5981,6.5981,6.5981,6.652,6.6954,6.6954,6.6954,6.6939,6.6984,6.6984,6.6984,6.7014,6.7014,6.7152,6.7472,6.7789,6.7985,6.8,6.8,6.8015,6.803,6.803,6.7865,6.7532,6.7865,6.785,6.7532,6.788,6.8149,4.5315,4.4825,4.4097,4.32,4.2202,4.1164,4.0277,4.0765,4.1463,4.1682,4.2571,4.3519,4.4177,4.4137,0.0,0.0,0.0,4.4556,0.0,4.4307,4.4875,4.6463,4.8397,4.9625,4.9625,5.0589,5.1475,5.2175,5.2534,5.347,5.5113,5.498,5.4982,5.5192,5.5192,5.5401,5.5863,5.6479,5.7124,5.7769,5.8427,5.8876,5.9099,5.9099,5.9099,5.9099,5.9099,5.9099,5.9159,5.9831,6.01,6.022,6.1343,6.1762,6.1702,6.1269,6.109,6.115,6.1613,6.1912,6.2211,6.2884,6.3108,6.3108,6.3108,6.3108,6.3108,6.3108,6.3108,6.3108,6.3108,6.3108,6.3108,6.3108,6.3393,6.3737,6.3947,6.4695,6.5398,6.5607,6.6191,6.667,6.667,6.667,6.667,6.667,6.6849,6.7014,6.7014,6.7014,6.7014,6.7014,6.7014,6.7014,6.7014,6.7014,6.706,6.7167,6.7289,6.7457,6.7669,6.7669,6.7774,6.8,6.8164,6.8209,6.8104,6.8432,6.8535,6.8432,6.8535,6.8535,4.5992,4.5503,4.4835,4.4177,4.3379,4.2561,4.1644,4.2491,4.3499,4.3449,4.4327,4.5264,4.5903,4.5663,0.0,0.0,0.0,0.0,0.0,4.4307,4.4496,4.5012,4.6559,4.7695,4.7936,4.9078,5.0,5.05,5.1047,5.2187,5.4142,5.443,5.477,5.5192,5.5431,5.5863,5.6509,5.7124,5.7679,5.8115,5.8786,5.9099,5.9099,5.9099,5.9099,5.9129,5.9338,5.9458,5.9518,6.0429,6.0819,6.0938,6.2016,6.2301,6.2061,6.1613,6.1299,6.121,6.1882,6.2091,6.2211,6.2884,6.3108,6.3108,6.3108,6.3108,6.3108,6.3108,6.3108,6.3108,6.3108,6.3108,6.3153,6.3363,6.3722,6.4126,6.4605,6.5383,6.6056,6.6311,6.67,6.7014,6.7014,6.7014,6.7014,6.7014,6.7014,6.7014,6.7014,6.7014,6.7014,6.7014,6.7014,6.7014,6.7014,6.7121,6.7182,6.7182,6.7304,6.7517,6.7804,6.7819,6.7969,6.8298,6.8491,6.8505,6.8386,6.8639,6.8727,6.8727,6.8727,6.8683]},{"header":{"parameterUnit":"m.s-1","parameterCategory":1,"la1":30.6,"la2":29.2853,"lo1":-89.7004,"lo2":-87.6739,"dy":0.0162,"dx":0.0183,"nx":112,"ny":82,"refTime":"2026-04-30T12:00:00:Z","depth":0,"parameterNumber":3,"parameterNumberName":"V-component_of_WINDS"},"data":[0.0,0.0,0.0,0.0,0.0,0.0,0.0,0.0,0.0,0.0,0.0,0.0,0.0,0.0,0.0,0.0,0.0,0.0,0.0,0.0,0.0,0.0,0.0,0.0,0.0,0.0,0.0,0.0,0.0,0.0,0.0,0.0,0.0,0.0,0.0,0.0,0.0,0.0,0.0,0.0,0.0,0.0,0.0,0.0,0.0,0.0,0.0,0.0,0.0,0.0,0.0,0.0,0.0,0.0,0.0,0.0,0.0,0.0,0.0,0.0,0.0,0.0,0.0,0.0,0.0,0.0,0.0,0.0,0.0,0.0,0.0,0.0,0.0,0.0,0.0,0.0,0.0,0.0,0.0,0.0,0.0,0.0,0.0,0.0,0.0,0.0,0.0,0.0,0.0,0.0,0.7704,0.7587,0.7829,0.8162,0.8569,0.8537,0.8367,0.8024,0.0,0.0,0.0,0.0,0.0,0.0,0.0,0.0,0.0,0.0,0.0,0.0,0.0,0.0,0.0,0.0,0.0,0.0,0.0,0.0,0.0,0.0,0.0,0.0,0.0,0.0,0.0,0.0,0.0,0.0,0.0,0.0,0.0,0.0,0.0,0.0,0.0,0.0,0.0,0.0,0.0,0.0,0.0,0.0,0.0,0.0,0.0,0.0,0.0,0.0,0.0,0.0,0.0,0.0,0.0,0.0,0.0,0.0,0.0,0.0,0.0,0.0,0.0,0.0,0.0,0.0,0.0,0.0,0.0,0.0,0.0,0.0,0.0,0.0,0.0,0.0,0.0,0.0,0.0,0.0,0.0,0.0,0.0,0.0,0.0,0.0,0.0,0.0,0.0,0.0,0.0,0.0,0.0,0.0,0.0,0.0,0.0,0.0,0.0,0.0,0.0,0.0,0.0,0.0,0.7636,0.7892,0.7973,0.8162,0.8569,0.8283,0.8061,0.8006,0.0,0.0,0.0,0.0,0.0,0.0,0.0,0.0,0.0,0.0,0.0,0.0,0.0,0.0,0.0,0.0,0.0,0.0,0.0,0.0,0.0,0.0,0.0,0.0,0.0,0.0,0.0,0.0,0.0,0.0,0.0,0.0,0.0,0.0,0.0,0.0,0.0,0.0,0.0,0.0,0.0,0.0,0.0,0.0,0.0,0.0,0.0,0.0,0.0,0.0,0.0,0.0,0.0,0.0,0.0,0.0,0.0,0.0,0.0,0.0,0.0,0.0,0.0,0.0,0.0,0.0,0.0,0.0,0.0,0.0,0.0,0.0,0.0,0.0,0.0,0.0,0.0,0.0,0.0,0.0,0.0,0.0,0.0,0.0,0.0,0.0,0.0,0.0,0.0,0.0,0.0,0.0,0.0,0.0,0.0,0.0,0.0,0.0,0.0,0.0,0.0,0.0,0.0,0.7499,0.7628,0.7965,0.8006,0.8204,0.8722,0.8491,0.8293,0.822,0.8142,0.0,0.0,0.0,0.0,0.0,0.0,0.0,0.0,0.0,0.0,0.0,0.0,0.0,0.0,0.0,0.0,0.0,0.0,0.0,0.0,0.0,0.0,0.0,0.0,0.0,0.0,0.0,0.0,0.0,0.0,0.0,0.0,0.0,0.0,0.0,0.0,0.0,0.0,0.0,0.0,0.0,0.0,0.0,0.0,0.0,0.0,0.0,0.0,0.0,0.0,0.0,0.0,0.0,0.0,0.0,0.0,0.0,0.0,0.0,0.0,0.0,0.0,0.0,0.0,0.0,0.0,0.0,0.0,0.0,0.0,0.0,0.0,0.0,0.0,0.0,0.0,0.0,0.0,0.0,0.0,0.0,0.0,0.0,0.0,0.0,0.0,0.0,0.0,0.0,0.0,0.0,0.0,0.0,0.0,0.0,0.0,0.0,0.0,0.0,0.0,0.0,0.0,0.7499,0.7628,0.7965,0.8006,0.8246,0.8845,0.8712,0.8548,0.8413,0.8262,0.0,0.0,0.0,0.0,0.0,0.0,0.0,0.0,0.0,0.0,0.0,0.0,0.0,0.0,0.0,0.0,0.0,0.0,0.0,0.0,0.0,0.0,0.0,0.0,0.0,0.0,0.0,0.0,0.0,0.0,0.0,0.0,0.0,0.0,0.0,0.0,0.0,0.0,0.0,0.0,0.0,0.0,0.0,0.0,0.0,0.0,0.0,0.0,0.0,0.0,0.0,0.0,0.0,0.0,0.0,0.0,0.0,0.0,0.0,0.0,0.0,0.0,0.0,0.0,0.0,0.0,0.0,0.0,0.0,0.0,0.0,0.0,0.0,0.0,0.0,0.0,0.0,0.0,0.0,0.0,0.0,0.0,0.0,0.0,0.0,0.0,0.0,0.0,0.0,0.0,0.0,0.0,0.0,0.0,0.0,0.0,0.0,0.0,0.0,0.0,0.0,0.0,0.7499,0.7628,0.7965,0.8006,0.8246,0.8845,0.8712,0.8548,0.8413,0.839,0.0,0.0,0.0,0.0,0.0,0.0,0.0,0.0,0.0,0.0,0.0,0.0,0.0,0.0,0.0,0.0,0.0,0.0,0.0,0.0,0.0,0.0,0.0,0.0,0.0,0.0,0.0,0.0,0.0,0.0,0.0,0.0,0.0,0.0,0.0,0.0,0.0,0.0,0.0,0.0,0.0,0.0,0.0,0.0,0.0,0.0,0.0,0.0,0.0,0.0,0.0,0.0,0.0,0.0,0.0,0.0,0.0,0.0,0.0,0.0,0.0,0.0,0.0,0.0,0.0,0.0,0.0,0.0,0.0,0.0,0.0,0.0,0.0,0.0,0.0,0.0,0.0,0.0,0.0,0.0,0.0,0.0,0.0,0.0,0.0,0.0,0.0,0.0,0.0,0.0,0.0,0.0,0.0,0.0,0.0,0.0,0.0,0.0,0.0,0.0,0.0,0.0,0.783,0.8107,0.8236,0.8467,0.8763,0.9122,0.9081,0.8854,0.8426,0.0,0.0,0.0,0.0,0.0,0.0,0.0,0.0,0.0,0.0,0.0,0.0,0.0,0.0,0.0,0.0,0.0,0.0,0.0,0.0,0.0,0.0,0.0,0.0,0.0,0.0,0.0,0.0,0.0,0.0,0.0,0.0,0.0,0.0,0.0,0.0,0.0,0.0,0.0,0.0,0.0,0.0,0.0,0.0,0.0,0.0,0.0,0.0,0.0,0.0,0.0,0.0,0.0,0.0,0.0,0.0,0.0,0.0,0.0,0.0,0.0,0.0,0.0,0.0,0.0,0.0,0.0,0.0,0.0,0.0,0.0,0.0,0.0,0.0,0.0,0.0,0.0,0.0,0.0,0.0,0.0,0.0,0.0,0.0,0.0,0.0,0.0,0.0,0.0,0.0,0.0,0.0,0.0,0.0,0.0,0.0,0.0,0.0,0.0,0.0,0.0,0.0,0.7736,0.8108,0.8506,0.8779,0.8982,0.9271,0.9708,0.9588,0.9242,0.8658,0.0,0.0,0.0,0.0,0.0,0.0,0.0,0.0,0.0,0.0,0.0,0.0,0.0,0.0,0.0,0.0,0.0,0.0,0.0,0.0,0.0,0.0,0.0,0.0,0.0,0.0,0.0,0.0,0.0,0.0,0.0,0.0,0.0,0.0,0.0,0.0,0.0,0.0,0.0,0.0,0.0,0.0,0.0,0.0,0.0,0.0,0.0,0.0,0.0,0.0,0.0,0.0,0.0,0.0,0.0,0.0,0.0,0.0,0.0,0.0,0.0,0.0,0.0,0.0,0.0,0.0,0.0,0.0,0.0,0.0,0.0,0.0,0.0,0.0,0.0,0.0,0.0,0.0,0.0,0.0,0.0,0.0,0.0,0.0,0.0,0.0,0.0,0.0,0.0,0.0,0.0,0.0,0.0,0.0,0.0,0.0,0.0,0.0,0.0,0.0,0.0,0.0,0.8138,0.8293,0.8744,0.9614,0.9473,0.9682,1.0626,1.0215,0.9676,0.0,0.0,0.0,0.0,0.0,0.0,0.0,0.0,0.0,0.0,0.0,0.0,0.0,0.0,0.0,0.0,0.0,0.0,0.0,0.0,0.0,0.0,0.0,0.0,0.0,0.0,0.0,0.0,0.0,0.0,0.0,0.0,0.0,0.0,0.0,0.0,0.0,0.0,0.0,0.0,0.0,0.0,0.0,0.0,0.0,0.0,0.0,0.0,0.0,0.0,0.0,0.0,0.0,0.0,0.0,0.0,0.0,0.0,0.0,0.0,0.0,0.0,0.0,0.0,0.0,0.0,0.0,0.0,0.0,0.0,0.0,0.0,0.0,0.0,0.0,0.0,0.0,0.0,0.0,0.0,0.0,0.0,0.0,0.0,0.0,0.0,0.0,0.0,0.0,0.0,0.0,0.0,0.0,0.0,0.0,0.0,0.0,0.0,0.0,0.0,0.0,0.0,0.0,0.8849,0.9229,0.9619,0.9885,1.0141,1.032,1.0407,1.0274,0.9857,0.9077,0.0,0.0,0.0,0.0,0.0,0.0,0.0,0.0,0.0,0.0,0.0,0.0,0.0,0.0,0.0,0.0,0.0,0.0,0.0,0.0,0.0,0.0,0.0,0.0,0.0,0.0,0.0,0.0,0.0,0.0,0.0,0.0,0.0,0.0,0.0,0.0,0.0,0.0,0.0,0.0,0.0,0.0,0.0,0.0,0.0,0.0,0.0,0.0,0.0,0.0,0.0,0.0,0.0,0.0,0.0,0.0,0.0,0.0,0.0,0.0,0.0,0.0,0.0,0.0,0.0,0.0,0.0,0.0,0.0,0.0,0.0,0.0,0.0,0.0,0.0,0.0,0.0,0.0,0.0,0.0,0.0,0.0,0.0,0.0,0.0,0.0,0.0,0.0,0.0,0.0,0.0,0.0,0.0,0.0,0.0,0.0,0.0,0.0,0.0,0.0,0.0,0.0,0.9756,1.0203,1.0563,1.0554,1.0723,1.0789,1.0709,1.0533,1.0095,0.9332,0.0,0.0,0.0,0.0,0.0,0.0,0.0,0.0,0.0,0.0,0.0,0.0,0.0,0.0,0.0,0.0,0.0,0.0,0.0,0.0,0.0,0.0,0.0,0.0,0.0,0.0,0.0,0.0,0.0,0.0,0.0,0.0,0.0,0.0,0.0,0.0,0.0,0.0,0.0,0.0,0.0,0.0,0.0,0.0,0.0,0.0,0.0,0.0,0.0,0.0,0.0,0.0,0.0,0.0,0.0,0.0,0.0,0.0,0.0,0.0,0.0,0.0,0.0,0.0,0.0,0.0,0.0,0.0,0.0,0.0,0.0,0.0,0.0,0.0,0.0,0.0,0.0,0.0,0.0,0.0,0.0,0.0,0.0,0.0,0.0,0.0,0.0,0.0,0.0,0.0,0.0,0.0,0.0,0.0,0.0,0.0,0.0,0.0,0.0,0.0,0.0,0.0,1.0842,1.1171,1.1462,1.1485,1.1205,1.11,1.1273,1.0887,1.0376,0.9792,0.0,0.0,0.0,0.0,0.0,0.0,0.0,0.0,0.0,0.0,0.0,0.0,0.0,0.0,0.0,0.0,0.0,0.0,0.0,0.0,0.0,0.0,0.0,0.0,0.0,0.0,0.0,0.0,0.0,0.0,0.0,0.0,0.0,0.0,0.0,0.0,0.0,0.0,0.0,0.0,0.0,0.0,0.0,0.0,0.0,0.0,0.0,0.0,0.0,0.0,0.0,0.0,0.0,0.0,0.0,0.0,0.0,0.0,0.0,0.0,1.2537,1.2174,0.0,0.0,0.0,0.0,0.0,0.0,0.0,0.0,0.0,0.0,0.0,0.0,0.0,0.0,0.0,0.0,0.0,0.0,0.0,0.0,0.0,0.0,0.0,0.0,0.0,0.0,0.0,0.0,0.0,0.0,0.0,0.0,0.0,0.0,0.0,0.0,0.0,0.0,0.0,0.0,1.2122,1.196,1.1959,1.2159,1.1629,1.1251,1.1295,1.1058,1.0703,1.0201,0.9773,0.0,0.0,0.0,0.0,0.0,0.0,0.0,0.0,0.0,0.0,0.0,0.0,0.0,0.0,0.0,0.0,0.0,0.0,0.0,0.0,0.0,0.0,0.0,0.0,0.0,0.0,0.0,0.0,0.0,0.0,0.0,0.0,0.0,0.0,0.0,0.0,0.0,0.0,0.0,0.0,0.0,0.0,0.0,0.0,0.0,0.0,0.0,0.0,0.0,0.0,0.0,0.0,0.0,0.0,0.0,0.0,0.0,0.0,0.0,1.3184,1.2602,0.0,0.0,0.0,0.0,0.0,0.0,0.0,0.0,0.0,0.0,0.0,0.0,0.0,0.0,0.0,0.0,0.0,0.0,0.0,0.0,0.0,0.0,0.0,0.0,0.0,0.0,0.0,0.0,0.0,0.0,0.0,0.0,0.0,0.0,0.0,0.0,0.0,0.0,0.0,0.0,1.2966,1.2787,1.2592,1.2411,1.1736,1.1262,1.1166,1.094,1.066,1.0315,0.986,0.0,0.0,0.0,0.0,0.0,0.0,0.0,0.0,0.0,0.0,0.0,0.0,0.0,0.0,0.0,0.0,0.0,0.0,0.0,0.0,0.0,0.0,0.0,0.0,0.0,0.0,0.0,0.0,0.0,0.0,0.0,0.0,0.0,0.0,0.0,0.0,0.0,0.0,0.0,0.0,0.0,0.0,0.0,0.0,0.0,0.0,0.0,0.0,0.0,0.0,0.0,0.0,0.0,1.5652,1.5733,1.5651,1.595,1.6045,1.5918,1.4285,1.3472,1.3269,1.3003,0.0,0.0,0.0,0.0,0.0,0.0,0.0,0.0,0.0,0.0,0.0,0.0,0.0,0.0,0.0,0.0,0.0,0.0,0.0,0.0,0.0,0.0,1.6655,1.6193,1.6502,1.6664,1.5782,0.0,0.0,0.0,0.0,0.0,0.0,0.0,0.0,0.0,0.0,0.0,1.3697,1.3621,1.3317,1.2657,1.1919,1.1369,1.109,1.0854,1.0628,1.0369,0.9958,0.9581,0.0,0.0,0.0,0.0,0.0,0.0,0.0,0.0,0.0,0.0,0.0,0.0,0.0,0.0,0.0,0.0,0.0,0.0,0.0,0.0,0.0,0.0,0.0,0.0,0.0,0.0,0.0,0.0,0.0,0.0,0.0,0.0,1.4983,1.4983,0.0,0.0,0.0,0.0,0.0,0.0,0.0,0.0,0.0,0.0,0.0,0.0,0.0,1.5549,1.5476,1.6184,1.6278,1.5752,1.7036,1.743,1.7041,1.7075,1.7288,1.757,1.6974,0.0,1.5227,1.5306,0.0,0.0,0.0,0.0,0.0,0.0,0.0,0.0,0.0,0.0,0.0,0.0,0.0,0.0,0.0,0.0,0.0,0.0,0.0,0.0,0.0,0.0,1.8388,1.8702,1.8852,1.8878,1.873,1.6918,1.5185,1.4742,1.4931,1.49,0.0,0.0,0.0,0.0,0.0,0.0,1.4688,1.4444,1.4002,1.3338,1.2657,1.1993,1.1316,1.123,1.1026,1.0586,1.0337,1.0012,0.9569,0.9301,0.0,0.0,0.0,0.0,0.0,0.0,0.0,0.0,0.0,0.0,0.0,0.0,0.0,0.0,0.0,0.0,0.0,0.0,0.0,0.0,0.0,0.0,0.0,0.0,0.0,0.0,0.0,0.0,0.0,1.5908,1.6077,1.5856,1.6113,1.6157,0.0,0.0,0.0,0.0,0.0,0.0,0.0,0.0,0.0,1.6955,1.7161,1.7497,1.7966,1.8311,1.8449,1.8381,1.9038,1.9236,1.9035,1.9027,1.9143,1.9302,1.9269,1.8894,1.8228,1.7179,1.6276,1.5469,0.0,0.0,0.0,0.0,1.52,1.546,1.6386,1.6712,1.6667,1.6397,0.0,0.0,0.0,0.0,0.0,0.0,0.0,1.8063,1.8256,1.8644,1.9092,1.9522,1.9453,1.9365,1.959,1.8743,1.7619,1.6531,1.6462,1.6114,1.4648,1.4724,0.0,0.0,0.0,1.4769,1.4885,1.4607,1.4139,1.3466,1.2807,1.2101,1.1359,1.1198,1.1047,1.0842,1.0498,1.0132,0.9787,0.9549,0.9387,0.0,0.0,0.0,0.0,0.0,0.0,0.0,0.0,0.0,0.0,0.0,0.0,0.0,0.0,0.0,0.0,0.0,0.0,0.0,0.0,0.0,0.0,0.0,0.0,0.0,0.0,0.0,0.0,1.6903,1.7135,1.6979,1.7208,1.7247,0.0,0.0,0.0,0.0,0.0,0.0,1.8047,1.8055,1.827,1.8737,1.8758,1.9152,1.996,1.9951,2.01,2.0404,2.0507,2.0578,2.0578,2.0578,2.064,2.0756,2.0827,2.0797,2.056,1.8859,1.7814,1.7224,1.6578,1.6196,1.607,1.6386,1.6704,1.716,1.8138,1.8471,1.8405,1.7898,1.7664,1.7389,1.6282,0.0,0.0,0.0,0.0,1.9325,1.9423,1.9453,1.9551,1.998,1.9853,1.9716,2.0019,1.9971,1.9511,1.8216,1.8042,1.7488,1.5527,1.5637,0.0,1.4401,1.4613,1.4929,1.5017,1.4808,1.4331,1.3487,1.2956,1.2294,1.1381,1.1166,1.1047,1.0993,1.067,1.0358,1.0081,0.9938,0.9871,0.9906,0.0,0.0,0.0,0.0,0.0,0.0,0.0,0.0,0.0,0.0,0.0,0.0,0.0,0.0,0.0,0.0,0.0,0.0,0.0,0.0,0.0,0.0,0.0,0.0,0.0,0.0,0.0,0.0,0.0,1.8416,1.8398,0.0,0.0,0.0,0.0,1.8294,1.8356,1.8563,1.9007,1.9027,1.9235,1.972,1.972,1.9939,2.0372,2.0372,2.0392,2.0413,2.0847,2.1054,2.1054,2.1054,2.1312,2.1714,2.1272,2.1211,2.1369,2.038,1.9425,1.8558,1.8132,1.7551,1.7025,1.7805,1.8092,1.8239,1.8985,1.9232,1.929,1.9642,1.9505,1.9173,1.9088,1.8817,0.0,0.0,1.924,1.9384,1.9776,1.9873,2.0,2.0449,2.0556,2.0537,2.0556,2.0205,1.9757,1.9299,1.9515,1.9146,1.7129,0.0,1.6393,1.5058,1.4885,1.5017,1.5334,1.5371,1.4849,1.354,1.337,1.2785,1.1424,1.1284,1.1198,1.1004,1.0982,1.0842,1.0575,1.0565,1.0614,1.0732,1.0739,0.0,0.0,0.0,0.0,0.0,0.0,0.0,0.0,0.0,0.0,0.0,0.0,0.0,0.0,0.0,0.0,0.0,0.0,0.0,0.0,0.0,0.0,0.0,0.0,0.0,0.0,0.0,0.0,1.9373,1.9567,0.0,1.9403,1.977,2.0093,2.0249,2.0515,2.0671,2.0715,2.0389,2.0334,2.0635,2.0647,2.0845,2.1291,2.1302,2.1302,2.1302,2.1477,2.156,2.156,2.156,2.1643,2.1788,2.1622,2.1605,2.1662,2.1323,2.0671,1.9853,1.9752,1.9514,1.9286,1.9623,1.9911,2.0146,2.0269,2.0336,2.0278,1.9989,1.9629,1.9306,1.9306,1.9366,1.9474,1.9639,1.9892,2.0165,2.0312,2.0351,2.039,2.0556,2.0605,2.0605,2.0605,2.0478,2.0312,2.0156,2.0009,1.9259,1.7255,1.7288,1.6997,1.5177,1.5075,1.525,1.5377,1.5392,1.5058,1.4142,1.3656,1.302,1.209,1.1575,1.1273,1.1198,1.1069,1.1158,1.1493,1.1372,1.1605,1.2264,1.2283,1.2117,0.0,0.0,0.0,0.0,0.0,0.0,0.0,0.0,0.0,0.0,0.0,0.0,0.0,0.0,0.0,0.0,0.0,0.0,0.0,0.0,0.0,0.0,0.0,0.0,0.0,1.9974,2.0388,2.0308,2.0502,2.0611,2.0581,2.1152,2.1643,2.2021,2.2288,2.2338,2.2076,2.159,2.1321,2.134,2.1178,2.1332,2.1797,2.1788,2.1788,2.1788,2.1788,2.1788,2.1788,2.1788,2.1788,2.1788,2.1788,2.177,2.1713,2.1713,2.1319,2.0744,2.0867,2.0828,2.0725,2.0716,2.0868,2.107,2.0955,2.1118,2.1336,2.0889,2.0502,2.0206,2.0206,2.0184,2.0146,2.0146,2.0351,2.0605,2.0605,2.0605,2.0605,2.0605,2.0605,2.0605,2.0605,2.0605,2.0605,2.0605,2.0351,1.9621,1.7996,1.7869,1.7429,1.5767,1.5442,1.5392,1.5392,1.5392,1.5142,1.4465,1.4005,1.3381,1.2486,1.1951,1.1564,1.1316,1.1166,1.1407,1.211,1.1698,1.2014,1.3172,1.3218,1.3298,1.3447,0.0,0.0,0.0,0.0,0.0,0.0,0.0,0.0,0.0,0.0,0.0,0.0,0.0,0.0,0.0,0.0,0.0,0.0,0.0,0.0,0.0,0.0,0.0,2.0556,2.0465,2.0709,2.1279,2.1253,2.1455,2.2087,2.2074,2.2445,2.3488,2.3557,2.3417,2.31,2.2624,2.2225,2.1892,2.1428,2.1397,2.1826,2.1846,2.1816,2.1788,2.1788,2.1788,2.1788,2.1788,2.1788,2.1788,2.1788,2.1683,2.1522,2.1522,2.1397,2.1234,2.1436,2.1378,2.1186,2.0993,2.0935,2.0974,2.0974,2.1616,2.2435,2.2407,2.2226,2.2047,2.1981,2.1346,2.0654,2.0625,2.0615,2.0605,2.0605,2.0605,2.0605,2.0605,2.0605,2.0605,2.0605,2.0605,2.0605,2.0605,2.0605,2.0323,1.9441,1.8569,1.7705,1.6831,1.5969,0.0,1.5392,1.5392,1.5142,1.4465,1.437,1.3833,1.2539,1.2412,1.2101,1.1413,1.137,1.1704,1.2433,1.1586,1.1853,1.3427,1.3515,1.4109,1.5287,0.0,0.0,0.0,0.0,0.0,0.0,0.0,0.0,0.0,0.0,0.0,0.0,0.0,0.0,0.0,0.0,0.0,0.0,0.0,0.0,0.0,2.1858,2.1991,2.1807,2.2104,2.241,2.26,2.2965,2.3287,2.3474,2.4156,2.4706,2.5008,2.5033,2.4912,2.468,2.4176,2.3768,2.348,2.335,2.3084,2.2675,2.2675,2.2374,2.1788,2.1788,2.1788,2.1788,2.1788,2.1788,2.1788,2.1788,2.1759,2.1711,2.1711,2.1694,2.1637,2.1541,2.1474,2.1436,2.1522,2.1835,2.2221,2.2221,2.265,2.3084,2.2348,2.2563,2.2852,2.1586,2.1529,2.1775,2.1195,2.0935,2.0819,2.0819,2.0702,2.0605,2.0605,2.0605,2.0605,2.0605,2.0605,2.0605,2.0605,2.0605,2.0323,1.9441,1.8569,1.7705,1.6831,1.5969,1.5392,1.5392,1.5392,1.5142,1.4465,1.3973,1.3529,1.3158,1.2679,1.2519,1.2796,1.2817,1.3137,1.3823,1.3597,1.3895,1.4828,1.4442,1.4524,0.0,0.0,0.0,0.0,0.0,0.0,0.0,0.0,0.0,0.0,0.0,0.0,0.0,0.0,0.0,0.0,0.0,0.0,0.0,0.0,0.0,0.0,2.3193,2.3361,2.3361,2.3195,2.3195,2.3454,2.3795,2.418,2.464,2.5234,2.5686,2.5954,2.5979,2.5782,2.5326,2.4994,2.4604,2.4117,2.409,2.3895,2.3469,2.3146,2.2768,2.2299,2.1959,2.1788,2.1788,2.1788,2.1788,2.1788,2.1788,2.1788,2.1826,2.2157,2.2101,2.1778,0.0,0.0,0.0,0.0,2.2585,2.3158,2.3158,2.3635,2.4154,2.358,2.3727,2.3936,2.292,2.251,2.2304,2.1824,2.1367,2.1042,2.1042,2.0877,2.0732,2.0732,2.0654,2.0605,2.0605,2.0605,2.0605,2.0605,2.0605,0.0,1.9942,1.8818,1.7826,1.732,1.618,1.5392,1.5392,1.5392,1.5246,1.4856,1.4468,1.4121,1.3847,1.3453,0.0,0.0,0.0,1.352,1.3795,1.4338,0.0,0.0,0.0,0.0,0.0,1.6267,0.0,0.0,1.6774,1.6868,0.0,0.0,0.0,0.0,0.0,0.0,0.0,0.0,0.0,0.0,0.0,0.0,0.0,0.0,0.0,0.0,2.4656,2.5034,2.5029,2.4105,2.3571,2.4037,2.413,2.4556,2.5519,2.567,2.5929,2.6449,2.6508,2.6181,2.5458,2.5447,0.0,0.0,0.0,2.4271,2.409,2.3543,2.3178,2.2992,2.2365,2.2025,2.193,2.193,2.1883,2.1788,2.1788,2.1788,2.1854,2.2572,2.2506,2.193,2.193,2.1987,2.2129,2.266,2.3368,2.4064,2.4064,0.0,0.0,2.5468,2.5388,2.5308,2.512,2.4054,2.2876,2.2688,2.2114,2.152,2.1424,2.124,2.1084,2.1084,2.0928,2.0771,2.0713,2.0693,2.0654,2.0615,2.0605,2.0615,2.0654,1.9182,1.7997,1.7997,1.652,1.5392,1.5392,1.5392,1.5361,1.5298,1.5288,0.0,1.4444,1.4391,1.4171,1.3656,1.3625,1.3519,1.3278,1.4443,1.5212,1.5458,1.6083,1.7331,1.9227,1.8803,1.905,1.9855,1.7726,1.7853,0.0,0.0,0.0,0.0,0.0,0.0,0.0,0.0,0.0,0.0,0.0,0.0,0.0,0.0,0.0,2.5356,2.6045,2.6469,2.6343,2.5719,2.513,2.4713,2.5025,2.536,2.5586,2.6038,2.6373,2.6483,2.6508,2.6439,2.6292,2.6259,2.6198,2.6042,2.6042,2.5399,2.4108,2.4591,2.4227,2.301,2.3447,0.0,2.2768,2.2768,2.2412,2.1788,2.1788,2.1788,2.1807,2.1959,2.2318,2.2768,2.2768,2.3137,2.3663,2.3781,2.4603,2.5653,2.5653,2.6478,2.7426,2.6615,2.6864,2.7243,2.5822,2.5708,0.0,2.4465,2.3861,2.3459,2.2755,2.2423,2.2271,2.2271,2.2089,2.1797,2.1491,2.1243,2.0986,2.0664,2.0605,2.0703,2.1035,1.9364,1.7997,1.7997,1.652,1.5392,1.5392,1.5392,1.5194,1.4657,1.4594,1.4541,1.4402,1.4391,1.4583,1.4995,1.5006,1.4988,1.4937,1.5852,1.6379,1.6424,1.7225,1.8013,1.8748,1.8637,1.905,1.9883,1.9101,1.9324,0.0,0.0,0.0,0.0,0.0,0.0,0.0,0.0,0.0,0.0,0.0,2.3601,2.4452,0.0,2.6085,2.6558,2.7231,2.7433,2.6698,2.663,2.6288,2.5316,2.5435,2.572,2.603,2.6323,2.6508,2.6508,2.6508,2.6508,2.6508,2.6508,2.6508,2.6508,2.6508,2.612,2.5302,2.4895,2.4501,2.4145,2.4007,2.3729,2.336,2.3629,2.3277,2.253,2.2969,2.3151,2.319,2.3633,2.4486,2.5516,2.5103,2.5006,2.513,2.5402,2.6183,2.7099,2.7099,2.7553,2.8015,2.7496,2.7687,2.7941,2.7074,2.6552,2.6083,2.5276,2.4399,2.3606,2.3164,2.289,2.2727,2.2574,2.2369,2.2125,2.1826,2.1716,2.1606,2.131,2.1341,2.143,2.1534,2.0301,1.9131,1.8635,1.7433,1.6437,1.5956,1.5739,1.5524,1.5191,1.4997,1.4898,1.4898,1.4898,1.5048,1.5371,1.5392,1.56,1.6041,1.6463,1.7117,1.7977,1.8429,1.8956,1.96,1.96,2.0024,2.0851,2.0639,2.0992,0.0,0.0,0.0,0.0,0.0,0.0,0.0,2.2148,2.3348,2.3201,2.4412,2.5845,2.6864,2.7255,2.7542,2.7847,2.846,2.8476,2.7263,2.7429,2.7281,2.6096,2.5862,2.5979,2.6449,2.6508,2.6508,2.6508,2.6508,2.6508,2.6508,2.6608,2.6659,2.6659,2.6751,2.6644,2.6337,2.5179,2.4877,2.5352,2.4689,2.4374,2.4349,2.4767,2.4498,2.3737,2.4439,2.4753,2.4822,2.5676,2.675,2.7831,2.7452,2.7028,2.6694,2.7013,2.7607,2.8263,2.8263,2.8339,2.8423,2.8423,2.8423,2.8423,2.8423,2.7365,2.6126,2.5942,2.4843,2.3667,2.3504,2.333,2.3155,2.2929,2.2723,2.2526,2.228,2.2323,2.2304,2.2018,2.2092,2.2153,2.2034,2.142,2.0534,1.9288,1.8359,1.7464,1.6514,1.6166,1.6009,1.6009,1.5764,1.5563,1.5494,1.5446,1.5392,1.5392,1.5558,1.5979,1.6668,1.7035,1.7866,1.9263,1.946,1.9912,2.0605,2.076,2.1174,2.1803,2.2115,2.2604,2.0526,2.1192,2.2132,2.2614,2.2501,2.268,0.0,2.3891,2.3804,2.5229,2.6143,2.6883,2.7507,2.8547,2.9306,2.9361,2.9931,3.01,2.9373,2.874,2.8101,2.7384,2.6765,2.6424,2.6483,2.6508,2.6508,2.6508,2.6508,2.6508,2.6508,2.6943,2.7211,2.7211,2.767,2.7219,2.572,2.6231,2.6184,2.5568,2.6174,2.6481,2.6537,2.6608,2.6216,2.5502,2.5608,2.5647,2.5714,2.6463,2.6876,2.713,2.826,2.865,2.8525,2.8119,2.8306,2.8797,2.8797,2.9167,2.9603,2.9603,2.9603,2.9603,2.9603,2.8934,2.8005,2.717,2.6254,2.5344,2.4565,2.4331,2.431,2.4278,2.4118,2.3856,2.3417,2.32,2.2922,2.2294,2.2184,2.2251,2.2414,2.2357,2.1566,1.9418,1.8359,1.7464,1.6514,1.6378,1.6338,1.6338,1.6309,1.6166,1.5866,1.5578,1.5392,1.5392,1.6129,1.6596,1.6698,1.8188,1.9094,1.9292,2.0069,2.0508,2.0605,2.1328,2.1699,2.1822,2.3204,2.3882,2.1612,2.2494,2.3377,2.3285,2.3594,2.3924,2.3994,2.4716,2.559,2.632,2.7551,2.8645,2.9283,2.9829,3.0039,2.9661,2.9839,2.9638,2.8535,2.8114,2.767,2.6994,2.6958,2.6842,2.6524,2.6508,2.6508,2.6508,2.6801,2.6968,2.6968,2.7478,2.7779,2.7779,2.7971,2.7776,2.705,2.6914,2.6914,2.7065,2.728,2.7368,2.7329,2.7671,2.7651,2.7382,2.7382,2.7655,2.8144,2.8461,2.8595,2.8649,2.9203,2.9418,2.9393,2.9176,2.9227,2.9418,2.9418,2.9603,2.9814,2.9814,2.9814,2.9814,2.9814,2.9189,2.841,2.8031,2.6894,2.5714,2.5348,2.4871,2.4475,2.4357,2.426,2.4091,2.3758,2.3739,2.3615,2.3062,2.3054,2.3082,2.2884,2.2839,2.2339,2.0829,1.9794,1.885,1.7927,1.715,1.6624,1.6422,1.6408,1.6338,1.6195,1.6063,1.6116,1.644,1.6797,1.7349,1.8185,1.8915,1.9529,2.0059,2.0411,2.0605,2.0605,2.1414,2.204,2.2529,2.3919,2.4825,2.2561,2.3591,2.4507,2.4121,2.4648,2.5087,2.4419,2.5581,2.6905,2.7314,2.8562,2.9856,3.0691,3.0844,3.0692,3.0195,2.997,2.9422,2.8254,2.7736,2.7374,2.7037,2.7191,2.7219,2.6968,2.6943,2.6943,2.6943,2.7311,2.7528,2.7528,2.8021,2.8304,2.8304,2.8489,2.8437,2.8213,2.7619,2.7628,2.8204,2.8051,2.8058,2.8217,2.841,2.8633,2.8841,2.8603,2.8978,2.9814,2.9814,2.9814,2.9814,2.9814,2.9814,2.9814,2.9814,2.9814,2.9814,2.9814,2.9814,2.9814,2.9814,2.9814,2.9814,2.9814,2.9023,2.8111,2.8111,2.6812,2.5442,2.5442,2.4967,2.4454,2.4325,2.4292,2.4239,2.4035,2.4143,2.4174,2.3765,2.3808,2.3776,2.3363,2.3254,2.2991,2.2312,2.1286,2.0172,1.8952,1.7754,1.6924,1.6664,1.6572,1.6539,1.6539,1.6695,1.69,1.7191,1.7675,1.835,1.9251,1.9538,1.9971,2.0586,2.0605,2.0781,2.1152,2.1932,2.2814,2.3777,2.4926,2.575,2.3317,2.4496,2.5838,2.5831,2.5859,2.6015,2.6578,2.6748,2.7152,2.8387,2.916,2.9994,3.1241,3.1481,3.1473,3.1458,3.0897,3.0251,2.9629,2.8366,2.768,2.8195,2.7692,2.7503,2.7987,2.8037,2.8037,2.8037,2.8072,2.8072,2.8072,2.8571,2.8872,2.8872,2.9443,2.9335,2.8505,2.8452,2.8452,2.8505,2.8476,2.8915,2.9696,2.888,2.8949,2.9702,2.886,2.8978,2.9814,2.9814,2.9814,2.9814,2.9814,2.9814,2.9814,2.9814,2.9814,2.9814,2.9814,2.9814,2.9814,2.9814,2.9814,2.9814,2.9814,2.8564,2.7129,2.7129,2.5883,2.4529,2.4529,2.4508,2.4507,2.4497,2.4497,2.4497,2.4486,2.4497,2.4432,2.4217,2.4185,2.4109,2.383,2.3613,2.3472,2.3439,2.2422,2.095,1.9044,1.7917,1.7288,1.7261,1.703,1.6888,1.6888,1.742,1.7599,1.7223,1.8852,1.9664,1.9301,2.0118,2.0576,2.0605,2.0605,2.1231,2.2538,2.327,2.4317,2.5643,2.6463,2.6855,2.4327,2.5118,2.601,2.64,2.6494,2.654,2.6761,2.7111,2.7627,2.8507,2.9174,2.9885,3.0749,3.1228,3.151,3.151,3.0873,3.031,3.0091,2.8811,2.7969,2.8164,2.8284,2.843,2.8605,2.8314,2.8088,2.8088,2.843,2.8631,2.8631,2.9192,2.9503,2.9503,2.9679,2.9653,2.9356,2.9356,2.9356,2.9356,2.9356,2.9527,2.9804,2.9507,2.9527,2.9769,2.9497,2.9726,3.0322,3.0322,3.0532,3.0869,3.0869,3.0869,3.0869,3.0869,3.0869,3.0768,3.004,2.9814,2.9814,2.9814,2.9814,2.9814,2.9814,2.8983,2.8031,2.8031,2.674,2.5358,2.5358,2.4924,2.4507,2.4507,2.4507,2.4507,2.4507,2.4507,2.4443,2.4249,2.4206,2.412,2.3851,2.3624,2.3439,2.3265,2.2367,2.1226,1.99,1.8883,1.8299,1.8299,1.7618,1.7442,1.8095,1.8351,1.8846,1.9732,2.0356,2.0794,2.1018,2.1313,2.1466,2.1466,2.1466,2.1979,2.2995,2.3777,2.4695,2.5727,2.6889,2.7435,2.4947,2.5595,2.6313,2.6686,2.6807,2.6865,2.7055,2.7419,2.7963,2.8855,2.9341,2.9885,3.0749,3.1228,3.1568,3.1829,3.0978,3.0301,3.0301,2.9036,2.8163,2.8355,2.8696,2.8972,2.9208,2.8916,2.8699,2.8699,2.9016,2.9208,2.9208,2.9603,2.9814,2.9814,2.9814,2.9814,2.9814,2.9814,2.9814,2.9814,2.998,3.008,3.0071,2.9975,3.0079,3.0347,3.005,3.0288,3.0884,3.0884,3.1085,3.1396,3.1396,3.1396,3.1396,3.1396,3.1396,3.1296,3.0618,3.0366,3.0366,3.0366,3.0366,3.0366,3.0366,2.9521,2.8566,2.8566,2.7262,2.583,2.583,2.5409,2.5004,2.5004,2.5004,2.5004,2.5004,2.5004,2.4961,2.484,2.4807,2.472,2.4456,2.4018,2.3573,2.3164,2.2588,2.185,2.0861,1.99,1.9296,1.9296,1.8711,1.8596,1.925,1.9627,2.0198,2.105,2.141,2.1691,2.1884,2.1905,2.1905,2.1905,2.2215,2.289,2.3908,2.4751,2.5671,2.672,2.7572,2.7998,2.5241,2.592,2.6807,2.6807,2.6807,2.6946,2.7557,2.7724,2.8101,2.9349,2.9617,3.0023,3.122,3.151,3.1756,3.2325,3.1296,3.0393,3.0331,2.9087,2.8389,2.8897,2.8947,2.9157,2.9729,2.9814,2.9814,2.9814,2.9814,2.9814,2.9814,2.9814,2.9814,2.9814,2.9839,2.9839,2.9839,2.9864,2.988,2.9889,3.0397,3.0638,3.0643,3.0297,3.0611,3.1345,3.0528,3.0646,3.1446,3.1446,3.1472,3.1497,3.1497,3.1497,3.1497,3.1497,3.1497,3.1497,3.1497,3.1446,3.1396,3.1396,3.1396,3.1386,3.1345,3.0087,2.8687,2.8644,2.7305,2.5897,2.5897,2.5897,2.5897,2.5897,2.5897,2.5897,2.5897,2.5897,2.5897,2.5897,2.5897,2.5807,2.5544,2.4781,2.394,2.3284,2.3192,2.2843,2.1902,2.0905,2.0286,2.0286,2.024,2.0229,2.0274,2.1141,2.1552,2.1217,2.2028,2.2363,2.1983,2.1963,2.1963,2.1963,2.2767,2.3859,2.5235,2.6062,2.7185,2.8536,2.8536,2.8561,2.6266,2.6563,2.6807,2.6807,2.6807,2.6946,2.7557,2.8093,2.8652,2.9443,3.0009,3.0437,3.0786,3.1613,3.211,3.1675,3.1616,3.1424,3.0827,2.9935,2.9412,2.9553,2.9569,2.9628,2.9789,2.9814,2.9814,2.9814,2.9814,2.9814,2.9814,2.9814,2.9814,2.9814,3.0181,3.0397,3.0397,3.0783,3.0994,3.0994,3.1135,3.1195,3.1185,3.1121,3.1192,3.1386,3.1171,3.1416,3.2003,3.2003,3.2265,3.2663,3.2663,3.2663,3.2663,3.2663,3.2663,3.2663,3.2663,3.21,3.1396,3.1396,3.1396,3.1274,3.0583,2.9571,2.8547,2.7787,2.6773,2.5897,2.5897,2.5897,2.5897,2.5897,2.5897,2.5897,2.5897,2.5897,2.5897,2.5897,2.5897,2.5839,2.561,2.5392,2.5013,2.4451,2.4374,2.3969,2.2874,2.1906,2.1327,2.1327,2.0658,2.05,2.1242,2.155,2.1957,2.2544,2.2806,2.2897,2.281,2.278,2.278,2.278,2.3017,2.3955,2.5644,2.5872,2.7057,2.91,2.91,2.9316,2.6709,2.699,2.7258,2.7562,2.762,2.7794,2.8398,2.8812,2.9203,2.953,3.0132,3.0503,3.0227,3.0944,3.159,3.1682,3.1592,3.1466,3.1282,3.0621,3.0055,2.9839,3.0005,3.0156,3.0156,3.0156,3.0156,3.0156,2.993,2.9814,2.9814,2.9814,2.9914,3.0146,3.0447,3.0713,3.0959,3.1246,3.1396,3.1396,3.1637,3.1763,3.1763,3.2035,3.216,3.216,3.216,3.2326,3.2591,3.2591,3.2803,3.309,3.309,3.309,3.309,3.309,3.309,3.309,3.309,3.2688,3.216,3.216,3.216,3.1982,3.0992,3.0064,2.9155,2.813,2.7222,2.6498,2.6498,2.6498,2.6498,2.6498,2.6498,2.6498,2.6498,2.6498,2.6498,2.6498,2.6426,2.6237,2.5917,2.577,2.5537,2.506,2.4882,2.4566,2.3938,2.3287,2.2874,2.2874,2.2379,2.2265,2.284,2.2874,2.3118,2.3635,2.3677,2.3677,2.3677,2.3677,2.3881,2.4317,2.4726,2.5656,2.7112,2.7514,2.8365,2.9653,2.9653,2.9807,2.6912,2.7362,2.7963,2.855,2.8702,2.8869,2.945,2.953,2.9501,2.9588,2.9979,3.0187,2.9659,3.0035,3.0731,3.183,3.1395,3.1083,3.1581,3.112,3.0522,3.0065,3.0422,3.0698,3.0698,3.0698,3.0698,3.0698,3.0281,2.998,2.9905,2.9914,3.0171,3.0789,3.0814,3.1075,3.1622,3.1622,3.1622,3.1622,3.2089,3.2305,3.234,3.2853,3.309,3.309,3.309,3.309,3.309,3.309,3.309,3.309,3.309,3.309,3.309,3.309,3.314,3.3215,3.3215,3.3266,3.3291,3.314,3.3004,3.2698,3.1713,3.0744,2.9806,2.8848,2.8,2.738,2.738,2.738,2.736,2.7297,2.7297,2.7297,2.7297,2.7297,2.7297,2.7297,2.7107,2.6817,2.6431,2.6159,2.5874,2.5479,2.52,2.5038,2.5038,2.4654,2.4402,2.4402,2.4402,2.4402,2.4402,2.4402,2.4402,2.4402,2.4402,2.4402,2.4402,2.4402,2.4865,2.5879,2.6696,2.7667,2.8785,2.9555,3.0015,3.0203,3.0203,3.024,2.7452,2.7969,2.855,2.8666,2.8702,2.8869,2.945,2.9196,2.9007,2.9501,2.9255,2.9064,2.9382,2.9927,3.0476,3.0967,3.1337,3.151,3.1473,3.1327,3.122,3.112,3.1195,3.1271,3.1271,3.1271,3.1271,3.1271,3.117,3.0944,3.0472,3.0472,3.0899,3.1903,3.1928,3.2215,3.2813,3.2813,3.2813,3.2813,3.2914,3.2928,3.2964,3.3065,3.309,3.309,3.309,3.309,3.309,3.309,3.309,3.309,3.309,3.309,3.309,3.309,3.338,3.3746,3.3746,3.4048,3.4288,3.338,3.2536,3.168,3.0722,2.9749,2.8835,2.8205,2.7921,2.7788,2.7788,2.7788,2.7705,2.738,2.7297,2.7297,2.7297,2.7297,2.7297,2.7297,2.7262,2.7205,2.7123,2.7067,2.6939,2.6652,2.6382,2.6215,2.6215,2.5145,2.4402,2.4402,2.4402,2.4402,2.4402,2.4402,2.4402,2.4402,2.4402,2.4402,2.4402,2.4402,2.4865,2.5879,2.6059,2.6985,2.8719,2.8924,2.9618,3.0756,3.0756,3.1008,2.7131,2.7629,2.8193,2.8517,2.8872,2.9079,2.8708,2.8661,2.8488,2.7814,2.793,2.8103,2.8014,2.8687,2.9389,2.9856,3.0085,3.0416,3.0909,3.0984,3.1085,3.1371,3.1637,3.1813,3.1813,3.1813,3.1813,3.1813,3.1572,3.1296,3.1035,3.1275,3.1677,3.2179,3.2516,3.2803,3.309,3.309,3.309,3.309,3.309,3.309,3.309,3.309,3.309,3.309,3.309,3.309,3.3115,3.3406,3.3506,3.3556,3.3822,3.3922,3.3922,3.3922,3.4098,3.4313,3.4313,3.4477,3.4614,3.4098,3.3231,3.2101,3.0612,2.9811,2.9269,2.8484,2.8251,2.8251,2.8251,2.8251,2.8222,2.8007,2.7978,2.7978,2.7978,2.7978,2.7978,2.7978,2.7978,2.7978,2.7978,2.7978,2.7929,2.7795,2.7268,2.685,2.685,2.5832,2.5121,2.5275,2.5157,2.5074,2.5074,2.5074,2.5074,2.5074,2.5074,2.5074,2.5074,2.5074,2.5809,2.7332,2.7345,2.8331,3.0248,3.0566,3.1071,3.1732,3.2021,3.2297,2.7032,2.7495,2.8083,2.8549,2.9017,2.9088,2.8091,2.808,2.7857,2.6395,2.6722,2.7182,2.69,2.753,2.8291,2.8954,2.9078,2.9484,3.0613,3.0974,3.1286,3.1698,3.224,3.2505,3.2405,3.239,3.239,3.239,3.1989,3.1698,3.1572,3.2089,3.239,3.239,3.2853,3.309,3.309,3.309,3.309,3.309,3.309,3.309,3.309,3.3215,3.3266,3.3291,3.338,3.3431,3.3481,3.3897,3.4073,3.4112,3.4539,3.4703,3.4703,3.4703,3.4778,3.4879,3.4879,3.4954,3.5031,3.4814,3.3994,3.285,3.1256,3.047,2.998,2.9285,2.8928,2.876,2.876,2.876,2.8719,2.8616,2.8595,2.8595,2.8595,2.8595,2.8595,2.8595,2.8595,2.8595,2.8595,2.8595,2.8595,2.8595,2.7921,2.7425,2.7487,2.6717,2.6285,2.6514,2.6126,2.5854,2.5854,2.5932,2.5979,2.5979,2.5979,2.5979,2.5979,2.6192,2.7161,2.8951,2.9232,3.025,3.2043,3.2478,3.2659,3.2683,3.3103,3.3296,2.8133,2.8625,2.915,2.9204,2.8915,2.858,2.8462,2.7643,2.6835,2.6666,2.6244,2.618,2.7159,2.7361,2.7727,2.8749,2.9365,3.008,3.116,3.2225,3.2889,3.2939,3.3431,3.3545,3.3054,3.3014,3.3014,3.3014,3.2964,3.2702,3.2154,3.2702,3.3014,3.3014,3.3065,3.309,3.309,3.309,3.309,3.309,3.309,3.309,3.3115,3.3607,3.3822,3.3847,3.4338,3.4552,3.4564,3.4614,3.4628,3.4628,3.4678,3.4703,3.4703,3.4703,3.5018,3.5433,3.5433,3.5794,3.6077,3.5113,3.4112,3.3246,3.306,3.1686,3.0258,3.0594,2.9994,2.9249,2.9249,2.9249,2.9145,2.8698,2.8595,2.8595,2.8595,2.8595,2.8595,2.8595,2.8595,2.8595,2.8595,2.8595,2.8595,2.8595,2.8316,2.8208,2.8433,2.8012,2.7779,2.7964,2.7005,2.634,2.634,2.6667,2.6882,2.6882,2.6882,2.6882,2.6882,2.7814,2.885,2.9942,3.0976,3.2066,3.3151,3.32,3.3224,3.3224,3.3272,3.3296,2.8083,2.838,2.8575,2.8575,2.8725,2.8581,2.7545,2.7246,2.6863,2.5787,2.5606,2.5788,2.6221,2.6578,2.7069,2.783,2.8131,2.891,3.0683,3.1311,3.2089,3.3431,3.3771,3.3822,3.3607,3.3581,3.3467,3.3115,3.309,3.2989,3.2742,3.2964,3.309,3.309,3.309,3.309,3.309,3.309,3.3266,3.3581,3.3581,3.3757,3.4073,3.4288,3.4388,3.4377,3.4614,3.4703,3.4728,3.5043,3.5193,3.5218,3.5579,3.5716,3.5716,3.5716,3.5867,3.6031,3.6031,3.6205,3.6227,3.5162,3.4978,3.4908,3.3635,3.2213,3.1077,3.1274,3.0559,2.9725,2.9725,2.9725,2.9684,2.9497,2.9435,2.9435,2.9435,2.9435,2.9435,2.9435,2.9435,2.9435,2.9435,2.9435,2.9435,2.9435,2.8957,2.8658,2.878,2.8264,2.7933,2.8013,2.7595,2.7307,2.7307,2.7453,2.7553,2.7553,2.7553,2.7553,2.7553,2.795,2.8873,3.0363,3.0979,3.1982,3.3469,3.3971,3.4187,3.4223,3.454,3.4686,2.8188,2.8339,2.8339,2.8339,2.8444,2.8252,2.7015,2.6841,2.6572,2.5307,2.5335,2.5644,2.582,2.6214,2.6625,2.6993,2.7453,2.8323,2.9885,3.0663,3.1602,3.2993,3.3456,3.3657,3.3657,3.3807,3.3682,3.314,3.309,3.3165,3.333,3.3341,3.3266,3.3115,3.309,3.319,3.3341,3.3341,3.3607,3.4137,3.4137,3.4338,3.4703,3.4867,3.4942,3.4942,3.5116,3.5203,3.5216,3.5618,3.5757,3.5819,3.623,3.6393,3.6393,3.6393,3.6393,3.6393,3.6393,3.6393,3.6287,3.5523,3.5775,3.6133,3.4593,3.3188,3.2018,3.17,3.0824,2.9994,2.9994,2.9994,2.9994,2.9994,2.9994,2.9994,2.9994,2.9994,2.9994,2.9994,2.9994,2.9994,2.9994,2.9994,2.9994,2.9994,2.9549,2.9227,2.9227,2.8806,2.8495,2.8418,2.8406,2.8307,2.8096,2.8184,2.8226,2.8137,2.8137,2.8098,2.8021,2.8309,2.9089,3.0361,3.1174,3.2206,3.3469,3.452,3.5026,3.5051,3.5588,3.5832,2.8756,2.8897,2.8897,2.8897,2.8097,2.732,2.7286,2.6423,2.5619,2.5594,2.5594,2.577,2.6373,2.6508,2.6508,2.6508,2.7846,2.8897,2.8922,3.0814,3.1978,3.1497,3.2411,3.3115,3.3115,3.3581,3.3682,3.314,3.309,3.333,3.3847,3.3897,3.3657,3.3115,3.309,3.3355,3.3897,3.3897,3.4162,3.4703,3.4703,3.4703,3.4728,3.5244,3.5483,3.5508,3.6118,3.6368,3.6368,3.6393,3.6393,3.6393,3.6393,3.6393,3.6393,3.6393,3.6393,3.6393,3.6393,3.6393,3.6393,3.6381,3.6381,3.6393,3.6369,3.4872,3.2963,3.1895,3.0824,2.9994,2.9994,2.9994,2.9994,2.9994,2.9994,2.9994,2.9994,2.9994,2.9994,2.9994,2.9994,2.9994,2.9994,2.9994,2.9994,2.9994,2.9994,2.9994,2.9994,2.9994,2.9882,2.9599,2.9573,2.9292,2.8547,2.8857,2.8973,2.8714,2.8701,2.8561,2.8308,2.9329,2.9885,2.9911,3.205,3.3178,3.3203,3.4821,3.558,3.5604,3.6146,3.6386,2.8213,2.8355,2.8355,2.8355,2.8088,2.7754,2.7386,2.7035,2.6658,2.6289,2.6507,2.6834,2.7018,2.7361,2.798,2.9111,2.9719,3.0472,3.1622,3.2376,3.2878,3.3104,3.3746,3.4338,3.4703,3.4552,3.4388,3.4223,3.4187,3.4262,3.4438,3.4438,3.4363,3.4187,3.4187,3.4463,3.4993,3.4628,3.4915,3.5854,3.5431,3.5456,3.5879,3.6043,3.6118,3.6118,3.6318,3.6393,3.6393,3.6393,3.6393,3.6393,3.6393,3.6393,3.6393,3.6393,3.6393,3.6393,3.6393,3.6393,3.6325,3.5965,3.6355,3.6744,3.5638,3.4833,3.399,3.2507,3.1314,3.0546,3.0877,3.0973,3.0973,3.0973,3.0973,3.0973,3.0973,3.0973,3.0973,3.0973,3.0973,3.0973,3.0973,3.0973,3.0973,3.0973,3.0973,3.0973,3.0973,3.0973,3.0933,3.0831,3.0818,3.0307,2.9017,2.932,2.9541,2.946,3.0658,3.1253,3.0971,3.2433,3.3335,3.3523,3.458,3.5291,3.5656,3.6363,3.6698,3.6698,3.6869,3.7137,2.7896,2.8088,2.8088,2.8088,2.7946,2.7704,2.7386,2.7135,2.6968,2.6826,2.7069,2.7352,2.7553,2.7871,2.8439,2.9493,3.0347,3.111,3.1783,3.2562,3.3215,3.3556,3.4073,3.4603,3.5143,3.5068,3.4929,3.4728,3.4703,3.4803,3.4993,3.4993,3.5205,3.5618,3.5041,3.5079,3.582,3.5269,3.5568,3.6683,3.6107,3.6031,3.6393,3.6393,3.6393,3.6393,3.6393,3.6393,0.0,3.6393,3.6393,3.6393,3.6393,3.6393,3.6418,3.6619,3.6708,3.6745,3.6934,3.7009,3.6951,3.6616,3.6973,3.7305,3.6294,3.543,3.459,3.3527,3.2766,3.2219,3.2085,3.2034,3.1926,3.1497,3.1408,3.1408,3.1408,3.1408,3.1408,3.1408,3.1408,3.1408,3.1408,3.1408,3.1408,3.1408,3.1408,3.1408,3.1408,3.1408,3.1354,3.1223,3.1613,3.1275,2.9776,3.01,3.0343,3.0214,3.1655,3.241,3.2214,3.3581,3.4445,3.4586,3.5326,3.5814,3.6055,3.682,3.7369,3.7654,3.7552,3.7671,0.0,2.7996,2.7996,2.7996,2.7604,2.7261,2.7286,2.6918,0.0,2.7245,2.7386,2.7553,2.8072,2.8188,2.8247,2.8314,3.008,3.112,3.0166,3.1834,3.319,3.3266,3.3707,3.4223,3.4764,3.5269,3.5369,3.4853,3.4828,3.5054,3.5583,3.5608,3.6133,3.7223,3.5743,3.5456,3.6584,3.5958,3.6158,3.7248,3.6669,3.6393,3.6393,3.6393,3.6418,3.6443,3.6443,3.6468,3.6519,3.6519,3.6494,3.6468,3.6494,3.6494,3.6519,3.706,3.7248,3.7324,3.7839,3.8002,3.8015,3.8053,3.809,3.8115,3.8115,3.6626,3.4917,3.4963,3.4846,3.4481,3.3475,3.3128,3.2801,3.1752,3.1498,3.1498,3.1498,3.1498,3.1498,3.1498,3.1498,3.1498,3.1498,3.1498,3.1498,3.1498,3.1498,3.1498,3.1498,3.1498,3.1381,3.1051,3.2098,3.226,3.0906,3.1299,3.1457,3.1079,3.2084,3.2631,3.2548,3.3484,3.401,3.397,3.4951,3.5328,3.5082,3.6586,3.7713,3.8483,3.8245,3.815,2.6801,0.0,2.6876,2.6876,2.6776,2.6801,0.0,2.7211,2.7261,2.7795,2.8238,2.8555,2.8696,2.9092,2.9654,3.0482,3.1411,3.2089,3.2275,3.314,3.4022,3.4853,3.5043,3.5355,3.5954,3.6093,3.613,3.6004,3.6004,3.6219,3.6759,3.6784,3.7111,3.7789,3.7425,3.7563,3.8316,3.7299,3.7136,3.7789,3.6859,3.6393,3.6393,3.6393,3.6619,3.7009,3.7009,3.7248,3.7613,3.7613,3.7374,3.7048,3.7475,3.7374,3.7085,3.7613,3.7814,3.7839,3.7965,3.8002,3.809,3.8529,3.8956,3.9295,3.9295,3.7781,3.6103,3.6469,3.5333,3.4068,3.4142,3.3497,3.2734,3.2473,3.2402,3.2402,3.2402,3.2402,3.2402,3.2402,3.2402,3.2402,3.2402,3.2402,3.2402,3.2402,3.2402,3.2402,3.2402,3.2402,3.2359,3.2282,3.3372,3.3934,3.3587,3.3743,3.3435,3.2486,3.4836,3.6167,3.5962,3.7434,3.8046,3.7589,3.7836,3.7927,3.7875,3.8232,3.8755,3.9387,3.9334,3.9527,2.6508,2.6675,2.6876,2.6876,2.7043,2.7311,2.7604,2.7679,2.7821,2.8364,2.8706,2.8972,2.9258,2.9578,3.0055,3.0909,3.1677,3.2581,3.3671,3.3872,3.4399,3.5743,3.567,3.5921,3.7022,3.6909,3.6859,3.711,3.7123,3.7248,3.7538,3.7575,3.7826,3.8404,3.8404,3.8555,3.8894,3.8002,3.7839,3.8404,3.755,3.7123,3.7123,3.7123,3.7299,3.7575,3.7575,3.7739,3.8002,3.8002,3.7839,3.76,3.7889,3.7814,3.765,3.8203,3.8404,3.8454,3.8693,3.8793,3.8843,3.9157,3.9459,3.9697,3.9697,3.8861,3.7979,3.8223,3.7425,3.644,3.614,3.558,3.4933,3.4427,3.4315,3.4162,3.3635,3.3544,3.336,3.2812,3.2698,3.2698,3.2698,3.2698,3.2698,3.2698,3.2698,3.2698,3.2698,3.2899,3.3023,3.3023,3.4275,3.511,3.5189,3.618,3.6132,3.4521,3.6362,3.7501,3.7484,3.8777,3.9473,3.9407,3.9522,3.9632,3.9765,3.9632,3.9806,4.0247,4.0126,4.0233,2.6608,2.706,2.7503,2.7336,2.7704,2.8113,2.8213,2.8213,2.8389,2.8932,2.9032,2.9208,2.9804,2.9905,3.0131,3.0738,3.1742,3.3032,3.4714,3.4575,3.4862,3.6468,3.6195,3.6448,3.7852,3.7588,3.7525,3.7965,3.8002,3.804,3.814,3.814,3.8404,3.8994,3.9019,3.9019,3.9019,3.8417,3.8391,3.8894,3.8291,3.8002,3.8002,3.8002,3.8053,3.814,3.814,3.8191,3.8253,3.8253,3.8203,3.814,3.8241,3.8216,3.8216,3.8806,3.9019,3.9095,3.9534,3.9697,3.9697,3.9697,3.9697,3.9697,3.9697,3.9697,3.9697,3.9697,3.9581,3.9193,3.8161,3.7777,3.7394,3.6429,3.6199,3.5927,3.4983,3.4622,3.4233,3.3245,3.293,3.2822,3.2884,3.2905,3.2977,3.3178,3.3206,3.3257,3.3471,3.383,3.4098,3.4098,3.5461,3.6424,3.6547,3.8475,3.8913,3.7097,3.7671,3.819,3.8403,3.9167,3.9822,4.0282,4.0515,4.0697,4.0911,4.0697,4.0733,4.0954,4.0807,4.0747,2.7043,2.7896,2.8439,2.7537,2.7704,2.8213,2.8671,2.8772,2.8957,2.9553,2.9654,2.9829,3.0372,3.0472,3.0799,3.1792,3.2907,3.4223,3.5904,3.6066,3.6457,3.7625,3.7676,3.7726,3.799,3.7939,3.7914,3.7977,3.8002,3.8216,3.873,3.8768,3.9019,3.9559,3.9584,3.9584,3.9584,3.9032,3.8818,3.8894,3.8291,3.8002,3.8002,3.8002,3.8266,3.8768,3.8768,3.9007,3.9446,3.9446,3.9183,3.8818,3.9258,3.9157,3.8843,3.9383,3.9584,3.9584,3.9685,3.9697,3.9697,3.9697,3.9697,3.9697,3.9697,3.9697,3.9697,3.9697,3.896,3.8135,3.795,3.718,3.6416,3.624,3.6199,3.6145,3.5968,3.5168,3.4558,3.4695,3.3959,3.3424,3.3832,3.3895,3.4242,3.5338,3.5497,3.588,3.6957,3.7167,3.7213,3.7213,3.8274,3.9042,3.9056,4.0251,4.0877,4.0555,4.0624,4.0743,4.0784,4.0918,4.1035,4.111,4.117,4.1087,4.0911,4.1087,4.1201,4.1259,4.1717,4.1911,2.716,2.7871,2.8565,2.8976,2.9478,2.988,2.9835,2.981,2.9986,3.0557,3.0432,3.0407,3.0934,3.1275,3.1828,3.2932,3.4051,3.5141,3.6242,3.6644,3.7235,3.8354,3.8191,3.8241,3.8868,3.8655,3.8605,3.8894,3.8919,3.9044,3.9321,3.9333,3.9434,3.9697,3.9697,3.9697,3.9697,3.9459,3.9333,3.9333,3.9044,3.8919,3.8919,3.8919,3.9069,3.9333,3.9333,3.9484,3.9697,3.9697,3.9559,3.9358,3.9609,3.9559,3.9358,3.9609,3.9697,3.9747,4.0023,4.0136,4.0186,4.0462,4.0549,4.0549,4.0549,4.0549,4.0549,4.0549,3.9744,3.8942,3.9238,3.8916,3.8417,3.803,3.7927,3.7556,3.6272,3.5575,3.5078,3.4643,3.4686,3.4873,3.5087,3.5707,3.6337,3.6926,3.6998,3.7198,3.7823,3.8081,3.8214,3.8214,3.8926,3.9661,4.0341,4.0884,4.1219,4.1299,4.1289,4.1289,4.1289,4.1617,4.1781,4.1781,4.2082,4.2164,4.2029,4.2164,4.2221,4.2235,4.2513,4.261,2.7453,2.7971,2.864,3.0046,3.0809,3.121,3.1185,3.1075,3.1125,3.1673,3.1361,3.115,3.1698,3.2441,3.3258,3.4137,3.5305,3.6284,3.6909,3.7336,3.7964,3.8969,3.868,3.8743,3.9635,3.9333,3.9258,3.9685,3.9697,3.9697,3.9697,3.9697,3.9697,3.9697,3.9697,3.9697,3.9697,3.9697,3.9697,3.9697,3.9697,3.9697,3.9697,3.9697,3.9697,3.9697,3.9697,3.9697,3.9697,3.9697,3.9697,3.9697,3.9848,3.9973,4.0061,4.0061,4.0061,4.0136,4.0524,4.0688,4.075,4.1177,4.1289,4.1289,4.1289,4.1289,4.1289,4.1289,4.07,4.0161,4.0588,4.0688,4.0549,3.9978,3.9843,3.9323,3.7488,3.6884,3.6446,3.5691,3.6107,3.6616,3.6727,3.7575,3.8296,3.8595,3.8609,3.8708,3.9033,3.9372,3.955,3.955,3.9874,4.0471,4.1458,4.1529,4.1594,4.17,4.1611,4.1595,4.1595,4.2012,4.2248,4.2179,4.2635,4.2793,4.2667,4.2887,4.2895,4.2754,4.3045,4.3095,2.8355,2.8797,2.9007,2.9679,3.0256,3.105,3.2577,3.2491,3.2254,3.2853,3.2491,3.2254,3.2864,3.4237,3.5282,3.5357,3.6761,3.804,3.8642,3.8743,3.8994,3.9584,3.9597,3.9609,3.9697,3.9685,3.966,3.9697,3.9697,3.9697,3.9697,3.9697,3.9697,3.9697,3.9697,3.9697,3.9697,3.9697,3.9697,3.9697,3.9697,3.9697,3.9697,3.9697,3.9697,3.9697,3.9697,3.9697,3.9697,3.9697,3.9697,3.9747,4.0236,4.075,4.1188,4.1188,4.1188,4.1188,4.1214,4.1239,4.1239,4.1289,4.1289,4.1289,4.1289,4.1289,4.1289,4.1289,4.1239,4.1188,4.1239,4.1239,4.1212,4.1181,4.1168,4.1114,4.0952,4.0073,3.9435,3.9787,3.903,3.8449,3.8901,3.9051,3.952,4.0693,4.0865,4.128,4.2473,4.2662,4.2687,4.2687,4.2698,4.2765,4.2874,4.2849,4.2866,4.2875,4.2596,4.2427,4.2427,4.2452,4.2351,4.2107,4.2386,4.2259,4.1706,4.2516,4.2616,4.2093,4.3159,4.3335,2.8646,2.9157,2.9744,3.0984,3.1451,3.1752,3.239,3.2641,3.2993,3.3922,3.3646,3.3445,3.3986,3.4867,3.562,3.6006,3.7475,3.8642,3.8869,3.9195,3.9484,3.9685,3.9697,3.9697,3.9697,3.9697,3.9697,3.9697,3.9697,3.9697,3.9697,3.9697,3.9697,3.9697,3.9697,3.9697,3.9697,3.9697,3.9697,3.9697,3.9697,3.9697,3.9697,3.9697,3.9697,3.9697,3.9697,3.9898,4.0199,4.0199,4.0387,4.0725,4.0926,4.1113,4.1289,4.1289,4.1289,4.1339,4.1731,4.187,4.192,4.2258,4.2359,4.2359,4.2359,4.2359,4.2359,4.2359,4.2359,4.2283,4.1945,4.187,4.1754,4.1279,4.1184,4.096,4.0173,3.9674,3.9405,3.9578,3.9899,4.0162,4.0346,4.1043,4.1739,4.2206,4.2573,4.2953,4.3446,4.379,4.3976,4.3976,4.3976,4.3976,4.3976,4.3976,4.3976,4.3976,4.325,4.2793,4.2793,4.2793,4.2828,4.2849,4.3148,4.318,4.2919,4.3461,4.3486,4.3061,4.3492,4.3576,2.9233,2.9619,3.0166,3.1587,3.2079,3.2305,3.2656,3.3319,3.4173,3.5266,3.5052,3.4751,3.4929,3.5556,3.617,3.6582,3.8065,3.9132,3.9132,3.9459,3.9697,3.9697,3.9697,3.9697,3.9697,3.9697,3.9697,3.9697,3.9697,3.9697,3.9697,3.9697,3.9697,3.9697,3.9697,3.9697,3.9697,3.9697,3.9697,3.9697,3.9697,3.9697,3.971,3.9873,3.9948,3.9973,4.0136,4.0412,4.075,4.075,4.1076,4.1592,4.1592,4.1692,4.1843,4.1843,4.1843,4.1893,4.2311,4.2436,4.2526,4.2889,4.3014,4.3014,4.3014,4.3014,4.3039,4.3201,4.3251,4.3201,4.3014,4.2713,4.2354,4.2032,4.1954,4.1725,4.0848,4.0777,4.0848,4.0683,4.1499,4.2198,4.2198,4.2924,4.3503,4.3503,4.3815,4.4052,4.4052,4.4378,4.4589,4.4589,4.4589,4.4589,4.4589,4.4589,4.4589,4.4589,4.3915,4.3485,4.3386,4.3386,4.338,4.3422,4.3765,4.3863,4.3708,4.4102,4.4176,4.3954,4.4136,4.421,3.0287,3.0206,3.0065,3.1145,3.1813,3.253,3.3671,3.4753,3.582,3.696,3.6783,3.623,3.562,3.6446,3.7198,3.7198,3.8605,3.9697,3.9697,3.9697,3.9697,3.9697,3.9697,3.9697,3.9697,3.9697,3.9697,3.9697,3.9697,3.9697,3.9697,3.9697,3.9697,3.9697,3.9697,3.9697,3.9697,3.9697,3.9697,3.9697,3.971,3.971,3.9735,4.0261,4.0512,4.0538,4.1076,4.1289,4.1314,4.1314,4.1681,4.2199,4.2199,4.2537,4.3014,4.3014,4.3014,4.3014,4.3014,4.3014,4.3014,4.3014,4.3014,4.3014,4.3014,4.3014,4.3126,4.3664,4.3815,4.394,4.4464,4.3815,4.3151,4.3689,4.3815,4.3815,4.3815,4.4227,4.4453,4.3915,4.4227,4.4589,4.4589,4.4589,4.4589,4.4589,4.4589,4.4614,4.4629,4.4629,4.4629,4.4629,4.4629,4.4629,4.4629,4.4629,4.4629,4.4629,4.4629,4.4498,4.4232,4.4217,4.406,4.3728,4.4031,4.4046,4.3713,4.4254,4.4525,4.4525,4.5045,4.5285,3.0055,3.0457,3.1095,3.1788,3.2982,3.4262,3.5401,3.5892,3.6445,3.7538,3.7349,3.6909,3.6734,3.7287,3.7764,3.7764,3.8843,3.9697,3.9697,3.9697,3.9697,3.9697,3.9697,3.9697,3.9697,3.9697,3.9697,3.9697,3.9697,3.9697,3.9697,3.9697,3.9697,3.9697,3.9697,3.9697,3.9697,3.9697,3.9697,3.9697,4.0086,4.0261,4.0261,4.0437,4.07,4.1076,4.1214,4.1542,4.1945,4.2347,4.2598,4.2763,4.2763,4.2864,4.3014,4.3014,4.3014,4.3014,4.3014,4.3014,4.3014,4.3014,4.3014,4.3076,4.3452,4.3564,4.3664,4.4202,4.4353,4.4403,4.4564,4.4353,4.4177,4.4328,4.4353,4.4353,4.4353,4.4503,4.4539,4.4403,4.4503,4.4589,4.4589,4.4589,4.4589,4.4589,4.4955,4.5372,4.5759,4.5809,4.5809,4.5809,4.5809,4.5809,4.5809,4.5809,4.5809,4.5809,4.5809,4.5388,4.4523,4.4484,4.4527,4.4616,4.4926,4.5022,4.4824,4.5238,4.5176,4.4719,4.4875,4.4825,3.0783,3.1235,3.1964,3.2957,3.395,3.5166,3.6984,3.7398,3.7637,3.8492,3.8253,3.7889,3.7889,3.8128,3.8354,3.8354,3.9094,3.9697,3.9697,3.9697,3.9697,3.9697,3.9697,3.9697,3.9697,3.9697,3.9697,3.9697,3.9697,3.9697,3.9697,3.9697,3.9812,4.0016,4.0013,4.0113,4.0317,4.0339,4.0337,4.0337,4.065,4.0939,4.1192,4.1192,4.1354,4.1681,4.1893,4.2183,4.2537,4.2864,4.3014,4.3014,4.3014,4.3014,4.3014,4.3014,4.3126,4.3327,4.3327,4.3452,4.3653,4.3653,4.3653,4.3689,4.4016,4.4127,4.4227,4.4805,4.4955,4.5006,4.5231,4.5282,4.5231,4.5006,4.4955,4.4955,4.4955,4.5131,4.5206,4.5006,4.5131,4.5282,4.5282,4.5282,4.5282,4.5282,4.5583,4.5924,4.6261,4.6286,4.6386,4.6612,4.6637,4.6712,4.6928,4.6954,4.6954,4.6954,4.6954,4.6612,4.5934,4.5508,4.5344,4.55,4.5694,4.578,4.5696,4.5893,4.5787,4.5407,4.5407,4.5408,3.1978,3.2204,3.2681,3.4352,3.4929,3.578,3.8391,3.8969,3.912,3.9609,3.9308,3.8969,3.8969,3.8969,3.8969,3.8969,3.9383,3.9697,3.9697,3.9697,3.9697,3.9697,3.9697,3.9721,3.9756,3.9771,3.9785,3.9847,3.9848,3.9848,3.9848,3.9848,4.0066,4.0553,4.057,4.0818,4.1293,4.1294,4.13,4.1289,4.1364,4.1681,4.2199,4.2199,4.2238,4.2299,4.2788,4.3014,4.3014,4.3014,4.3014,4.3014,4.3014,4.3025,4.3076,4.3076,4.3413,4.3865,4.3865,4.4177,4.4589,4.4589,4.4589,4.4614,4.4679,4.4679,4.4805,4.5397,4.5587,4.5688,4.616,4.6286,4.6175,4.5673,4.5587,4.5587,4.5587,4.5949,4.6175,4.5688,4.5974,4.6286,4.6286,4.6286,4.6311,4.6361,4.6361,4.6386,4.6436,4.6451,4.6637,4.7124,4.7174,4.7365,4.7857,4.7908,4.7908,4.7908,4.7908,4.7908,4.7908,4.6933,4.6406,4.6451,4.6406,4.6391,4.6391,4.6391,4.6361,4.63,4.63,4.656,3.1537,3.2225,3.3305,3.4917,3.6672,3.8266,3.9283,3.9534,3.9559,3.9685,3.9609,3.9534,3.9534,3.9534,3.9534,3.9534,3.9622,3.9697,3.9697,3.9697,3.9697,3.9697,3.9697,3.9886,4.0283,4.0332,4.0517,4.0924,4.0958,4.0951,4.0951,4.0973,4.1004,4.1107,4.1121,4.1185,4.1302,4.1312,4.1316,4.1314,4.1781,4.206,4.2199,4.2199,4.2425,4.2838,4.2964,4.3014,4.3014,4.3014,4.3014,4.3014,4.3014,4.3251,4.3628,4.3628,4.3966,4.4428,4.4428,4.4489,4.4589,4.4589,4.4589,4.4704,4.5171,4.5311,4.5422,4.5974,4.6125,4.6135,4.6261,4.6286,4.6261,4.6175,4.6125,4.6125,4.6125,4.621,4.6261,4.615,4.621,4.6286,4.6286,4.6286,4.6436,4.6873,4.6923,4.7074,4.749,4.7556,4.7591,4.7716,4.7716,4.7767,4.7892,4.7908,4.7908,4.7908,4.7908,4.7908,4.7908,4.7427,4.7287,4.7541,4.7302,4.7147,4.7147,4.7147,4.6882,4.6364,4.6364,4.6296,3.206,3.2839,3.3933,3.5844,3.7814,3.9358,3.9635,3.9898,4.0086,4.0086,3.9873,3.9697,3.9697,3.9697,3.9772,4.0049,4.0078,4.0181,4.0431,4.0474,4.0477,4.0477,4.0477,4.0582,4.0862,4.0892,4.0995,4.1277,4.131,4.1292,4.1299,4.1293,4.143,4.1721,4.1745,4.1851,4.2093,4.2118,4.2123,4.2133,4.2423,4.2587,4.2587,4.2587,4.2738,4.3014,4.3014,4.3014,4.3014,4.3014,4.3014,4.3039,4.3277,4.3539,4.384,4.4077,4.4529,4.5031,4.5031,4.5206,4.5407,4.5407,4.5407,4.5482,4.5799,4.5874,4.5949,4.621,4.6286,4.6286,4.6286,4.6286,4.6286,4.6286,4.6286,4.6286,4.6286,4.6286,4.6286,4.6286,4.6286,4.6386,4.6637,4.6888,4.7164,4.744,4.749,4.7591,4.7867,4.7908,4.8008,4.83,4.8325,4.8435,4.8686,4.8711,4.8711,4.8711,4.8711,4.8711,4.8711,4.8403,4.8043,4.7667,4.748,4.7332,4.7174,4.7174,4.6985,4.6652,4.6652,4.6679,3.2627,3.3682,3.4963,3.6997,3.868,3.9848,3.9848,4.0236,4.0638,4.0638,4.0287,3.9973,3.9973,3.9973,4.0111,4.0563,4.0636,4.0793,4.1243,4.1295,4.1311,4.1282,4.1294,4.1351,4.1451,4.1447,4.1491,4.1588,4.1603,4.1584,4.1596,4.1584,4.1826,4.2319,4.2342,4.2546,4.2989,4.3014,4.3014,4.3014,4.3014,4.3014,4.3014,4.3014,4.3014,4.3014,4.3014,4.3014,4.3014,4.3115,4.3126,4.3176,4.374,4.3991,4.4141,4.4579,4.5131,4.5638,4.5638,4.5924,4.6286,4.6286,4.6286,4.6286,4.6286,4.6361,4.6436,4.6436,4.6512,4.6562,4.6562,4.6562,4.6562,4.6562,4.6562,4.6537,4.6461,4.6512,4.6562,4.6562,4.6562,4.6712,4.7149,4.7616,4.7933,4.8033,4.8058,4.8083,4.8184,4.8193,4.8385,4.8878,4.8944,4.9129,4.9565,4.959,4.959,4.959,4.959,4.959,4.959,4.9332,4.8714,4.7724,4.7699,4.7557,4.7287,4.7287,4.7255,4.7192,4.7192,4.7437,3.2028,3.45,3.7085,3.8341,3.9546,4.0387,4.0387,4.08,4.1188,4.1188,4.1138,4.1102,4.1102,4.1102,4.1127,4.1188,4.1188,4.123,4.1294,4.1292,4.1304,4.1293,4.1304,4.1499,4.2019,4.2077,4.2278,4.2749,4.2774,4.2763,4.2766,4.2766,4.2821,4.2893,4.2885,4.293,4.3014,4.3014,4.3014,4.3014,4.3014,4.3014,4.3014,4.3014,4.3014,4.3014,4.3014,4.3014,4.3039,4.3489,4.3689,4.374,4.4278,4.4805,4.5286,4.5361,4.5723,4.6185,4.6185,4.6235,4.6286,4.6286,4.6286,4.6286,4.6286,4.6622,4.6998,4.6998,4.734,4.7707,4.7707,4.7707,4.7707,4.7707,4.7707,4.7566,4.7099,4.7365,4.7707,4.7707,4.7707,4.7707,4.7767,4.7842,4.8083,4.8601,4.8677,4.8853,4.9314,4.9364,4.9389,4.9464,4.949,4.9515,4.959,4.959,4.959,4.959,4.959,4.959,4.959,4.9558,4.9321,4.8865,4.8865,4.8849,4.88,4.88,4.8663,4.8379,4.8379,4.8403,3.2681,3.5353,3.7851,3.8693,3.971,4.0588,4.0876,4.1391,4.1795,4.1795,4.2032,4.2069,4.1428,4.1289,4.1416,4.1762,4.1799,4.1916,4.221,4.2252,4.225,4.2262,4.2243,4.2362,4.2615,4.2655,4.2738,4.2975,4.3014,4.3014,4.3014,4.3014,4.3014,4.3014,4.3014,4.3014,4.3014,4.3014,4.3014,4.3014,4.3014,4.3151,4.3452,4.3452,4.3452,4.3452,4.3452,4.3614,4.3915,4.4152,4.4252,4.4303,4.4895,4.5271,4.5537,4.5824,4.61,4.6286,4.6286,4.6286,4.6336,4.6662,4.6763,4.6813,4.7114,4.7365,4.7541,4.7541,4.7716,4.7908,4.7908,4.7908,4.7908,4.7908,4.8159,4.835,4.8109,4.7983,4.7908,4.7908,4.8159,4.84,4.84,4.8636,4.8937,4.9204,4.9254,4.933,4.9565,4.959,4.959,4.959,4.959,4.959,4.959,4.959,4.959,4.959,4.9891,5.0067,5.0067,5.0368,5.0396,5.0008,4.9403,4.9007,4.8821,4.8584,4.8404,4.8264,4.8083,4.813,3.3119,3.5403,3.7375,3.824,3.9496,4.06,4.1001,4.1781,4.24,4.24,4.2713,4.2774,4.2055,4.1829,4.187,4.2345,4.2406,4.2546,4.2942,4.3014,4.3014,4.3014,4.3014,4.3014,4.3014,4.3014,4.3014,4.3014,4.3014,4.3014,4.3014,4.3014,4.3014,4.3014,4.3014,4.3014,4.3014,4.3014,4.3014,4.3014,4.3126,4.3413,4.3815,4.394,4.4091,4.4217,4.4066,4.4227,4.4614,4.478,4.483,4.488,4.5472,4.5698,4.5748,4.6135,4.6286,4.6311,4.6461,4.6512,4.6587,4.7124,4.7299,4.739,4.7767,4.8008,4.8134,4.8134,4.8234,4.8335,4.8335,4.8335,4.8335,4.8335,4.8677,4.9003,4.9003,4.8652,4.8335,4.8335,4.8702,4.9003,4.9003,4.933,4.959,4.959,4.959,4.959,4.959,4.9715,4.9791,4.9791,4.9941,5.0017,5.0017,5.0017,5.0017,5.0017,5.0419,5.0645,5.0645,5.1063,5.1172,5.0863,5.0082,4.9429,4.8977,4.8671,4.8539,4.8539,4.829,4.8391,3.2688,3.3997,3.5266,3.6872,3.8919,4.0512,4.0538,4.1795,4.2964,4.2964,4.2975,4.3126,4.3589,4.3237,4.2925,4.2939,4.2953,4.2978,4.2989,4.3014,4.3014,4.3014,4.3014,4.3014,4.3014,4.3014,4.3014,4.3014,4.3014,4.3014,4.3014,4.3014,4.3014,4.3014,4.3014,4.3014,4.3014,4.3014,4.3014,4.3014,4.3528,4.3765,4.3815,4.4328,4.4855,4.5386,4.4805,4.4564,4.464,4.5221,4.5462,4.5512,4.605,4.6261,4.6261,4.6286,4.6286,4.6361,4.6873,4.7074,4.7149,4.7691,4.7857,4.7867,4.7892,4.83,4.8752,4.8752,4.9129,4.9515,4.9515,4.9515,4.9515,4.9515,4.9556,4.9565,4.9565,4.9515,4.9515,4.9515,4.9556,4.9565,4.9565,4.9565,4.959,4.959,4.959,4.959,4.959,5.0042,5.0352,5.0352,5.087,5.1214,5.1214,5.1214,5.1214,5.1214,5.1239,5.1264,5.1264,5.1289,5.1272,5.1256,5.1205,5.0788,5.0008,4.9991,4.9991,4.9991,4.9974,4.9981,3.1949,3.3585,3.5444,3.6446,3.8102,3.9747,4.0775,4.1781,4.2587,4.2939,4.3277,4.3564,4.3765,4.3639,4.362,4.3989,4.4028,4.3905,4.3546,4.3509,4.3389,4.3028,4.3014,4.3156,4.348,4.32,4.3126,4.3503,4.3176,4.3014,4.3014,4.3014,4.3014,4.3014,4.3014,4.3153,4.3501,4.3508,4.3687,4.4036,4.4206,4.4518,4.4909,4.5095,4.5472,4.5999,4.5784,4.5683,4.5708,4.5924,4.6024,4.6024,4.621,4.6286,4.6336,4.6687,4.6798,4.6873,4.744,4.7616,4.7716,4.83,4.8476,4.8551,4.8887,4.9138,4.9305,4.9305,4.9455,4.959,4.959,4.9866,5.0218,5.0611,5.0686,5.0686,5.0686,5.0134,4.959,4.959,4.959,4.9715,5.0051,5.0101,5.0243,5.0636,5.0686,5.0686,5.0686,5.0862,5.0971,5.0971,5.1163,5.1289,5.1289,5.1289,5.1289,5.1289,5.1615,5.1698,5.1437,5.2015,5.2088,5.1626,5.1609,5.1365,5.0871,5.0611,5.0494,5.0452,5.0038,5.0013,3.1235,3.2882,3.4828,3.5417,3.681,3.8555,4.0362,4.1204,4.1884,4.2813,4.3427,4.3865,4.4041,4.4242,4.4411,4.458,4.4594,4.4471,4.4127,4.4071,4.3871,4.3322,4.3269,4.3405,4.3771,4.3297,4.3226,4.3765,4.346,4.327,4.327,4.326,4.3274,4.3269,4.3279,4.3519,4.4068,4.4076,4.4259,4.4596,4.4807,4.5121,4.5512,4.5688,4.5974,4.6286,4.6286,4.6286,4.6286,4.6286,4.6286,4.6286,4.6286,4.6411,4.6612,4.6973,4.7224,4.7465,4.8008,4.8209,4.8284,4.8878,4.9079,4.9129,4.9506,4.959,4.964,4.9816,4.9866,4.9916,5.0134,5.0444,5.0795,5.1214,5.1289,5.1289,5.1289,5.0711,5.0184,5.0184,5.0184,5.0268,5.0645,5.0703,5.0845,5.1239,5.1289,5.1289,5.1289,5.1465,5.1565,5.1565,5.1724,5.1825,5.1825,5.1825,5.1825,5.1825,5.2176,5.2258,5.1994,5.2471,5.2515,5.2012,5.1873,5.1677,5.147,5.0936,5.0697,5.068,5.0242,5.0212,0.0,0.0,0.0,3.3746,3.5116,3.6935,3.9132,4.0049,4.0914,4.2598,4.3402,4.394,4.4503,4.5121,4.5321,4.4754,4.464,4.464,4.4585,4.4591,4.4403,4.3843,4.3776,4.381,4.3826,4.3346,4.3277,4.3815,4.383,4.3808,4.3808,4.3829,4.3826,4.381,4.3808,4.4076,4.4618,4.4638,4.4614,4.4665,4.5246,4.5537,4.5537,4.6075,4.6286,4.6286,4.6286,4.6286,4.6286,4.6286,4.6311,4.6311,4.6311,4.6662,4.7124,4.7149,4.749,4.8008,4.8601,4.8818,4.8919,4.943,4.959,4.959,4.9615,4.9615,4.9741,5.0277,5.0427,5.0569,5.1163,5.1314,5.1314,5.1339,5.1339,5.1339,5.1339,5.1339,5.1339,5.1314,5.1289,5.1314,5.1314,5.1314,5.1339,5.1339,5.1339,5.1339,5.1339,5.18,5.2126,5.2126,5.2586,5.2895,5.2895,5.2895,5.2895,5.2895,5.2895,5.2895,5.2895,5.2585,5.2429,5.2412,5.203,5.182,5.182,5.1084,5.0731,5.0731,5.0713,5.0696,3.0588,0.0,0.0,0.0,0.0,0.0,3.7475,3.8316,3.9283,4.1327,4.2534,4.3489,4.4428,4.5407,4.601,4.5859,4.5834,4.553,4.4729,4.4596,4.4263,4.3336,4.3568,4.3947,4.4338,4.4237,4.4396,4.4986,4.4633,4.4388,4.4378,4.4389,4.4374,4.4385,4.438,4.4646,4.5258,4.5242,4.5447,4.5834,4.5999,4.6075,4.6075,4.6235,4.6286,4.6286,4.6286,4.6286,4.6286,4.6286,4.6537,4.6873,4.6873,4.7214,4.7716,4.8159,4.8426,4.8626,4.9179,4.938,4.9405,4.954,4.959,4.9665,5.0051,5.0176,5.0318,5.0887,5.1063,5.1172,5.1724,5.1875,5.1975,5.236,5.246,5.246,5.246,5.246,5.2226,5.1465,5.1289,5.1414,5.18,5.1875,5.2026,5.2385,5.246,5.246,5.246,5.2586,5.2686,5.2686,5.2795,5.2895,5.2895,5.2895,5.2895,5.2895,5.2895,5.2792,5.255,5.2688,5.2654,5.2412,5.2308,5.2238,5.2238,5.1751,5.1506,5.1488,5.1201,5.0919,0.0,0.0,0.0,3.3014,0.0,0.0,3.6721,3.7613,3.8693,4.1178,4.2397,4.3327,4.4403,4.4976,4.5403,4.5893,4.596,4.5729,4.5065,4.5165,4.4892,4.3807,4.4344,4.4872,4.4957,4.4984,4.511,4.546,4.5175,4.4963,4.4972,4.4984,4.4972,4.499,4.4972,4.5246,4.5824,4.5824,4.5999,4.6286,4.6286,4.6286,4.6286,4.6286,4.6286,4.6311,4.6537,4.6622,4.6662,4.6863,4.7014,4.7124,4.735,4.7767,4.8325,4.8677,4.8928,4.9179,4.9506,4.959,4.964,4.9866,4.9941,5.0042,5.0594,5.077,5.0896,5.1473,5.18,5.2051,5.236,5.2435,5.2511,5.2837,5.2895,5.2895,5.2895,5.2895,5.2711,5.2101,5.1975,5.2076,5.2385,5.2435,5.2536,5.2845,5.2895,5.2895,5.2895,5.2895,5.2895,5.2895,5.2895,5.2895,5.2895,5.2895,5.2895,5.2895,5.2895,5.2809,5.2619,5.2671,5.2602,5.2412,5.2238,5.2151,5.2151,5.1925,5.1716,5.1551,5.1481,5.1253,3.1014,3.1873,0.0,3.309,3.314,0.0,3.6281,3.7287,3.8467,4.1093,4.211,4.2886,4.3955,4.3805,4.3861,4.488,4.5181,4.5354,4.5479,4.5904,4.5805,4.4718,4.5549,4.605,4.5619,4.5585,4.5627,4.5682,4.5627,4.5579,4.5579,4.5599,4.5604,4.5579,4.5574,4.5824,4.6301,4.6286,4.6286,4.6286,4.6286,4.6286,4.6286,4.6361,4.6386,4.6411,4.6963,4.7199,4.7224,4.7767,4.7716,4.734,4.7817,4.836,4.8894,4.8894,4.9179,4.959,4.959,4.964,4.9766,5.0252,5.0452,5.0603,5.1214,5.1389,5.1515,5.2051,5.2536,5.2895,5.2895,5.2895,5.2895,5.2895,5.2895,5.2895,5.2895,5.2895,5.2895,5.2895,5.2895,5.2895,5.2895,5.2895,5.2895,5.2895,5.2895,5.2895,5.2895,5.2895,5.2895,5.2895,5.2895,5.2895,5.2895,5.2895,5.2937,5.2988,5.2988,5.3013,5.3088,5.2794,5.2613,5.2538,5.2107,5.1873,5.1873,5.182,5.1604,5.1264,5.1621,5.1611,3.1828,3.2129,3.2491,3.2989,3.3431,0.0,3.4424,3.528,3.6397,3.7876,3.8994,4.0045,4.1109,4.1561,4.1855,4.2081,4.3256,4.4443,4.5369,4.559,4.5395,4.4682,4.523,4.5784,4.6105,4.613,4.633,4.6762,4.6386,4.6145,4.6145,4.613,4.6145,4.6145,4.613,4.6185,4.6286,4.6286,4.6286,4.6286,4.6286,4.6286,4.6311,4.6763,4.6948,4.6973,4.7516,4.7741,4.7792,4.8375,4.8551,4.8476,4.8576,4.8953,4.9455,4.9455,4.9515,4.959,4.959,4.9891,5.0252,5.0377,5.0745,5.1239,5.1774,5.195,5.2051,5.2586,5.2837,5.2895,5.2895,5.2895,5.2895,5.2895,5.2895,5.2895,5.2895,5.2895,5.2895,5.2895,5.2895,5.2895,5.2895,5.2895,5.2895,5.2895,5.2895,5.2895,5.2895,5.2895,5.2895,5.2895,5.2895,5.2895,5.2895,5.2895,5.3088,5.3532,5.3557,5.3758,5.4253,5.42,5.3946,5.3453,5.268,5.229,5.229,5.196,5.1768,5.1674,5.1768,5.1831,3.2204,3.2416,3.2803,3.3355,3.3506,0.0,0.0,3.4917,3.5896,3.7312,3.7829,3.8459,3.9864,3.9859,3.9921,4.0765,4.2307,4.3684,4.4533,4.5374,4.5674,4.512,4.5802,4.6309,4.6296,4.6763,4.7216,4.7469,4.7005,4.6712,4.6712,4.6436,4.6286,4.6286,4.6286,4.6286,4.6286,4.6286,4.6286,4.6286,4.6286,4.6436,4.6712,4.6973,4.7249,4.7541,4.8109,4.835,4.84,4.8953,4.9204,4.9204,4.9204,4.9355,4.959,4.959,4.959,4.964,4.9916,5.0176,5.0503,5.1055,5.1448,5.18,5.2335,5.2511,5.2561,5.282,5.2895,5.2895,5.2895,5.2895,5.2895,5.2895,5.2895,5.2895,5.2895,5.2895,5.2895,5.2895,5.2895,5.2895,5.2895,5.2895,5.2895,5.2895,5.2895,5.2895,5.2895,5.2895,5.2995,5.3264,5.3289,5.3432,5.3708,5.3758,5.3858,5.4127,5.4152,5.4278,5.4597,5.4402,5.4064,5.3552,5.3127,5.2996,5.319,5.3021,5.2548,5.1914,5.2378,5.2541,3.2807,3.3043,3.3481,3.3822,3.3657,3.3581,0.0,0.0,0.0,3.6948,3.6959,3.7133,3.8478,3.7991,3.7831,3.9315,4.0935,4.2278,4.2932,4.4443,4.5502,4.551,4.6374,4.6872,4.6637,4.729,4.7741,4.7741,4.7249,4.6948,4.6948,4.6622,4.6411,4.6286,4.6286,4.6286,4.6286,4.6286,4.6336,4.6461,4.6461,4.6722,4.7249,4.7375,4.7666,4.8109,4.8702,4.8953,4.8994,4.943,4.959,4.959,4.959,4.959,4.9615,4.9715,4.9741,4.9841,5.0377,5.0628,5.0879,5.1783,5.2176,5.2335,5.2787,5.2895,5.2895,5.2895,5.2895,5.2895,5.2895,5.2895,5.2895,5.2895,5.2895,5.2895,5.2895,5.2895,5.2895,5.2895,5.2988,5.302,5.2937,5.2988,5.3063,5.3063,5.3163,5.3239,5.3239,5.3239,5.3389,5.3833,5.3858,5.4077,5.4572,5.4597,5.4647,5.4748,5.4748,5.4798,5.4906,5.4502,5.4105,5.3782,5.3618,5.367,5.3992,5.3948,5.3414,5.2523,5.3293,5.3432,3.4427,3.4463,3.4413,3.3997,3.4212,3.4288,3.3456,0.0,3.4703,3.4424,0.0,3.5034,3.523,0.0,0.0,3.5971,3.7475,3.8931,4.0017,4.1619,4.3378,4.5252,4.6039,4.6722,4.7616,4.7415,4.7199,4.7199,4.6672,4.6386,4.6386,4.6772,4.6772,4.6311,4.6286,4.6286,4.6286,4.6286,4.6537,4.7023,4.7023,4.7274,4.7817,4.8375,4.8626,4.8743,4.928,4.9515,4.9515,4.9565,4.959,4.959,4.959,4.959,4.9665,5.0126,5.0302,5.0377,5.0987,5.1498,5.1925,5.2076,5.241,5.2837,5.287,5.2895,5.2895,5.2895,5.2895,5.2895,5.2895,5.2895,5.2895,5.2895,5.2895,5.2895,5.2895,5.2895,5.2895,5.2895,5.3289,5.3439,5.2988,5.3289,5.3607,5.3607,5.4077,5.4421,5.4421,5.4421,5.4446,5.4496,5.4496,5.4522,5.4597,5.4597,5.4798,5.5282,5.5308,5.5516,5.6018,5.553,5.5218,5.5164,5.4348,5.3938,5.3992,5.3758,5.3873,5.4302,5.4412,5.4319,3.4703,3.4703,3.4653,3.4413,3.4288,3.4123,3.3682,3.3682,3.3807,3.3872,0.0,0.0,0.0,0.0,0.0,0.0,3.7426,3.8692,3.9181,4.0642,4.2279,4.3856,4.426,4.4794,4.5884,4.6085,4.6436,4.7048,4.6612,4.6436,4.6763,4.6672,4.6537,4.6311,4.6286,4.6286,4.6286,4.6612,4.6873,4.7099,4.7415,4.7883,4.8426,4.8677,4.8969,4.928,4.949,4.959,4.959,4.959,4.959,4.9615,4.9941,4.9866,4.9631,4.9866,5.0126,5.0477,5.1071,5.1649,5.2151,5.246,5.2711,5.2895,5.2895,5.2895,5.2895,5.2895,5.2895,5.2895,5.2895,5.2895,5.2895,5.2895,5.2895,5.2895,5.2895,5.3138,5.3364,5.3364,5.3833,5.4152,5.3926,5.4077,5.4228,5.4228,5.4446,5.4597,5.4597,5.4597,5.4723,5.5031,5.5056,5.5182,5.5491,5.5516,5.5616,5.5842,5.5867,5.5749,5.5497,5.5298,5.4954,5.4469,5.4083,5.4004,5.4218,5.4107,5.4328,5.4809,5.4353,5.4194,3.5606,3.5492,3.5317,3.5004,3.4513,3.4037,3.3757,3.3607,3.3607,3.3847,3.3958,0.0,0.0,0.0,3.5438,3.6262,0.0,3.828,3.8413,3.9448,4.077,4.2352,4.295,4.3528,4.4303,4.4644,4.5321,4.6587,4.616,4.6135,4.6848,4.6662,4.6461,4.6311,4.6286,4.6286,4.6286,4.6823,4.7174,4.734,4.7867,4.8435,4.9019,4.9019,4.9229,4.959,4.959,4.959,4.9615,4.9766,4.9816,4.9866,5.0444,5.0419,5.0083,5.0083,5.0318,5.072,5.1163,5.1649,5.2201,5.2737,5.2895,5.2895,5.2895,5.2895,5.2895,5.2895,5.2895,5.2895,5.2895,5.2895,5.2895,5.2895,5.2895,5.2945,5.3088,5.3432,5.3758,5.3909,5.4429,5.4823,5.4823,5.4823,5.4823,5.4823,5.4931,5.5031,5.5031,5.5031,5.5182,5.5566,5.5616,5.5767,5.615,5.62,5.6164,5.6054,5.5944,5.5613,5.5022,5.5004,5.4744,5.4141,5.4122,5.4328,5.4738,5.4626,5.4775,5.5152,5.444,5.4234,3.7877,3.7525,3.6835,3.5745,3.5068,3.4413,3.3355,3.3922,3.4513,3.3997,3.5175,3.613,3.5595,3.5956,0.0,0.0,3.6467,0.0,0.0,3.7298,3.8341,4.1038,4.2797,4.379,4.3815,4.3377,4.3754,4.5437,4.498,4.5156,4.6261,4.6798,4.6823,4.6311,4.6286,4.6286,4.6286,4.6823,4.735,4.7867,4.8476,4.9053,4.9565,4.9565,4.9565,4.959,4.959,4.959,4.964,5.0151,5.0377,5.0427,5.1038,5.1264,5.1239,5.1239,5.1264,5.1264,5.1289,5.1649,5.2201,5.2737,5.2895,5.2895,5.2895,5.2895,5.2895,5.2895,5.2895,5.2895,5.2895,5.2895,5.2895,5.2895,5.2895,5.3038,5.354,5.3683,5.3858,5.4471,5.5006,5.5365,5.5365,5.5365,5.5365,5.5365,5.5817,5.615,5.615,5.615,5.6168,5.6175,5.6175,5.6175,5.62,5.62,5.6036,5.565,5.5263,5.5022,5.5004,5.5004,5.4985,5.4967,5.4967,5.517,5.5577,5.517,5.5189,5.5577,5.5152,5.4756,3.8002,3.7613,3.7022,3.6269,3.5392,3.4502,3.3796,3.4187,3.4753,3.4917,3.5741,3.6557,3.7049,3.7036,0.0,0.0,0.0,3.7387,0.0,3.7198,3.7675,3.8944,4.0588,4.1617,4.1617,4.2473,4.324,4.3804,4.3984,4.4569,4.571,4.593,4.611,4.6286,4.6286,4.6461,4.6823,4.7365,4.7933,4.8501,4.9053,4.943,4.959,4.959,4.959,4.959,4.959,4.959,4.964,5.0176,5.0402,5.0503,5.1473,5.1825,5.1774,5.144,5.1289,5.1339,5.1699,5.195,5.2201,5.2737,5.2895,5.2895,5.2895,5.2895,5.2895,5.2895,5.2895,5.2895,5.2895,5.2895,5.2895,5.2895,5.3163,5.3482,5.3658,5.4285,5.4906,5.5082,5.5541,5.5942,5.5942,5.5942,5.5942,5.5942,5.6093,5.62,5.62,5.62,5.62,5.62,5.62,5.62,5.62,5.62,5.6146,5.6017,5.5871,5.5669,5.5411,5.5411,5.5281,5.5004,5.4738,5.4682,5.4812,5.4403,5.4272,5.4403,5.4272,5.4272,3.8592,3.8203,3.7663,3.711,3.642,3.5693,3.4963,3.5655,3.6459,3.6397,3.7174,3.8002,3.8517,3.8316,0.0,0.0,0.0,0.0,0.0,3.7198,3.7398,3.7937,3.9133,4.0088,4.0469,4.1296,4.2141,4.2941,4.3142,4.379,4.5105,4.537,4.5754,4.6286,4.6486,4.6823,4.739,4.7933,4.8426,4.8818,4.9355,4.959,4.959,4.959,4.959,4.9615,4.9791,4.9891,4.9941,5.0678,5.1005,5.1105,5.2009,5.2277,5.2076,5.1699,5.1465,5.1389,5.1925,5.2101,5.2201,5.2737,5.2895,5.2895,5.2895,5.2895,5.2895,5.2895,5.2895,5.2895,5.2895,5.2895,5.2962,5.3138,5.3439,5.3808,5.421,5.4863,5.5458,5.5641,5.5968,5.62,5.62,5.62,5.62,5.62,5.62,5.62,5.62,5.62,5.62,5.62,5.62,5.62,5.62,5.6072,5.5999,5.5999,5.5852,5.5595,5.5183,5.5164,5.4979,5.457,5.4328,5.4248,5.4397,5.4141,5.4029,5.4029,5.4029,5.4085]}]]